[[{"header":{"parameterUnit":"m.s-1","parameterCategory":1,"la1":30.6,"la2":29.2853,"lo1":-89.7004,"lo2":-87.6739,"dy":0.0162,"dx":0.0183,"nx":112,"ny":82,"refTime":"2025-01-08T06:00:00:Z","depth":0,"parameterNumber":2,"parameterNumberName":"U-component_of_WINDS"},"data":[0.0,0.0,0.0,0.0,0.0,0.0,0.0,0.0,0.0,0.0,0.0,0.0,0.0,0.0,0.0,0.0,0.0,0.0,0.0,0.0,0.0,0.0,0.0,0.0,0.0,0.0,0.0,0.0,0.0,0.0,0.0,0.0,0.0,0.0,0.0,0.0,0.0,0.0,0.0,0.0,0.0,0.0,0.0,0.0,0.0,0.0,0.0,0.0,0.0,0.0,0.0,0.0,0.0,0.0,0.0,0.0,0.0,0.0,0.0,0.0,0.0,0.0,0.0,0.0,0.0,0.0,0.0,0.0,0.0,0.0,0.0,0.0,0.0,0.0,0.0,0.0,0.0,0.0,0.0,0.0,0.0,0.0,0.0,0.0,0.0,0.0,0.0,0.0,0.0,0.0,0.0,4.5746,4.9623,5.1582,5.0784,4.9781,4.6126,3.8856,0.0,0.0,0.0,0.0,0.0,0.0,0.0,0.0,0.0,0.0,0.0,0.0,0.0,0.0,0.0,0.0,0.0,0.0,0.0,0.0,0.0,0.0,0.0,0.0,0.0,0.0,0.0,0.0,0.0,0.0,0.0,0.0,0.0,0.0,0.0,0.0,0.0,0.0,0.0,0.0,0.0,0.0,0.0,0.0,0.0,0.0,0.0,0.0,0.0,0.0,0.0,0.0,0.0,0.0,0.0,0.0,0.0,0.0,0.0,0.0,0.0,0.0,0.0,0.0,0.0,0.0,0.0,0.0,0.0,0.0,0.0,0.0,0.0,0.0,0.0,0.0,0.0,0.0,0.0,0.0,0.0,0.0,0.0,0.0,0.0,0.0,0.0,0.0,0.0,0.0,0.0,0.0,0.0,0.0,0.0,0.0,0.0,0.0,0.0,0.0,0.0,0.0,0.0,0.0,4.1048,4.8089,5.0659,5.1582,5.0784,4.9202,4.597,4.0475,0.0,0.0,0.0,0.0,0.0,0.0,0.0,0.0,0.0,0.0,0.0,0.0,0.0,0.0,0.0,0.0,0.0,0.0,0.0,0.0,0.0,0.0,0.0,0.0,0.0,0.0,0.0,0.0,0.0,0.0,0.0,0.0,0.0,0.0,0.0,0.0,0.0,0.0,0.0,0.0,0.0,0.0,0.0,0.0,0.0,0.0,0.0,0.0,0.0,0.0,0.0,0.0,0.0,0.0,0.0,0.0,0.0,0.0,0.0,0.0,0.0,0.0,0.0,0.0,0.0,0.0,0.0,0.0,0.0,0.0,0.0,0.0,0.0,0.0,0.0,0.0,0.0,0.0,0.0,0.0,0.0,0.0,0.0,0.0,0.0,0.0,0.0,0.0,0.0,0.0,0.0,0.0,0.0,0.0,0.0,0.0,0.0,0.0,0.0,0.0,0.0,0.0,0.0,4.1275,4.4853,5.02,5.1851,5.2274,5.1431,4.9353,4.5932,4.0821,3.7698,0.0,0.0,0.0,0.0,0.0,0.0,0.0,0.0,0.0,0.0,0.0,0.0,0.0,0.0,0.0,0.0,0.0,0.0,0.0,0.0,0.0,0.0,0.0,0.0,0.0,0.0,0.0,0.0,0.0,0.0,0.0,0.0,0.0,0.0,0.0,0.0,0.0,0.0,0.0,0.0,0.0,0.0,0.0,0.0,0.0,0.0,0.0,0.0,0.0,0.0,0.0,0.0,0.0,0.0,0.0,0.0,0.0,0.0,0.0,0.0,0.0,0.0,0.0,0.0,0.0,0.0,0.0,0.0,0.0,0.0,0.0,0.0,0.0,0.0,0.0,0.0,0.0,0.0,0.0,0.0,0.0,0.0,0.0,0.0,0.0,0.0,0.0,0.0,0.0,0.0,0.0,0.0,0.0,0.0,0.0,0.0,0.0,0.0,0.0,0.0,0.0,0.0,4.5932,4.8688,5.1092,5.2374,5.2579,5.1428,4.8496,4.488,4.0647,3.648,0.0,0.0,0.0,0.0,0.0,0.0,0.0,0.0,0.0,0.0,0.0,0.0,0.0,0.0,0.0,0.0,0.0,0.0,0.0,0.0,0.0,0.0,0.0,0.0,0.0,0.0,0.0,0.0,0.0,0.0,0.0,0.0,0.0,0.0,0.0,0.0,0.0,0.0,0.0,0.0,0.0,0.0,0.0,0.0,0.0,0.0,0.0,0.0,0.0,0.0,0.0,0.0,0.0,0.0,0.0,0.0,0.0,0.0,0.0,0.0,0.0,0.0,0.0,0.0,0.0,0.0,0.0,0.0,0.0,0.0,0.0,0.0,0.0,0.0,0.0,0.0,0.0,0.0,0.0,0.0,0.0,0.0,0.0,0.0,0.0,0.0,0.0,0.0,0.0,0.0,0.0,0.0,0.0,0.0,0.0,0.0,0.0,0.0,0.0,0.0,0.0,0.0,4.6203,5.024,4.9728,5.1464,5.1837,4.9837,4.5347,4.1859,4.0048,3.4004,0.0,0.0,0.0,0.0,0.0,0.0,0.0,0.0,0.0,0.0,0.0,0.0,0.0,0.0,0.0,0.0,0.0,0.0,0.0,0.0,0.0,0.0,0.0,0.0,0.0,0.0,0.0,0.0,0.0,0.0,0.0,0.0,0.0,0.0,0.0,0.0,0.0,0.0,0.0,0.0,0.0,0.0,0.0,0.0,0.0,0.0,0.0,0.0,0.0,0.0,0.0,0.0,0.0,0.0,0.0,0.0,0.0,0.0,0.0,0.0,0.0,0.0,0.0,0.0,0.0,0.0,0.0,0.0,0.0,0.0,0.0,0.0,0.0,0.0,0.0,0.0,0.0,0.0,0.0,0.0,0.0,0.0,0.0,0.0,0.0,0.0,0.0,0.0,0.0,0.0,0.0,0.0,0.0,0.0,0.0,0.0,0.0,0.0,0.0,0.0,0.0,0.0,4.4829,4.8636,0.0,5.1155,5.127,4.8932,4.656,4.326,3.8696,0.0,0.0,0.0,0.0,0.0,0.0,0.0,0.0,0.0,0.0,0.0,0.0,0.0,0.0,0.0,0.0,0.0,0.0,0.0,0.0,0.0,0.0,0.0,0.0,0.0,0.0,0.0,0.0,0.0,0.0,0.0,0.0,0.0,0.0,0.0,0.0,0.0,0.0,0.0,0.0,0.0,0.0,0.0,0.0,0.0,0.0,0.0,0.0,0.0,0.0,0.0,0.0,0.0,0.0,0.0,0.0,0.0,0.0,0.0,0.0,0.0,0.0,0.0,0.0,0.0,0.0,0.0,0.0,0.0,0.0,0.0,0.0,0.0,0.0,0.0,0.0,0.0,0.0,0.0,0.0,0.0,0.0,0.0,0.0,0.0,0.0,0.0,0.0,0.0,0.0,0.0,0.0,0.0,0.0,0.0,0.0,0.0,0.0,0.0,0.0,0.0,0.0,3.9449,4.4758,4.8472,0.0,5.0893,5.0745,4.814,4.5963,4.2587,3.7532,0.0,0.0,0.0,0.0,0.0,0.0,0.0,0.0,0.0,0.0,0.0,0.0,0.0,0.0,0.0,0.0,0.0,0.0,0.0,0.0,0.0,0.0,0.0,0.0,0.0,0.0,0.0,0.0,0.0,0.0,0.0,0.0,0.0,0.0,0.0,0.0,0.0,0.0,0.0,0.0,0.0,0.0,0.0,0.0,0.0,0.0,0.0,0.0,0.0,0.0,0.0,0.0,0.0,0.0,0.0,0.0,0.0,0.0,0.0,0.0,0.0,0.0,0.0,0.0,0.0,0.0,0.0,0.0,0.0,0.0,0.0,0.0,0.0,0.0,0.0,0.0,0.0,0.0,0.0,0.0,0.0,0.0,0.0,0.0,0.0,0.0,0.0,0.0,0.0,0.0,0.0,0.0,0.0,0.0,0.0,0.0,0.0,0.0,0.0,0.0,0.0,0.0,3.9868,4.6349,5.0437,4.9676,5.0662,5.0233,4.7343,4.2727,3.9006,0.0,0.0,0.0,0.0,0.0,0.0,0.0,0.0,0.0,0.0,0.0,0.0,0.0,0.0,0.0,0.0,0.0,0.0,0.0,0.0,0.0,0.0,0.0,0.0,0.0,0.0,0.0,0.0,0.0,0.0,0.0,0.0,0.0,0.0,0.0,0.0,0.0,0.0,0.0,0.0,0.0,0.0,0.0,0.0,0.0,0.0,0.0,0.0,0.0,0.0,0.0,0.0,0.0,0.0,0.0,0.0,0.0,0.0,0.0,0.0,0.0,0.0,0.0,0.0,0.0,0.0,0.0,0.0,0.0,0.0,0.0,0.0,0.0,0.0,0.0,0.0,0.0,0.0,0.0,0.0,0.0,0.0,0.0,0.0,0.0,0.0,0.0,0.0,0.0,0.0,0.0,0.0,0.0,0.0,0.0,0.0,0.0,0.0,0.0,0.0,0.0,0.0,0.0,4.064,4.6754,5.0688,5.047,5.0763,4.9908,4.7315,4.4773,4.0856,3.5212,0.0,0.0,0.0,0.0,0.0,0.0,0.0,0.0,0.0,0.0,0.0,0.0,0.0,0.0,0.0,0.0,0.0,0.0,0.0,0.0,0.0,0.0,0.0,0.0,0.0,0.0,0.0,0.0,0.0,0.0,0.0,0.0,0.0,0.0,0.0,0.0,0.0,0.0,0.0,0.0,0.0,0.0,0.0,0.0,0.0,0.0,0.0,0.0,0.0,0.0,0.0,0.0,0.0,0.0,0.0,0.0,0.0,0.0,0.0,0.0,0.0,0.0,0.0,0.0,0.0,0.0,0.0,0.0,0.0,0.0,0.0,0.0,0.0,0.0,0.0,0.0,0.0,0.0,0.0,0.0,0.0,0.0,0.0,0.0,0.0,0.0,0.0,0.0,0.0,0.0,0.0,0.0,0.0,0.0,0.0,0.0,0.0,0.0,0.0,0.0,0.0,0.0,4.1308,4.7054,5.0912,5.1242,5.0986,4.9916,4.7746,4.5796,4.1908,3.5386,0.0,0.0,0.0,0.0,0.0,0.0,0.0,0.0,0.0,0.0,0.0,0.0,0.0,0.0,0.0,0.0,0.0,0.0,0.0,0.0,0.0,0.0,0.0,0.0,0.0,0.0,0.0,0.0,0.0,0.0,0.0,0.0,0.0,0.0,0.0,0.0,0.0,0.0,0.0,0.0,0.0,0.0,0.0,0.0,0.0,0.0,0.0,0.0,0.0,0.0,0.0,0.0,0.0,0.0,0.0,0.0,0.0,0.0,0.0,0.0,0.0,0.0,0.0,0.0,0.0,0.0,0.0,0.0,0.0,0.0,0.0,0.0,0.0,0.0,0.0,0.0,0.0,0.0,0.0,0.0,0.0,0.0,0.0,0.0,0.0,0.0,0.0,0.0,0.0,0.0,0.0,0.0,0.0,0.0,0.0,0.0,0.0,0.0,0.0,0.0,0.0,0.0,4.1911,4.7315,5.1132,5.2018,5.1316,5.0136,4.8558,4.6131,4.2388,3.6967,0.0,0.0,0.0,0.0,0.0,0.0,0.0,0.0,0.0,0.0,0.0,0.0,0.0,0.0,0.0,0.0,0.0,0.0,0.0,0.0,0.0,0.0,0.0,0.0,0.0,0.0,0.0,0.0,0.0,0.0,0.0,0.0,0.0,0.0,0.0,0.0,0.0,0.0,0.0,0.0,0.0,0.0,0.0,0.0,0.0,0.0,0.0,0.0,0.0,0.0,0.0,0.0,0.0,0.0,0.0,0.0,0.0,0.0,0.0,0.0,3.5165,3.2816,0.0,0.0,0.0,0.0,0.0,0.0,0.0,0.0,0.0,0.0,0.0,0.0,0.0,0.0,0.0,0.0,0.0,0.0,0.0,0.0,0.0,0.0,0.0,0.0,0.0,0.0,0.0,0.0,0.0,0.0,0.0,0.0,0.0,0.0,0.0,0.0,0.0,0.0,0.0,0.0,4.2666,4.7687,5.1348,5.2774,5.1678,5.0398,4.9417,4.6471,4.3126,3.9357,3.4871,0.0,0.0,0.0,0.0,0.0,0.0,0.0,0.0,0.0,0.0,0.0,0.0,0.0,0.0,0.0,0.0,0.0,0.0,0.0,0.0,0.0,0.0,0.0,0.0,0.0,0.0,0.0,0.0,0.0,0.0,0.0,0.0,0.0,0.0,0.0,0.0,0.0,0.0,0.0,0.0,0.0,0.0,0.0,0.0,0.0,0.0,0.0,0.0,0.0,0.0,0.0,0.0,0.0,0.0,0.0,0.0,0.0,0.0,0.0,4.0373,3.8105,0.0,0.0,0.0,0.0,0.0,0.0,0.0,0.0,0.0,0.0,0.0,0.0,0.0,0.0,0.0,0.0,0.0,0.0,0.0,0.0,0.0,0.0,0.0,0.0,0.0,0.0,0.0,0.0,0.0,0.0,0.0,0.0,0.0,0.0,0.0,0.0,0.0,0.0,0.0,0.0,4.3424,4.8012,5.1421,5.3031,5.2118,5.1064,5.0256,4.7865,4.4888,4.1295,3.7955,0.0,0.0,0.0,0.0,0.0,0.0,0.0,0.0,0.0,0.0,0.0,0.0,0.0,0.0,0.0,0.0,0.0,0.0,0.0,0.0,0.0,0.0,0.0,0.0,0.0,0.0,0.0,0.0,0.0,0.0,0.0,0.0,0.0,0.0,0.0,0.0,0.0,0.0,0.0,0.0,0.0,0.0,0.0,0.0,0.0,0.0,0.0,0.0,0.0,0.0,0.0,0.0,0.0,4.7205,4.8154,4.8805,4.8952,4.9361,4.9806,4.6319,4.4562,4.3832,4.0096,0.0,0.0,0.0,0.0,0.0,0.0,0.0,0.0,0.0,0.0,0.0,0.0,0.0,0.0,0.0,0.0,0.0,0.0,0.0,0.0,0.0,0.0,4.1597,4.1597,4.3608,4.3672,3.6806,0.0,0.0,0.0,0.0,0.0,0.0,0.0,0.0,0.0,0.0,0.0,4.4223,4.8485,5.1568,5.3031,5.2491,5.1725,5.1059,4.9329,4.687,4.3571,4.1295,3.8285,0.0,0.0,0.0,0.0,0.0,0.0,0.0,0.0,0.0,0.0,0.0,0.0,0.0,0.0,0.0,0.0,0.0,0.0,0.0,0.0,0.0,0.0,0.0,0.0,0.0,0.0,0.0,0.0,0.0,0.0,0.0,0.0,3.6648,3.6978,0.0,0.0,0.0,0.0,0.0,0.0,0.0,0.0,0.0,0.0,0.0,0.0,0.0,4.5773,4.7163,4.9627,5.0922,5.1064,5.399,5.5416,5.5563,5.6229,5.6638,5.6644,5.5422,0.0,4.642,4.3795,0.0,0.0,0.0,0.0,0.0,0.0,0.0,0.0,0.0,0.0,0.0,0.0,0.0,0.0,0.0,0.0,0.0,0.0,0.0,0.0,0.0,0.0,4.8237,4.832,4.8651,4.8462,4.6613,4.1471,3.639,3.356,3.1978,3.069,0.0,0.0,0.0,0.0,0.0,0.0,4.5186,4.9302,5.2197,5.3104,5.2491,5.1945,5.1835,4.9664,4.8076,4.753,4.3379,4.0659,3.9998,3.5712,0.0,0.0,0.0,0.0,0.0,0.0,0.0,0.0,0.0,0.0,0.0,0.0,0.0,0.0,0.0,0.0,0.0,0.0,0.0,0.0,0.0,0.0,0.0,0.0,0.0,0.0,0.0,0.0,0.0,3.6516,3.9533,3.9533,3.9904,3.9386,0.0,0.0,0.0,0.0,0.0,0.0,0.0,0.0,0.0,4.871,5.0031,5.1463,5.3067,5.5055,5.6046,5.6082,5.7917,5.8835,5.8835,5.9208,5.9355,5.9318,5.8982,5.6957,5.3576,4.9329,4.6214,4.386,0.0,0.0,0.0,0.0,4.2575,4.3236,4.5516,4.5736,4.4782,4.3746,0.0,0.0,0.0,0.0,0.0,0.0,0.0,4.3525,4.5365,4.8347,5.1137,5.2097,5.2648,5.2721,5.1903,4.8531,4.4093,3.8905,3.7327,3.5712,3.2149,3.1635,0.0,0.0,0.0,4.269,4.6723,5.0036,5.2312,5.3104,5.2889,5.2491,5.2055,5.0582,4.9292,4.8375,4.5906,4.4072,4.3158,3.9745,3.6776,0.0,0.0,0.0,0.0,0.0,0.0,0.0,0.0,0.0,0.0,0.0,0.0,0.0,0.0,0.0,0.0,0.0,0.0,0.0,0.0,0.0,0.0,0.0,0.0,0.0,0.0,0.0,0.0,3.9631,4.2241,4.2053,4.3273,4.302,0.0,0.0,0.0,0.0,0.0,0.0,4.7976,4.9407,5.1316,5.3775,5.4981,5.6302,5.7697,5.9123,5.982,5.982,6.0633,6.1,6.1,6.1,6.1,6.1,6.078,6.0376,5.9416,5.4174,5.1169,4.9622,4.72,4.6613,4.7241,4.8076,4.8475,4.9099,5.2145,5.2407,5.1164,4.9728,4.8044,4.5842,4.2037,0.0,0.0,0.0,0.0,4.7163,4.9774,5.1688,5.3267,5.4693,5.5469,5.5726,5.5133,5.3739,5.077,4.4484,4.2755,4.0846,3.6186,3.5899,0.0,3.8212,0.0,4.5071,4.8485,5.0912,5.2527,5.3141,5.3214,5.2962,5.2344,5.1573,5.0508,4.9035,4.7966,4.6787,4.5356,4.3012,4.0671,3.8476,0.0,0.0,0.0,0.0,0.0,0.0,0.0,0.0,0.0,0.0,0.0,0.0,0.0,0.0,0.0,0.0,0.0,0.0,0.0,0.0,0.0,0.0,0.0,0.0,0.0,0.0,0.0,0.0,0.0,4.4626,4.7241,0.0,0.0,0.0,0.0,4.675,4.903,5.1463,5.3849,5.4772,5.6345,5.8756,5.8939,5.938,6.0193,6.1043,6.149,6.149,6.2285,6.2683,6.2683,6.2683,6.2683,6.2646,6.1887,6.1526,6.1159,5.7048,5.4845,5.3849,5.1426,5.0503,5.0655,5.1468,5.2234,5.292,5.3141,5.3141,5.3324,5.4735,5.3566,5.1431,5.0435,4.9035,0.0,0.0,4.9738,5.1835,5.2779,5.4216,5.5622,5.6486,5.6701,5.6743,5.6701,5.5422,5.3267,4.9826,4.7288,4.508,4.3249,0.0,4.3281,4.4149,4.6388,4.8631,5.043,5.2118,5.3177,5.3214,5.3214,5.3177,5.3141,5.2417,5.1578,5.0729,4.9145,4.7856,4.7003,4.4672,4.2616,4.0952,3.6839,0.0,0.0,0.0,0.0,0.0,0.0,0.0,0.0,0.0,0.0,0.0,0.0,0.0,0.0,0.0,0.0,0.0,0.0,0.0,0.0,0.0,0.0,0.0,0.0,0.0,0.0,0.0,0.0,4.9224,5.0875,0.0,4.916,5.021,5.1227,5.1751,5.4069,5.6271,5.8174,5.903,6.0352,6.2291,6.2365,6.2732,6.3563,6.3827,6.3973,6.3973,6.4267,6.4407,6.4407,6.4407,6.4407,6.4371,6.3546,6.3215,6.2995,6.0505,5.8993,5.818,5.7293,5.6963,5.7,5.7299,5.7587,5.7765,5.7245,5.7062,5.6884,5.591,5.4667,5.3371,5.2595,5.2302,5.2344,5.2863,5.3995,5.5275,5.6088,5.6712,5.7231,5.7483,5.7556,5.7556,5.7556,5.6706,5.5605,5.4473,5.1426,4.8375,4.6209,4.625,4.6503,4.6273,4.8333,5.032,5.1431,5.2522,5.3214,5.3214,5.3214,5.3214,5.3214,5.1977,5.1096,5.0834,4.8737,4.7411,4.7113,4.5287,4.3754,4.2657,3.9195,3.5125,0.0,0.0,0.0,0.0,0.0,0.0,0.0,0.0,0.0,0.0,0.0,0.0,0.0,0.0,0.0,0.0,0.0,0.0,0.0,0.0,0.0,0.0,0.0,0.0,0.0,0.0,5.0875,5.2234,5.4064,5.4687,5.3345,5.4693,5.5862,5.6376,5.8694,6.0529,6.1594,6.2401,6.3356,6.4457,6.4494,6.4751,6.5288,6.5588,6.5588,6.5288,6.5588,6.5552,6.5288,6.5288,6.5288,6.5251,6.4751,6.4494,6.442,6.3319,6.2365,6.1557,6.075,6.0413,6.0413,6.0413,6.0413,6.0303,5.9783,5.941,5.8933,5.7336,5.6271,5.5537,5.4981,5.5201,5.5721,5.6246,5.6791,5.733,5.7855,5.8002,5.8002,5.8002,5.8002,5.8002,5.8002,5.7593,5.711,5.6847,5.4431,5.1793,4.9874,5.0246,5.0503,4.9691,5.0944,5.2197,5.2753,5.3036,5.3214,5.3214,5.3214,5.3104,5.2816,5.1568,5.0545,4.999,4.8145,4.6971,4.6714,4.5145,4.4048,4.351,4.0088,3.6417,3.2596,0.0,0.0,0.0,0.0,0.0,0.0,0.0,0.0,0.0,0.0,0.0,0.0,0.0,0.0,0.0,0.0,0.0,0.0,0.0,0.0,0.0,0.0,0.0,4.5925,5.0949,5.421,5.3581,5.6921,5.8389,5.6099,5.87,6.0523,6.0523,6.2775,6.4133,6.417,6.4891,6.5362,6.5368,6.5368,6.5368,6.5368,6.6145,6.6145,6.5362,6.6182,6.6139,6.5368,6.5368,6.5368,6.5368,6.5362,6.5331,6.5331,6.5295,6.4854,6.3913,6.1447,6.0487,6.0487,6.0487,6.045,6.045,6.045,5.9893,5.9227,5.9227,5.8725,5.807,5.8033,5.8033,5.8039,5.8002,5.8002,5.8002,5.8002,5.8002,5.8002,5.8002,5.8002,5.8002,5.8002,5.8002,5.7776,5.7,5.6203,5.5401,5.4583,5.5065,5.5328,5.4546,5.4436,0.0,5.4436,5.3733,5.3251,5.3251,5.3214,5.2889,5.2092,5.1242,5.0068,4.8448,4.7521,4.6677,4.5925,4.4387,4.3543,4.3543,3.9582,3.6747,3.5107,0.0,0.0,0.0,0.0,0.0,0.0,0.0,0.0,0.0,0.0,0.0,0.0,0.0,0.0,0.0,0.0,0.0,0.0,0.0,0.0,0.0,4.7168,5.0907,5.1903,5.3927,5.6497,5.9783,6.0633,6.1159,6.1716,6.2554,6.3068,6.3068,6.4237,6.5221,6.5822,6.6035,6.6439,6.7033,6.7033,6.7033,6.7033,6.7253,6.7253,6.7033,6.7253,6.7253,6.7033,6.7033,6.7033,6.6996,6.6402,6.6182,6.6109,6.5552,6.5185,6.4854,6.3582,6.2695,6.2132,6.2132,6.1771,6.1269,6.1269,6.075,6.0083,6.0083,5.9936,5.9642,5.9049,5.8866,5.8762,5.8143,5.8002,5.8002,5.8002,5.8002,5.8002,5.8002,5.8002,5.8002,5.8002,5.8002,5.7923,5.7703,5.7483,5.6901,5.5506,5.5438,5.5511,5.5291,5.5254,5.5254,5.5254,5.4583,5.4064,5.4064,5.3544,5.3104,5.2889,5.1022,4.9664,4.9187,4.6755,4.5507,4.5883,4.4929,4.4374,4.4374,4.0414,3.8134,0.0,0.0,0.0,0.0,0.0,0.0,0.0,0.0,0.0,0.0,0.0,0.0,0.0,0.0,0.0,0.0,0.0,0.0,0.0,0.0,0.0,0.0,5.1536,5.506,5.7587,5.8327,5.9648,6.2462,6.3019,6.3539,6.4494,6.4904,6.5124,6.5124,6.5852,6.6659,6.7467,6.7504,6.7871,6.8685,6.8722,6.8722,6.8722,6.8355,6.8208,6.8208,6.7841,6.77,6.77,6.77,6.77,6.7664,6.7217,6.6996,6.696,6.6512,6.6109,6.5735,0.0,0.0,0.0,0.0,6.2805,6.2108,6.2108,6.1594,6.0896,6.0896,6.0676,6.0303,5.982,5.971,5.96,5.9134,5.8762,5.8505,5.8505,5.8253,5.8002,5.8002,5.8002,5.8002,5.8002,5.8002,5.8002,5.8002,5.8002,0.0,5.6754,5.6607,5.6607,5.6607,5.6314,5.6093,5.6093,5.5396,5.4919,5.4919,5.4473,5.3917,5.3251,5.1573,0.0,0.0,0.0,4.5617,4.5402,4.4961,0.0,0.0,0.0,0.0,0.0,0.0,0.0,0.0,3.877,3.8395,0.0,0.0,0.0,0.0,0.0,0.0,0.0,0.0,0.0,0.0,0.0,0.0,0.0,0.0,0.0,0.0,5.5506,5.7782,6.2169,6.305,6.3233,6.3233,6.4517,6.5472,6.5552,6.6292,6.6769,6.6769,6.751,6.8281,6.9002,6.9038,0.0,0.0,0.0,7.0117,7.0117,6.9376,6.9038,6.9038,6.8318,6.7958,6.7958,6.7884,6.7847,6.7847,6.7737,6.77,6.77,6.77,6.729,6.6549,6.5662,6.5288,6.5221,6.4494,6.3759,6.3086,6.2976,0.0,0.0,6.1783,6.1263,6.0633,6.056,6.0523,6.0523,6.0413,5.9893,5.9337,5.9337,5.8725,5.8143,5.8143,5.807,5.8002,5.8002,5.8002,5.8002,5.8002,5.8002,5.8002,5.8002,5.8002,5.8002,5.8002,5.7404,5.6926,5.6926,5.6235,5.5732,5.5732,5.5658,0.0,5.3581,5.2637,5.1174,4.8852,4.7893,4.675,4.5328,4.5255,4.5622,4.6434,4.6361,4.7058,4.8595,4.8668,4.915,4.9826,4.3098,4.1878,0.0,0.0,0.0,0.0,0.0,0.0,0.0,0.0,0.0,0.0,0.0,0.0,0.0,0.0,0.0,5.4814,5.8228,6.097,6.2572,6.4524,6.5778,6.5778,6.6072,6.6512,6.718,6.7944,6.8451,6.8451,6.9192,6.9713,6.9853,6.9853,6.9926,7.0117,7.0117,7.0117,7.0117,6.9963,6.9853,6.9853,6.9713,0.0,6.9603,6.8972,6.8678,6.8635,6.7987,6.77,6.77,6.77,6.7627,6.7333,6.5882,6.5288,6.5295,6.5148,6.4964,6.4701,6.4053,6.3766,6.3509,6.2799,6.2462,6.2205,6.1557,6.138,0.0,6.056,6.0303,6.0156,6.0156,5.9563,5.8976,5.8976,5.8468,5.8002,5.8002,5.8002,5.8002,5.8002,5.8002,5.8002,5.8002,5.8002,5.8002,5.8002,5.7886,5.7776,5.7776,5.7079,5.6559,5.6559,5.5983,5.5475,5.5144,5.3807,5.2485,5.1358,4.9931,4.8976,4.8683,4.8646,4.9013,4.9843,4.9233,4.9344,5.032,5.0954,5.1683,5.2412,4.905,4.8279,0.0,0.0,0.0,0.0,0.0,0.0,0.0,0.0,0.0,0.0,0.0,4.6282,4.9554,0.0,5.5464,5.8694,6.1269,6.3289,6.4487,6.5705,6.6512,6.6512,6.6849,6.7437,6.8201,6.8678,6.9075,6.9486,6.9853,7.0293,7.069,7.069,7.0881,7.1284,7.1284,7.1284,7.1284,7.091,7.069,7.069,7.0293,7.0117,7.0073,6.9669,6.9486,6.9449,6.8641,6.8311,6.8274,6.7884,6.77,6.7627,6.6813,6.6256,6.5882,6.5882,6.5662,6.5251,6.4854,6.4714,6.464,6.4194,6.379,6.3392,6.2958,6.2548,6.2101,6.1692,6.1294,6.1006,6.1006,6.0413,5.9783,5.9783,5.9202,5.8615,5.8615,5.829,5.8002,5.8002,5.8002,5.8002,5.8002,5.8002,5.8002,5.8002,5.8002,5.8002,5.8002,5.7666,5.7409,5.7409,5.7048,5.6644,5.6235,5.4724,5.3623,5.323,5.2055,5.1394,5.1394,5.1394,5.1793,5.2601,5.2202,5.2386,5.3193,5.3597,5.4221,5.4976,5.3775,5.3193,0.0,0.0,0.0,0.0,0.0,0.0,0.0,0.0,4.3856,4.6911,4.882,5.1054,5.4651,5.678,5.9092,6.2499,6.3906,6.5014,6.6329,6.6503,6.6542,6.6719,6.7437,6.8208,6.8855,6.901,6.9429,7.0279,7.0306,7.0651,7.1483,7.1527,7.1821,7.2496,7.2488,7.2488,7.2488,7.1857,7.1527,7.1527,7.0881,7.0557,7.0557,7.0403,7.033,7.0293,6.9479,6.9038,6.8855,6.8208,6.7847,6.77,6.77,6.729,6.6733,6.6733,6.6329,6.5735,6.5588,6.5515,6.5515,6.5362,6.4854,6.4316,6.4133,6.3613,6.3013,6.2866,6.2322,6.1814,6.1814,6.1227,6.0633,6.0633,6.0009,5.941,5.941,5.8798,5.8217,5.8217,5.8112,5.8002,5.8002,5.8002,5.8002,5.8002,5.8002,5.8002,5.8002,5.8002,5.8002,5.8002,5.8002,5.774,5.7073,5.5684,5.4876,5.4876,5.41,5.3654,5.3654,5.3654,5.4027,5.484,5.4876,5.5244,5.6062,5.6062,5.6387,5.7036,5.7036,5.6675,4.0641,3.9452,3.9239,4.2001,4.2845,4.4314,0.0,0.0,5.0435,5.2931,5.4724,5.6444,5.8315,6.0548,6.2536,6.3766,6.5234,6.6292,6.6476,6.6464,6.6693,6.7473,6.8281,6.8781,6.8892,6.9433,7.0185,7.111,7.1078,7.1394,7.2306,7.2378,7.2415,7.2488,7.2488,7.2488,7.2488,7.2415,7.2378,7.2342,7.2268,7.2239,7.2202,7.1497,7.116,7.1123,7.033,6.9559,6.8892,6.8781,6.8348,6.77,6.77,6.7627,6.759,6.759,6.7517,6.7327,6.6623,6.6366,6.6256,6.5515,6.5258,6.5038,6.4316,6.4023,6.3796,6.3013,6.2756,6.2683,6.2683,6.2071,6.149,6.149,6.086,6.0266,6.0266,5.9636,5.9086,5.9086,5.8505,5.8002,5.8002,5.8002,5.8002,5.8002,5.8002,5.8002,5.8002,5.8002,5.8002,5.8002,5.8002,5.796,5.7886,5.7036,5.6523,5.6523,5.58,5.5328,5.5328,5.5328,5.5726,5.6523,5.6523,5.6926,5.7745,5.7745,5.7782,5.7886,5.7886,5.7813,4.511,4.4563,0.0,0.0,4.7103,4.9174,5.204,5.2808,5.3587,5.6009,5.7393,5.8845,6.0921,6.2542,6.398,0.0,6.6446,6.7032,6.6516,6.6431,6.6186,6.5576,6.659,6.7929,6.9439,6.8868,6.916,7.1051,7.062,7.0693,7.1656,7.1702,7.1951,7.2474,7.1981,7.1702,7.1702,7.1702,7.1702,7.1673,7.2241,7.2488,7.2488,7.2158,7.1747,7.127,7.0947,7.0032,6.8785,6.8785,6.8611,6.8276,6.8276,6.861,6.8979,6.8068,6.77,6.7664,6.7333,6.718,6.7143,6.6813,6.6366,6.5925,6.5595,6.5154,6.4634,6.3796,6.3576,6.3429,6.2939,6.2536,6.2285,6.2285,6.1661,6.108,6.108,6.045,5.9893,5.9893,5.9642,5.9391,5.9391,5.9018,5.8688,5.8688,5.829,5.8002,5.8002,5.8002,5.8002,5.8002,5.8002,5.8002,5.8002,5.7703,5.7483,5.7483,5.7195,5.7011,5.7011,5.7011,5.7158,5.7483,5.7483,5.7666,5.8002,5.8468,5.8688,5.8725,5.9165,5.9391,4.741,0.0,0.0,4.8369,5.054,5.2923,5.3977,5.5015,5.6284,5.8276,5.9311,6.0409,6.2139,6.3539,6.4803,6.5972,6.6816,6.7132,6.6486,6.5815,6.4999,6.4026,6.428,6.5626,6.8465,6.7818,6.8194,7.0544,6.9822,6.9699,7.066,7.0709,7.1039,7.1709,7.1302,7.1111,7.1111,7.1111,7.1111,7.1119,7.1526,7.1732,7.1732,7.1732,7.1555,7.1246,7.1246,7.0564,6.9419,6.9419,6.931,6.9092,6.9092,6.9493,6.997,6.8795,6.8208,6.7987,6.7774,6.77,6.77,6.77,6.729,6.6769,6.6549,6.6109,6.5441,6.464,6.4427,6.4237,6.3386,6.3166,6.3092,6.2866,6.2358,6.1924,6.1924,6.13,6.075,6.075,6.056,6.0413,6.0413,5.993,5.9526,5.9526,5.9055,5.851,5.8076,5.8002,5.8002,5.8002,5.8002,5.8002,5.8002,5.8002,5.8002,5.8002,5.8002,5.8002,5.8002,5.8002,5.8107,5.8321,5.8321,5.8437,5.8657,5.9239,5.9526,5.9563,6.012,6.0523,0.0,0.0,4.8806,5.0391,5.2573,5.4752,5.639,5.7952,5.9303,6.016,6.097,6.1538,6.1602,6.3608,6.5268,6.5251,6.5893,6.6434,6.6411,6.4274,6.3023,6.3809,6.1775,6.1588,0.0,6.6362,6.7838,6.961,6.8817,6.8685,6.9699,6.9752,6.9761,6.9787,7.0643,7.1111,7.1111,7.1111,7.1111,7.1103,7.0222,6.9796,6.9796,6.9796,7.0254,7.1115,7.1115,7.1147,7.1235,7.1235,7.0765,7.0045,7.0045,7.0052,7.0073,7.0043,6.9522,6.8745,6.7951,6.77,6.77,6.77,6.7664,6.7517,6.6739,6.6476,6.6292,6.5478,6.5258,6.5074,6.428,6.4059,6.3839,6.3013,6.2793,6.2756,6.2756,6.2144,6.1563,6.1563,6.0933,6.0413,6.0413,6.0376,6.0376,6.0376,6.034,5.9758,5.8217,5.8002,5.8002,5.8002,5.8002,5.8002,5.8002,5.8002,5.8002,5.8002,5.8002,5.8002,5.8002,5.8002,5.8364,5.9153,5.9153,5.9563,6.034,6.034,6.0376,6.0376,6.0376,6.0823,0.0,0.0,5.113,5.2323,5.4336,5.6278,5.7376,5.7999,5.8458,5.8786,5.9466,6.0188,6.0755,6.1955,6.3168,6.4166,6.4555,6.4728,6.4604,6.4296,6.3394,6.1577,6.1947,0.0,0.0,0.0,6.5076,6.7776,6.7069,6.7172,6.8622,6.9209,6.9545,6.969,6.9879,6.9714,6.9169,6.9169,6.9169,6.9178,6.953,7.0041,7.061,6.9997,7.0222,7.1079,7.0451,6.9828,6.9239,6.9239,6.9097,6.8849,6.8893,6.9301,6.9757,6.9255,6.888,6.861,6.8536,6.8495,6.8421,6.7884,6.77,6.7664,6.737,6.729,6.7143,6.6329,6.6102,6.5919,6.5111,6.4897,6.4677,6.387,6.3649,6.3503,6.2903,6.2572,6.2395,6.2395,6.2175,6.1985,6.1985,6.1557,6.1006,6.0487,6.0413,6.0193,5.9648,5.9606,5.9606,5.9606,5.9606,5.9606,5.9606,5.9606,5.9606,5.9606,5.9606,5.9606,5.9606,5.9606,5.9716,6.0009,6.0003,6.012,6.0413,6.0933,6.119,6.119,6.1734,6.2132,4.8977,5.0653,5.246,5.3933,5.5534,5.7022,5.7833,5.798,5.7962,5.8063,5.8464,5.8873,5.9136,6.0044,6.1365,6.3206,6.346,6.3714,6.4454,6.4207,6.3192,6.1148,6.1965,6.2439,0.0,0.0,6.3567,6.6387,6.6038,6.6388,6.8001,6.8571,6.9055,6.9487,6.9425,6.9129,6.8629,6.8327,6.8039,6.7698,6.8339,6.9001,6.9557,6.8954,6.9168,7.0013,6.9431,6.8993,6.8732,6.8732,6.8732,6.8732,6.8777,6.9166,6.9681,6.9515,6.942,6.9316,6.8579,6.8338,6.8193,6.7374,6.7121,6.7143,6.7219,6.723,6.7176,6.6996,6.6923,6.6739,6.5925,6.5735,6.5521,6.4714,6.453,6.4383,6.382,6.346,6.3276,6.3276,6.3013,6.2793,6.2793,6.2358,6.1851,6.1331,6.1257,6.1037,6.0487,6.0413,6.0413,6.0413,6.0413,6.0413,6.0413,6.0413,6.0413,6.0413,6.0413,6.0413,6.0413,6.0413,6.0523,6.0823,6.0823,6.097,6.1257,6.1777,6.2034,6.2034,6.2872,6.3276,5.1484,5.223,5.2893,5.5178,5.6316,5.7039,5.7771,5.7893,5.7867,5.7728,5.7784,5.7548,0.0,0.0,5.9844,6.2119,6.2511,6.3353,6.5677,6.4029,6.2526,0.0,0.0,0.0,0.0,0.0,0.0,6.5571,6.5706,6.6349,6.7827,6.7963,6.8335,6.9079,6.931,6.9397,6.9327,6.8517,6.7668,6.6802,6.6802,6.6833,6.6886,6.6823,6.7301,6.8189,6.8131,6.8657,6.9565,6.9565,6.9565,6.9565,6.9565,6.9565,6.9672,7.056,7.0881,7.0535,6.812,6.7374,6.736,6.6562,6.6314,6.6338,6.6546,6.6572,6.6699,6.754,6.7737,6.7517,6.6769,6.6549,6.6366,6.5552,6.5336,6.5273,6.5236,6.4593,6.4024,6.4024,6.3384,6.2846,6.2846,6.2914,6.2903,6.2866,6.2866,6.2316,6.0707,6.0523,6.0523,6.0523,6.0523,6.0523,6.0523,6.0523,6.0523,6.0523,6.0523,6.0523,6.0523,6.0523,6.089,6.1637,6.1673,6.2071,6.2866,6.2866,6.2903,6.2939,6.3796,6.417,5.2036,5.3896,5.5756,5.6361,5.707,5.7514,5.7169,5.6677,5.5792,5.4106,5.4157,5.3798,0.0,0.0,0.0,5.8145,6.0185,0.0,6.4678,6.4913,0.0,6.3352,0.0,6.4208,6.3318,6.3734,0.0,6.6396,6.6,6.6349,6.7827,6.8977,6.9462,6.9113,6.9666,6.9442,6.8284,6.7536,6.705,6.6802,6.6802,6.7171,6.7827,6.712,6.7301,6.814,6.745,6.7315,6.7545,6.7545,6.7545,6.7545,6.7545,6.7545,6.7576,6.7812,6.7886,6.7802,6.716,6.8407,7.0162,6.9332,6.9085,6.9092,6.9149,6.873,6.8327,6.8513,6.8171,6.7664,6.7437,6.74,6.718,6.6402,6.5656,6.4982,6.4388,6.3602,6.2989,6.2989,6.3329,6.3613,6.3613,6.4194,6.445,6.387,6.3766,6.3392,6.2316,6.2205,6.2205,6.2205,6.2205,6.2205,6.2205,6.2205,6.2205,6.2205,6.2205,6.2205,6.2205,6.2205,6.2279,6.2505,6.2505,6.2909,6.3766,6.3766,6.409,6.4664,6.4891,6.5001,5.3974,5.5505,5.6867,5.7205,5.7349,5.7036,5.5683,5.4761,5.3525,5.1183,5.0808,0.0,0.0,0.0,0.0,0.0,0.0,0.0,6.4805,6.5474,6.5503,0.0,6.5696,0.0,6.5483,6.5797,6.6542,6.7715,6.6812,6.6981,6.8819,6.9733,7.0172,7.0049,7.0161,6.9462,6.7929,6.7478,6.7106,6.6802,6.6802,6.7092,6.7572,6.705,6.7078,6.7561,6.704,6.6802,6.6802,6.6802,6.6802,6.6802,6.6802,6.6802,6.6854,6.725,6.7424,6.7461,6.7931,6.9176,7.0317,6.8692,6.8155,6.8187,6.8245,6.7956,6.7597,6.7646,6.7355,6.6928,6.6589,6.6524,6.6415,6.593,6.5444,6.492,6.4468,6.3729,6.3015,6.2653,6.3313,6.3906,6.3906,6.4699,6.5148,6.4677,6.464,6.445,6.3967,6.327,6.2793,6.2793,6.2793,6.2793,6.2793,6.2793,6.2793,6.2793,6.3166,6.3386,6.3386,6.371,6.3894,6.3894,6.3894,6.4157,6.464,6.464,6.4854,6.5295,6.5662,6.5845,5.64,5.7036,5.7239,5.7891,5.7417,5.6215,5.3983,5.2739,5.131,4.8803,0.0,4.7454,4.7866,4.9629,5.2248,5.5945,0.0,6.2411,6.5583,6.5985,6.6271,6.7005,6.7106,6.7343,6.7996,6.8064,6.8402,6.918,6.8019,6.8098,7.0105,7.0308,7.0635,7.13,7.0567,6.9563,6.8233,6.8098,6.776,6.7106,6.7106,6.7039,6.6937,6.6937,6.6903,6.6802,6.6802,6.6802,6.6802,6.6802,6.6802,6.6802,6.6802,6.6802,6.6883,6.7708,6.8019,6.8146,6.8993,6.9322,6.8988,6.6897,6.6214,6.624,6.6377,6.631,6.6278,6.6372,6.6347,6.6108,6.5478,6.5239,6.5141,6.5141,6.4979,6.4824,6.4824,6.4205,6.3419,6.2699,6.3266,6.387,6.387,6.4732,6.5407,6.5297,6.5376,6.5405,6.5295,6.404,6.3123,6.3123,6.3123,6.3123,6.3123,6.3123,6.3123,6.3123,6.3833,6.4243,6.4243,6.4928,6.5288,6.5288,6.5288,6.5362,6.5478,6.5478,6.5515,6.5625,6.6329,6.6666,5.7588,5.8152,5.865,5.8786,5.7814,5.6215,5.3983,5.1928,0.0,0.0,0.0,4.4677,4.3632,4.7134,5.1065,5.3671,0.0,0.0,0.0,0.0,6.7793,0.0,0.0,0.0,0.0,0.0,0.0,6.9936,6.9766,6.9766,7.0172,7.077,7.1165,7.13,7.0567,7.0071,6.98,6.9191,6.8842,6.8707,6.8707,6.8368,6.7726,6.7726,6.7387,6.6802,6.6802,6.6802,6.6802,6.6802,6.6802,6.6802,6.6802,6.6802,6.6823,6.6977,6.7061,6.7081,6.7243,6.7305,6.7471,6.8611,6.9001,6.9003,6.9016,6.8567,6.8055,6.8072,6.7594,6.7046,6.694,6.6427,6.5896,6.5896,6.4891,6.3918,6.3918,6.3257,6.2597,6.2451,6.3148,6.3721,6.3721,6.509,6.5953,6.5258,6.58,6.6035,6.5405,6.5031,6.4891,6.4891,6.4891,6.4891,6.4891,6.4891,6.4891,6.4891,6.5001,6.5074,6.5074,6.5221,6.5288,6.5288,6.5288,6.5625,6.6292,6.6292,6.6629,6.7297,6.7444,6.748,5.8838,5.9302,5.9462,5.909,5.7593,5.5336,5.1919,0.0,0.0,0.0,0.0,4.2513,4.1725,0.0,0.0,0.0,0.0,0.0,0.0,0.0,0.0,0.0,0.0,0.0,0.0,0.0,7.0387,7.0737,7.077,7.077,7.077,7.1097,7.13,7.13,7.0973,7.0601,7.0206,6.9868,6.9485,6.9113,6.9113,6.891,6.8504,6.8504,6.8335,6.7986,6.7986,6.7749,6.7377,6.7377,6.7377,6.7377,6.7377,6.7614,6.7986,6.7986,6.7715,6.7377,6.7377,6.7106,6.6936,6.7891,6.819,6.819,6.819,6.7928,6.7548,6.7142,6.6742,6.6377,6.5997,6.5616,6.5305,6.5305,6.474,6.4165,6.4165,6.3844,6.3531,6.3531,6.4252,6.4713,6.435,6.5367,6.5983,6.5177,6.5842,6.6304,6.5933,6.6278,6.6219,6.5405,6.5288,6.5288,6.5288,6.5288,6.5288,6.5288,6.5698,6.5919,6.5919,6.6329,6.6549,6.6549,6.6549,6.6739,6.7106,6.7106,6.7333,6.77,6.8134,6.8311,5.9776,6.0216,6.0182,5.9428,5.7457,5.4549,5.0228,4.7834,0.0,0.0,4.0954,4.0957,4.0958,0.0,0.0,0.0,0.0,0.0,0.0,0.0,0.0,0.0,0.0,0.0,0.0,7.13,0.0,7.13,7.13,7.13,7.13,7.13,7.13,7.13,7.13,7.103,7.0443,7.0443,7.0128,6.9575,6.9575,6.9485,6.935,6.935,6.9248,6.9113,6.9113,6.8741,6.8166,6.8166,6.8166,6.8166,6.8166,6.8538,6.9113,6.9113,6.8707,6.8166,6.8166,6.7793,6.7275,6.7106,6.6937,6.6802,6.6802,6.6802,6.6667,6.6112,6.5943,6.5797,6.5222,6.4952,6.4783,6.4647,6.4613,6.4613,6.4613,6.4613,6.4613,6.4613,6.5152,6.5455,6.4863,6.5482,6.5853,6.528,6.5973,6.659,6.659,6.7375,6.7442,6.6142,6.5893,6.5809,6.5809,6.5809,6.5809,6.5809,6.6402,6.6769,6.6769,6.7547,6.7951,6.7951,6.8141,6.8214,6.8214,6.8214,6.8214,6.8214,6.8862,6.9148,6.0047,6.0622,6.0994,6.0216,5.7839,5.4693,5.0887,0.0,0.0,4.1817,4.0646,4.039,4.1044,0.0,0.0,0.0,0.0,0.0,0.0,0.0,0.0,0.0,0.0,0.0,7.1289,7.13,7.13,7.13,7.13,7.13,7.13,7.13,7.13,7.13,7.13,7.1267,7.1199,7.1199,7.1165,7.1097,7.1097,7.077,7.0105,7.0105,6.9722,6.9113,6.9113,6.9079,6.8977,6.8977,6.8977,6.8977,6.8977,6.9045,6.9113,6.9113,6.9045,6.8977,6.8977,6.8944,6.8774,6.803,6.7343,6.6802,6.6802,6.6802,6.6802,6.6734,6.67,6.6667,6.6633,6.6102,6.5436,6.4749,6.4613,6.4613,6.4613,6.4613,6.4613,6.4613,6.4651,6.4688,6.462,6.5347,6.5889,6.5829,6.6611,6.721,6.721,6.8031,6.8559,6.8414,6.7852,6.7474,6.7474,6.7474,6.7474,6.7474,6.7554,6.759,6.759,6.8348,6.8781,6.8781,6.9522,6.9896,6.9896,6.9896,6.9896,6.9896,6.997,7.0007,6.0452,6.1366,6.167,6.0419,5.7872,5.4583,5.0405,0.0,4.4195,4.1149,4.0309,4.0174,4.0472,4.1373,0.0,0.0,0.0,0.0,0.0,0.0,0.0,0.0,0.0,0.0,0.0,0.0,7.13,7.13,7.13,7.13,7.13,7.13,7.13,7.13,7.13,7.13,7.13,7.13,7.13,7.13,7.13,7.1131,7.0872,7.0872,7.0703,7.0421,7.0421,7.0161,6.9766,6.9766,6.9766,6.9766,6.9766,7.0026,7.0421,7.0421,7.0128,6.9766,6.9766,6.9451,6.9045,6.8741,6.8436,6.8019,6.7072,6.6802,6.6802,6.6802,6.6802,6.6802,6.6802,6.6565,6.6305,6.599,6.5922,6.5922,6.5922,6.5922,6.5922,6.5922,6.5922,6.5797,6.5334,6.5535,6.5635,6.5181,6.5893,6.6479,6.6479,6.7277,6.8084,6.864,6.8976,6.9125,6.9125,6.9125,6.9125,6.9125,6.9125,6.9125,6.9125,6.9449,6.9633,6.9633,6.9926,7.0117,7.0117,7.0117,7.0117,7.0117,7.058,7.0837,5.9742,6.1003,6.1332,5.9819,5.7408,5.4186,0.0,4.6556,4.3728,4.0716,4.0113,4.0113,4.0113,4.0703,4.2111,0.0,0.0,4.8688,5.416,5.6639,5.9413,0.0,0.0,6.7726,6.9778,7.0793,7.13,7.13,7.13,7.13,7.13,7.13,7.13,7.13,7.13,7.13,7.13,7.13,7.13,7.13,7.13,7.13,7.13,7.13,7.13,7.13,7.13,7.1007,7.0534,7.0534,7.0534,7.0534,7.0534,7.0838,7.13,7.13,7.0962,7.0534,7.0534,7.0195,6.9711,6.9485,6.9417,6.918,6.7884,6.7309,6.7072,6.6869,6.6802,6.6802,6.6802,6.6802,6.6802,6.6802,6.6802,6.6802,6.6802,6.6802,6.6802,6.6802,6.6802,6.6633,6.6102,6.6045,6.5831,6.5324,6.5761,6.6171,6.6171,6.6995,6.7931,6.8879,6.9834,7.0309,7.0132,7.0117,7.0117,7.0117,7.0117,7.0117,7.0117,7.033,7.044,7.044,7.0697,7.0807,7.0807,7.0807,7.0807,7.0807,7.1387,7.1637,5.7518,5.9007,5.9776,5.8297,5.6233,5.3416,0.0,4.6177,4.3728,4.0716,4.0113,4.0113,4.0113,4.0703,4.1948,4.4235,0.0,0.0,5.4853,5.6968,5.9041,0.0,0.0,6.5222,6.67,6.9542,7.13,7.13,7.13,7.13,7.13,7.13,7.13,7.13,7.13,7.13,7.13,7.13,7.13,7.13,7.13,7.13,7.13,7.13,7.13,7.13,7.13,7.13,7.13,7.13,7.13,7.13,7.13,7.1289,7.13,7.13,7.13,7.13,7.13,7.13,7.1165,7.0443,7.0172,7.0037,6.9316,6.8504,6.7726,6.7005,6.6802,6.6802,6.6802,6.6802,6.6802,6.6802,6.6802,6.6802,6.6802,6.6802,6.6802,6.6802,6.6802,6.6802,6.6802,6.6802,6.6802,6.6768,6.6768,6.6779,6.6779,6.7618,6.8565,6.9583,7.0524,7.0806,7.0164,7.0117,7.0117,7.0117,7.0117,7.0117,7.0117,7.0874,7.1307,7.1307,7.2085,7.2496,7.2496,7.2496,7.2496,7.2496,7.2496,7.2488,5.437,5.5894,5.6621,5.4566,5.2782,5.0616,4.7184,4.5053,4.3064,4.0614,4.0113,4.0113,4.0113,4.0276,4.1853,4.6169,4.7252,0.0,0.0,0.0,0.0,6.2154,6.6406,6.9372,6.9846,7.0759,7.13,7.13,7.13,7.13,7.13,7.13,7.13,7.13,7.13,7.13,7.13,7.13,7.13,7.13,7.13,7.13,7.13,7.13,7.13,7.13,7.13,7.13,7.13,7.13,7.13,7.13,7.13,7.13,7.13,7.13,7.13,7.13,7.13,7.13,7.1267,7.103,7.0962,7.0804,7.006,6.9316,6.8673,6.8436,6.8358,6.8358,6.8358,6.8358,6.8222,6.7681,6.7557,6.7421,6.6903,6.6802,6.6802,6.6802,6.6802,6.6971,6.7455,6.714,6.6971,6.7489,6.7106,6.6802,6.6802,6.7071,6.7612,6.8562,6.893,6.9843,7.1604,7.1725,7.1725,7.1725,7.1725,7.1725,7.1725,7.1975,7.2121,7.2121,7.2378,7.2488,7.2488,7.2488,7.2488,7.2488,7.2488,7.2488,0.0,5.2812,5.3602,5.1894,5.0371,4.8578,4.5872,4.4079,4.2455,4.0512,4.0113,4.0113,4.0113,4.0343,4.1684,4.5222,4.6744,0.0,0.0,0.0,0.0,6.2888,0.0,6.9711,6.9981,7.0793,7.13,7.13,7.13,7.13,7.13,7.13,7.13,7.13,7.13,7.13,7.13,7.13,7.13,7.13,7.13,7.13,7.13,7.13,7.13,7.13,7.13,7.13,0.0,7.13,7.13,7.13,7.13,7.13,7.13,7.13,7.13,7.13,7.13,7.13,7.13,7.13,7.13,7.1199,7.0737,6.9925,6.9113,6.9113,6.9113,6.9113,6.9113,6.9113,6.8977,6.847,6.8335,6.8233,6.7749,6.7681,6.7681,6.7681,6.7681,6.7817,6.8267,6.7952,6.7817,6.8267,6.7952,6.7681,6.7681,6.7681,6.8012,6.8962,6.908,6.9928,7.2095,7.2075,7.1981,7.1981,7.2292,7.2329,7.1996,7.26,7.2936,7.2936,7.3259,7.3259,7.2936,7.2642,7.2679,7.2936,7.2936,7.312,0.0,4.9552,5.0533,4.9737,4.8511,4.6947,4.4838,4.3247,0.0,4.0377,4.0113,4.014,4.0316,4.0804,4.1576,4.2665,4.5203,4.8308,0.0,5.5919,0.0,0.0,6.6294,6.7377,6.8098,7.0049,7.13,7.13,7.13,7.13,7.13,7.13,7.13,7.13,7.13,7.13,7.13,7.13,7.13,7.13,7.13,7.13,7.13,7.13,7.13,7.13,7.13,7.13,7.13,7.13,7.13,7.13,7.13,7.13,7.13,7.13,7.13,7.13,7.13,7.13,7.13,7.13,7.13,7.13,7.13,7.0353,6.9248,6.9248,6.9248,6.9248,6.9248,6.9248,6.9248,6.918,6.918,6.9147,6.9113,6.9113,6.9113,6.9113,6.9113,6.9113,6.918,6.9147,6.9113,6.918,6.9147,6.9113,6.9113,6.9113,6.9444,7.0317,7.0394,7.0769,7.1722,7.1478,7.1223,7.1159,7.2044,7.2127,7.1191,7.2767,7.3633,7.3574,7.4395,7.4448,7.3788,7.3046,7.3046,7.3788,7.3788,7.4184,4.2787,0.0,4.5819,4.4465,4.3883,4.3335,0.0,4.1711,0.0,0.0,0.0,0.0,0.0,0.0,4.2753,4.7503,4.8857,5.0616,5.4389,0.0,0.0,6.9203,7.0015,7.0319,7.0489,7.0996,7.13,7.13,7.13,7.13,7.13,7.13,7.13,7.13,7.13,7.13,7.13,7.13,7.13,7.13,7.13,7.13,7.13,7.13,7.13,7.13,7.13,7.13,7.13,7.13,7.13,7.13,7.13,7.13,7.13,7.13,7.13,7.13,7.13,7.13,7.13,7.13,7.13,7.13,7.13,7.1064,7.0793,7.0793,7.0793,7.0793,7.0793,7.0793,7.0624,7.0071,6.9936,6.98,6.9214,6.9113,6.9113,6.9113,6.9113,6.9282,6.9823,6.9451,6.9282,6.9868,6.9451,6.9113,6.9113,6.9113,6.9177,6.9412,6.9433,6.9809,7.0739,7.2077,7.2539,7.1748,7.2631,7.2731,7.1739,7.2836,7.3103,7.2333,7.325,7.4048,7.4617,7.4434,7.4434,7.4617,7.4617,7.4727,4.0703,4.2834,4.4898,4.4079,4.3612,4.3247,4.2834,0.0,0.0,0.0,0.0,0.0,0.0,0.0,0.0,0.0,4.9492,0.0,0.0,0.0,6.7411,7.0894,7.13,7.13,7.13,7.13,7.13,7.13,7.13,7.13,7.13,7.13,7.13,7.13,7.13,7.13,7.13,7.13,7.13,7.13,7.13,7.13,7.13,7.13,7.13,7.13,7.13,7.13,7.13,7.13,7.13,7.13,7.13,7.13,7.13,7.13,7.13,7.13,7.13,7.13,7.13,7.13,7.13,7.13,7.13,7.13,7.13,7.13,7.13,7.13,7.13,7.13,7.1199,7.0804,7.0703,7.0601,7.0195,7.0117,7.0117,7.0117,7.0117,7.0252,7.0635,7.0364,7.0252,7.0635,7.0364,7.0117,7.0117,7.0117,7.0117,7.0117,7.0117,7.0335,7.0836,7.2242,7.2594,7.1358,7.2182,7.229,7.1288,7.2547,7.3173,7.3015,7.3181,7.3772,7.4766,7.4374,7.4649,7.5461,7.5461,7.5637,4.0512,4.3173,4.5696,4.5026,4.4628,4.4337,0.0,0.0,0.0,0.0,0.0,0.0,0.0,0.0,0.0,0.0,0.0,0.0,6.2777,6.617,6.8741,7.103,7.13,7.13,7.13,7.13,7.13,7.13,7.13,7.13,7.13,7.13,7.13,7.13,7.13,7.13,7.13,7.13,7.13,7.13,7.13,7.13,7.13,7.13,7.13,7.13,7.13,7.13,7.13,7.13,7.13,7.13,7.13,7.13,7.13,7.13,7.13,7.13,7.13,7.13,7.13,7.13,7.13,7.13,7.13,7.13,7.13,7.13,7.13,7.13,7.13,7.13,7.13,7.13,7.13,7.13,7.13,7.13,7.13,7.13,7.13,7.13,7.13,7.13,7.13,7.13,7.13,7.13,7.13,7.13,7.13,7.13,7.13,7.13,7.13,7.2088,7.2009,7.0701,7.1529,7.1677,7.0891,7.2123,7.3287,7.4282,7.3494,7.3541,7.4538,7.4026,7.4534,7.6056,7.6216,7.6636,4.2381,4.4715,4.571,4.1894,4.2286,4.3091,0.0,0.0,0.0,0.0,0.0,0.0,0.0,0.0,0.0,0.0,0.0,6.0283,0.0,0.0,6.8741,7.103,7.13,7.13,7.13,7.13,7.13,7.13,7.13,7.13,7.13,7.13,7.13,7.13,7.13,7.13,7.13,7.13,7.13,7.13,7.13,7.13,7.13,7.13,7.13,7.13,7.13,7.13,7.13,7.13,7.13,7.13,7.13,7.13,7.13,7.13,7.13,7.13,7.13,7.13,7.13,7.13,7.13,7.13,7.13,7.13,7.13,7.13,7.13,7.13,7.13,7.13,7.13,7.13,7.13,7.13,7.13,7.13,7.13,7.13,7.13,7.13,7.13,7.13,7.13,7.13,7.13,7.13,7.13,7.13,7.13,7.13,7.13,7.13,7.13,7.1434,7.1433,7.1184,7.2101,7.2604,7.2451,7.1891,7.2437,7.4253,7.3322,7.3347,7.4339,7.5064,7.5566,7.5863,7.6705,7.7179,4.1346,4.3586,4.5007,4.2523,4.4485,4.6752,0.0,0.0,0.0,0.0,0.0,0.0,0.0,0.0,0.0,5.7958,0.0,6.4015,6.6542,6.8176,6.9688,7.1131,7.13,7.13,7.13,7.13,7.13,7.13,7.13,7.13,7.13,7.13,7.13,7.13,7.13,7.13,7.13,7.13,7.13,7.13,7.13,7.13,7.13,7.13,7.13,7.13,7.13,7.13,7.13,7.13,7.13,7.13,7.13,7.13,7.13,7.13,7.13,7.13,7.13,7.13,7.13,7.13,7.13,7.13,7.13,7.13,7.13,7.13,7.13,7.13,7.13,7.13,7.13,7.13,7.13,7.13,7.13,7.13,7.13,7.13,7.13,7.13,7.13,7.13,7.13,7.13,7.13,7.13,7.13,7.13,7.13,7.13,7.13,7.13,7.13,7.13,7.13,7.13,7.1743,7.198,7.198,7.1557,7.1743,7.2655,7.2204,7.2467,7.3492,7.3947,7.446,7.4985,7.5457,7.5694,4.1251,4.2976,4.4567,0.0,0.0,0.0,0.0,0.0,0.0,0.0,0.0,0.0,0.0,5.2976,0.0,6.2357,6.5199,6.7161,6.8267,6.9597,7.0669,7.1233,7.13,7.13,7.13,7.13,7.13,7.13,7.13,7.13,7.13,7.13,7.13,7.13,7.13,7.13,7.13,7.13,7.13,7.13,7.13,7.13,7.13,7.13,7.13,7.13,7.13,7.13,7.13,7.13,7.13,7.13,7.13,7.13,7.13,7.13,7.13,7.13,7.13,7.13,7.13,7.13,7.13,7.13,7.13,7.13,7.13,7.13,7.13,7.13,7.13,7.13,7.13,7.13,7.13,7.13,7.13,7.13,7.13,7.13,7.13,7.13,7.13,7.13,7.13,7.13,7.13,7.13,7.13,7.13,7.13,7.13,7.13,7.13,7.13,7.13,7.13,7.13,7.13,7.13,7.13,7.13,7.13,7.13,7.13,7.1677,7.2435,7.2707,7.3181,7.3937,7.4177,7.4291,4.4722,4.4966,4.5074,0.0,0.0,0.0,0.0,0.0,0.0,0.0,0.0,0.0,0.0,5.7374,6.256,6.5063,6.7939,6.9902,7.0003,7.0737,7.1233,7.1289,7.13,7.13,7.13,7.13,7.13,7.13,7.13,7.13,7.13,7.13,7.13,7.13,7.13,7.13,7.13,7.13,7.13,7.13,7.13,7.13,7.13,7.13,7.13,7.13,7.13,7.13,7.13,7.13,7.13,7.13,7.13,7.13,7.13,7.13,7.13,7.13,7.13,7.13,7.13,7.13,7.13,7.13,7.13,7.13,7.13,7.13,7.13,7.13,7.13,7.13,7.13,7.13,7.13,7.13,7.13,7.13,7.13,7.13,7.13,7.13,7.13,7.13,7.13,7.13,7.13,7.13,7.13,7.13,7.13,7.13,7.13,7.13,7.13,7.13,7.13,7.13,7.13,7.13,7.13,7.13,7.13,7.13,7.13,7.1345,7.139,7.2353,7.2838,7.2941,7.3885,7.4291,4.3342,4.4418,0.0,0.0,0.0,0.0,0.0,0.0,0.0,0.0,0.0,0.0,0.0,0.0,6.3971,6.6609,6.8819,7.0375,7.0804,7.1131,7.13,7.13,7.13,7.13,7.13,7.13,7.13,7.13,7.13,7.13,7.13,7.13,7.13,7.13,7.13,7.13,7.13,7.13,7.13,7.13,7.13,7.13,7.13,7.13,7.13,7.13,7.13,7.13,7.13,7.13,7.13,7.13,7.13,7.13,7.13,7.13,7.13,7.13,7.13,7.13,7.13,7.13,7.13,7.13,7.13,7.13,7.13,7.13,7.13,7.13,7.13,7.13,7.13,7.13,7.13,7.13,7.13,7.13,7.13,7.13,7.13,7.13,7.13,7.13,7.13,7.13,7.13,7.13,7.13,7.13,7.13,7.13,7.13,7.13,7.13,7.13,7.13,7.13,7.13,7.13,7.13,7.13,7.13,7.13,7.13,7.13,7.13,7.1688,7.1873,7.1884,7.227,7.2438,4.2794,4.4147,0.0,0.0,0.0,0.0,0.0,0.0,0.0,0.0,0.0,0.0,0.0,0.0,0.0,6.7455,6.9383,7.0737,7.1233,7.13,7.13,7.13,7.13,7.13,7.13,7.13,7.13,7.13,7.13,7.13,7.13,7.13,7.13,7.13,7.13,7.13,7.13,7.13,7.13,7.13,7.13,7.13,7.13,7.13,7.13,7.13,7.13,7.13,7.13,7.13,7.13,7.13,7.13,7.13,7.13,7.13,7.13,7.13,7.13,7.13,7.13,7.13,7.13,7.13,7.13,7.13,7.13,7.13,7.13,7.13,7.13,7.13,7.13,7.13,7.13,7.13,7.13,7.13,7.13,7.13,7.13,7.13,7.13,7.13,7.13,7.13,7.13,7.13,7.13,7.13,7.13,7.13,7.13,7.13,7.13,7.13,7.13,7.13,7.13,7.13,7.13,7.13,7.13,7.13,7.13,7.13,7.13,7.13,7.13,7.13,7.13,7.13,4.3788,0.0,0.0,0.0,0.0,0.0,0.0,0.0,0.0,0.0,0.0,0.0,0.0,0.0,0.0,6.7557,6.9812,7.13,7.13,7.13,7.13,7.13,7.13,7.13,7.13,7.13,7.13,7.13,7.13,7.13,7.13,7.13,7.13,7.13,7.13,7.13,7.13,7.13,7.13,7.13,7.13,7.13,7.13,7.13,7.13,7.13,7.13,7.13,7.13,7.13,7.13,7.13,7.13,7.13,7.13,7.13,7.13,7.13,7.13,7.13,7.13,7.13,7.13,7.13,7.13,7.13,7.13,7.13,7.13,7.13,7.13,7.13,7.13,7.13,7.13,7.13,7.13,7.13,7.13,7.13,7.13,7.13,7.13,7.13,7.13,7.13,7.13,7.13,7.13,7.13,7.13,7.13,7.13,7.13,7.13,7.13,7.13,7.13,7.13,7.13,7.13,7.13,7.13,7.13,7.13,7.13,7.13,7.13,7.13,7.13,7.13,7.13,4.2544,0.0,0.0,0.0,0.0,0.0,0.0,0.0,0.0,0.0,0.0,0.0,0.0,0.0,0.0,6.847,6.9755,7.0703,7.1233,7.13,7.13,7.13,7.13,7.13,7.13,7.13,7.13,7.13,7.13,7.13,7.13,7.13,7.13,7.13,7.13,7.13,7.13,7.13,7.13,7.13,7.13,7.13,7.13,7.13,7.13,7.13,7.13,7.13,7.13,7.13,7.13,7.13,7.13,7.13,7.13,7.13,7.13,7.13,7.13,7.13,7.13,7.13,7.13,7.13,7.13,7.13,7.13,7.13,7.13,7.13,7.13,7.13,7.13,7.13,7.13,7.13,7.13,7.13,7.13,7.13,7.13,7.13,7.13,7.13,7.13,7.13,7.13,7.13,7.13,7.13,7.13,7.13,7.13,7.13,7.13,7.13,7.13,7.13,7.13,7.13,7.13,7.13,7.13,7.13,7.13,7.13,7.13,7.13,7.13,7.13,7.13,7.13,0.0,0.0,0.0,0.0,0.0,0.0,0.0,0.0,0.0,0.0,0.0,6.7411,6.803,6.7658,6.776,6.9282,7.0161,7.0804,7.1233,7.13,7.13,7.13,7.13,7.13,7.13,7.13,7.13,7.13,7.13,7.13,7.13,7.13,7.13,7.13,7.13,7.13,7.13,7.13,7.13,7.13,7.13,7.13,7.13,7.13,7.13,7.13,7.13,7.13,7.13,7.13,7.13,7.13,7.13,7.13,7.13,7.13,7.13,7.13,7.13,7.13,7.13,7.13,7.13,7.13,7.13,7.13,7.13,7.13,7.13,7.13,7.13,7.13,7.13,7.13,7.13,7.13,7.13,7.13,7.13,7.13,7.13,7.13,7.13,7.13,7.13,7.13,7.13,7.13,7.13,7.13,7.13,7.13,7.13,7.13,7.13,7.13,7.13,7.13,7.13,7.13,7.13,7.13,7.13,7.13,7.13,7.13,7.13,7.13,7.13,7.13,7.13,7.13,0.0,0.0,0.0,0.0,0.0,0.0,0.0,0.0,0.0,0.0,0.0,6.8639,7.0037,6.9147,6.8673,7.0071,7.0872,7.13,7.13,7.13,7.13,7.13,7.13,7.13,7.13,7.13,7.13,7.13,7.13,7.13,7.13,7.13,7.1267,7.1199,7.1199,7.1165,7.1097,7.1097,7.1097,7.1097,7.1165,7.1199,7.1199,7.1267,7.13,7.13,7.13,7.13,7.13,7.13,7.13,7.13,7.13,7.13,7.13,7.13,7.13,7.13,7.13,7.13,7.13,7.13,7.13,7.13,7.13,7.13,7.13,7.13,7.13,7.13,7.13,7.13,7.13,7.13,7.13,7.13,7.13,7.13,7.13,7.13,7.13,7.13,7.13,7.13,7.13,7.13,7.13,7.13,7.13,7.13,7.13,7.13,7.13,7.13,7.13,7.13,7.13,7.13,7.13,7.13,7.13,7.13,7.13,7.13,7.13,7.13,7.13,7.13,7.13,7.13,7.13,7.13,0.0,0.0,0.0,0.0,0.0,0.0,0.0,0.0,0.0,7.103,7.0793,7.0658,7.0996,7.0793,7.0692,7.0996,7.1199,7.13,7.13,7.13,7.13,7.13,7.13,7.13,7.13,7.13,7.13,7.13,7.13,7.13,7.13,7.13,7.103,7.0443,7.0443,7.0161,6.9586,6.9575,6.9575,6.9586,7.0161,7.0443,7.0477,7.103,7.13,7.13,7.13,7.13,7.13,7.13,7.13,7.13,7.13,7.13,7.13,7.13,7.13,7.13,7.13,7.13,7.13,7.13,7.13,7.13,7.13,7.13,7.13,7.13,7.13,7.13,7.13,7.13,7.13,7.13,7.13,7.13,7.13,7.13,7.13,7.13,7.13,7.13,7.13,7.13,7.13,7.13,7.13,7.13,7.13,7.13,7.13,7.13,7.13,7.13,7.13,7.13,7.13,7.13,7.13,7.13,7.13,7.13,7.13,7.13,7.13,7.13,7.13,7.13,7.13,7.13,7.13,7.13,0.0,0.0,0.0,0.0,0.0,0.0,0.0,0.0,7.0861,7.1233,7.13,7.13,7.13,7.13,7.13,7.13,7.13,7.13,7.13,7.13,7.13,7.13,7.13,7.13,7.13,7.13,7.13,7.13,7.13,7.1131,7.0804,7.077,7.0432,6.9688,6.9665,6.9485,6.9113,6.9113,6.9113,6.9113,6.9485,6.9665,6.9722,7.0793,7.13,7.13,7.13,7.13,7.13,7.13,7.13,7.13,7.13,7.13,7.13,7.13,7.13,7.13,7.13,7.13,7.13,7.13,7.13,7.13,7.13,7.13,7.13,7.13,7.13,7.13,7.13,7.13,7.13,7.13,7.13,7.13,7.13,7.13,7.13,7.13,7.13,7.13,7.13,7.13,7.13,7.13,7.13,7.13,7.13,7.13,7.13,7.13,7.13,7.13,7.13,7.13,7.13,7.13,7.13,7.13,7.13,7.13,7.13,7.13,7.13,7.13,7.13,7.13,7.13,7.13,7.13,7.13,0.0,0.0,0.0,0.0,0.0,0.0,0.0,6.9451,7.0229,7.0973,7.1199,7.13,7.13,7.13,7.13,7.13,7.13,7.13,7.13,7.13,7.13,7.13,7.13,7.13,7.13,7.1199,7.1097,7.1097,7.0996,7.0658,7.0037,7.0003,6.9665,6.891,6.8876,6.8842,6.8696,6.8696,6.8696,6.8696,6.8842,6.8977,6.9147,7.0353,7.0996,7.1097,7.1097,7.1199,7.13,7.13,7.13,7.13,7.13,7.13,7.13,7.13,7.13,7.13,7.13,7.13,7.13,7.13,7.13,7.13,7.13,7.13,7.13,7.13,7.13,7.13,7.13,7.13,7.13,7.13,7.13,7.13,7.13,7.13,7.13,7.13,7.13,7.13,7.13,7.13,7.13,7.13,7.13,7.13,7.13,7.13,7.13,7.13,7.13,7.13,7.13,7.13,7.13,7.13,7.13,7.13,7.13,7.13,7.13,7.13,7.13,7.13,7.13,7.13,7.13,7.13,7.13,7.13,0.0,0.0,0.0,0.0,0.0,6.714,0.0,0.0,6.9451,7.0206,7.0872,7.13,7.13,7.13,7.13,7.13,7.13,7.13,7.13,7.13,7.13,7.13,7.13,7.13,7.13,7.0737,7.0342,7.0342,6.9755,6.935,6.9248,6.9248,6.8876,6.8098,6.8064,6.7749,6.7106,6.7106,6.7106,6.7106,6.7749,6.8436,6.9113,6.9316,6.9722,7.0342,7.0342,7.0703,7.13,7.13,7.13,7.13,7.13,7.13,7.13,7.13,7.13,7.13,7.13,7.13,7.13,7.13,7.13,7.13,7.13,7.13,7.13,7.13,7.13,7.13,7.13,7.13,7.13,7.13,7.13,7.13,7.13,7.13,7.13,7.13,7.13,7.13,7.13,7.13,7.13,7.13,7.13,7.13,7.13,7.13,7.13,7.13,7.13,7.13,7.13,7.13,7.13,7.13,7.13,7.13,7.13,7.13,7.13,7.13,7.13,7.13,7.13,7.13,7.13,7.13,7.13,7.13,4.4316,5.0473,5.6325,0.0,6.4241,6.5855,6.7005,6.7895,6.8639,6.9417,6.9857,7.0319,7.1165,7.13,7.13,7.13,7.13,7.13,7.13,7.13,7.13,7.13,7.13,7.13,7.13,7.0635,7.0206,7.0206,6.9519,6.891,6.8436,6.8436,6.8098,6.7309,6.7275,6.714,6.6802,6.6802,6.6802,6.6802,6.714,6.7478,6.7817,6.7817,6.8707,7.0206,7.0206,7.0635,7.13,7.13,7.13,7.13,7.13,7.13,7.13,7.13,7.13,7.13,7.13,7.13,7.13,7.13,7.13,7.13,7.13,7.13,7.13,7.13,7.13,7.13,7.13,7.13,7.13,7.13,7.13,7.13,7.13,7.13,7.13,7.13,7.13,7.13,7.13,7.13,7.13,7.13,7.13,7.13,7.13,7.13,7.13,7.13,7.13,7.13,7.13,7.13,7.13,7.13,7.13,7.13,7.13,7.13,7.13,7.13,7.13,7.13,7.13,7.13,7.13,7.13,7.13,7.13,0.0,0.0,5.3467,5.9235,6.2076,6.3937,0.0,6.6812,6.7624,6.8605,6.8808,6.9169,7.0489,7.0894,7.1064,7.1267,7.13,7.1233,7.1064,7.1165,7.1165,7.0793,7.0894,7.0962,7.0759,7.006,6.9631,6.9631,6.8944,6.8256,6.7658,6.7624,6.7377,6.6836,6.6802,6.6802,6.6802,6.6802,6.6802,6.6802,6.6802,6.6802,6.6802,6.6802,6.7827,6.9631,6.9834,7.0331,7.103,7.1233,7.13,7.13,7.13,7.13,7.13,7.13,7.13,7.13,7.13,7.13,7.13,7.13,7.13,7.13,7.13,7.13,7.13,7.13,7.13,7.13,7.13,7.13,7.13,7.13,7.13,7.13,7.13,7.13,7.13,7.13,7.13,7.13,7.13,7.13,7.13,7.13,7.13,7.13,7.13,7.13,7.13,7.13,7.13,7.13,7.13,7.13,7.13,7.13,7.13,7.13,7.13,7.13,7.13,7.13,7.13,7.13,7.13,7.13,7.13,7.13,7.13,7.13,0.0,4.3856,0.0,5.4219,5.8211,6.1095,6.4038,6.529,6.6214,6.7658,6.7963,6.8233,6.9079,6.98,7.0477,7.1199,7.13,7.1064,7.0375,7.0872,7.0793,6.9372,6.9834,6.9969,6.9282,6.8504,6.803,6.803,6.7354,6.6903,6.6869,6.6869,6.6836,6.6802,6.6802,6.6802,6.6802,6.6802,6.6802,6.6802,6.6802,6.6802,6.6802,6.6802,6.7242,6.8064,6.8842,6.9586,7.0308,7.0996,7.13,7.13,7.13,7.13,7.13,7.13,7.13,7.13,7.13,7.13,7.13,7.13,7.13,7.13,7.13,7.13,7.13,7.13,7.13,7.13,7.13,7.13,7.13,7.13,7.13,7.13,7.13,7.13,7.13,7.13,7.13,7.13,7.13,7.13,7.13,7.13,7.13,7.13,7.13,7.13,7.13,7.13,7.13,7.13,7.13,7.13,7.13,7.13,7.13,7.13,7.13,7.13,7.13,7.13,7.13,7.13,7.13,7.13,7.13,7.13,7.13,7.13,0.0,0.0,0.0,5.0262,5.4355,5.7805,5.9844,6.2719,6.5121,6.5662,6.6531,6.7444,6.8199,6.8977,6.9586,6.9857,6.988,6.9789,6.9519,6.9722,6.9677,6.918,6.9316,6.9383,6.9113,6.8368,6.7895,6.7895,6.7208,6.6802,6.6802,6.6802,6.6802,6.6802,6.6802,6.6802,6.6802,6.6802,6.6802,6.6802,6.6802,6.6802,6.6802,6.6802,6.6937,6.7275,6.8538,6.9519,7.0274,7.0996,7.13,7.13,7.13,7.13,7.13,7.13,7.13,7.13,7.13,7.13,7.13,7.13,7.13,7.13,7.13,7.13,7.13,7.13,7.13,7.13,7.13,7.13,7.13,7.13,7.13,7.13,7.13,7.13,7.13,7.13,7.13,7.13,7.13,7.13,7.13,7.13,7.13,7.147,7.1954,7.2011,7.2191,7.2665,7.2699,7.2529,7.2056,7.2011,7.1808,7.1334,7.13,7.13,7.13,7.13,7.13,7.13,7.13,7.13,7.13,7.13,7.13,7.13,7.13,7.13,3.5921,0.0,0.0,0.0,5.033,5.3441,5.7688,6.0564,6.2719,6.3961,6.5392,6.6576,6.706,6.7793,6.8504,6.9011,6.9113,6.9011,6.8741,6.8944,6.891,6.8392,6.8538,6.8605,6.8358,6.785,6.7523,6.7523,6.7072,6.6802,6.6802,6.6802,6.6802,6.6802,6.6802,6.6802,6.6802,6.6802,6.6802,6.6802,6.6802,6.6802,6.6802,6.6802,6.6802,6.6869,6.8132,6.9113,6.9891,7.0894,7.13,7.13,7.13,7.13,7.13,7.13,7.13,7.13,7.13,7.13,7.13,7.13,7.13,7.13,7.13,7.13,7.13,7.13,7.13,7.13,7.13,7.13,7.13,7.13,7.13,7.13,7.13,7.13,7.13,7.13,7.13,7.13,7.13,7.13,7.13,7.13,7.1503,7.1842,7.2326,7.2631,7.2947,7.3454,7.3488,7.3285,7.2812,7.2778,7.2462,7.1706,7.1672,7.1571,7.1289,7.13,7.13,7.13,7.13,7.13,7.13,7.13,7.13,7.13,7.13,7.13,0.0,0.0,0.0,0.0,4.6041,4.8071,5.7509,5.8635,5.8736,6.254,6.4478,6.5537,6.5639,6.6237,6.7242,6.8741,6.9011,6.8774,6.7996,6.8538,6.8459,6.6971,6.7421,6.759,6.6869,6.6802,6.6802,6.6802,6.6802,6.6802,6.6802,6.6802,6.6802,6.6802,6.6802,6.6802,6.6802,6.6802,6.6802,6.6802,6.6802,6.6802,6.6802,6.6802,6.6802,6.6836,6.758,6.8368,6.9214,7.0658,7.13,7.13,7.13,7.13,7.13,7.13,7.13,7.13,7.13,7.13,7.13,7.13,7.13,7.13,7.13,7.13,7.13,7.13,7.13,7.13,7.13,7.13,7.13,7.13,7.13,7.13,7.13,7.13,7.13,7.13,7.13,7.13,7.13,7.13,7.13,7.13,7.1921,7.2394,7.2428,7.3082,7.3556,7.3556,7.3556,7.3556,7.3522,7.3522,7.3218,7.2462,7.2428,7.209,7.1368,7.1289,7.13,7.13,7.13,7.13,7.13,7.13,7.13,7.13,7.13,7.13,3.4139,0.0,0.0,0.0,0.0,0.0,4.8011,5.0624,5.3627,5.8466,6.0216,6.1694,6.441,6.5087,6.5527,6.6485,6.7083,6.7343,6.714,6.7309,6.7275,6.6869,6.6971,6.7005,6.6836,6.6802,6.6802,6.6802,6.6802,6.6802,6.6802,6.6802,6.6802,6.6802,6.6802,6.6802,6.6802,6.6802,6.6802,6.6802,6.6802,6.6802,6.6802,6.6802,6.6802,6.6836,6.758,6.8368,6.918,7.0139,7.0804,7.13,7.13,7.13,7.13,7.13,7.13,7.13,7.13,7.13,7.13,7.13,7.13,7.13,7.13,7.13,7.13,7.13,7.13,7.13,7.13,7.13,7.13,7.13,7.13,7.13,7.13,7.13,7.13,7.13,7.13,7.13,7.13,7.13,7.13,7.13,7.1921,7.2597,7.3116,7.3849,7.4492,7.5033,7.51,7.4864,7.4356,7.4289,7.3984,7.3251,7.271,7.2326,7.209,7.1571,7.13,7.13,7.13,7.13,7.13,7.13,7.13,7.13,7.13,7.13,0.0,0.0,0.0,0.0,0.0,0.0,4.5853,4.7849,5.0278,5.5852,5.7814,5.9404,6.2212,6.299,6.3565,6.4613,6.5144,6.5753,6.6656,6.6802,6.6802,6.6802,6.6802,6.6802,6.6802,6.6802,6.6802,6.6802,6.6802,6.6802,6.6802,6.6802,6.6802,6.6802,6.6802,6.6802,6.6802,6.6802,6.6802,6.6802,6.6802,6.6802,6.6802,6.6802,6.6802,6.6836,6.7242,6.8064,6.9147,6.9553,7.0364,7.13,7.13,7.13,7.13,7.13,7.13,7.13,7.13,7.13,7.13,7.13,7.13,7.13,7.13,7.13,7.13,7.13,7.13,7.13,7.13,7.13,7.13,7.13,7.13,7.13,7.13,7.13,7.13,7.13,7.13,7.13,7.13,7.13,7.1402,7.1706,7.2394,7.3138,7.3849,7.4593,7.5236,7.5642,7.5709,7.554,7.51,7.5055,7.4728,7.4018,7.3274,7.2732,7.2428,7.1672,7.13,7.13,7.13,7.13,7.13,7.13,7.13,7.13,7.13,7.13,0.0,0.0,0.0,0.0,3.9282,0.0,4.703,4.747,4.7876,5.3433,5.5615,5.7112,5.8896,5.9945,6.095,6.2192,6.2868,6.4028,6.625,6.6565,6.6565,6.6565,6.6565,6.6599,6.6667,6.6667,6.67,6.6791,6.6802,6.6802,6.6802,6.6802,6.6802,6.6802,6.6802,6.6802,6.6802,6.6802,6.6802,6.6802,6.6802,6.6802,6.6802,6.6802,6.6802,6.6802,6.6802,6.7681,6.9113,6.9113,6.9981,7.13,7.13,7.13,7.13,7.13,7.13,7.13,7.13,7.13,7.13,7.13,7.13,7.13,7.13,7.13,7.13,7.13,7.13,7.13,7.13,7.13,7.13,7.13,7.13,7.13,7.13,7.13,7.13,7.13,7.13,7.13,7.13,7.1368,7.1639,7.2293,7.3116,7.3849,7.4514,7.5236,7.5709,7.5709,7.5709,7.5709,7.5709,7.5709,7.5439,7.475,7.4018,7.3285,7.2563,7.1808,7.1402,7.13,7.13,7.13,7.13,7.13,7.13,7.13,7.13,7.13,4.0853,4.1637,4.1996,4.0643,0.0,0.0,4.0555,4.1779,4.4019,4.7015,4.7894,4.9255,5.3112,5.4972,5.5827,5.5505,5.8989,6.2506,6.4715,6.5019,6.5019,6.5019,6.5019,6.5256,6.5876,6.5909,6.617,6.6768,6.6802,6.6802,6.6802,6.6802,6.6802,6.6802,6.6802,6.6802,6.6802,6.6802,6.6802,6.6802,6.6802,6.6802,6.6802,6.6802,6.6802,6.6802,6.6802,6.7681,6.9113,6.9113,6.9981,7.13,7.13,7.13,7.13,7.13,7.13,7.13,7.13,7.13,7.13,7.13,7.13,7.13,7.13,7.13,7.13,7.13,7.13,7.13,7.13,7.13,7.13,7.13,7.13,7.13,7.13,7.13,7.13,7.13,7.13,7.13,7.13,7.1774,7.2225,7.2394,7.3544,7.4446,7.4581,7.5236,7.5709,7.5709,7.5709,7.5709,7.5709,7.5709,7.5642,7.5506,7.4796,7.4052,7.3319,7.2563,7.1921,7.1289,7.13,7.13,7.13,7.13,7.13,7.13,7.13,7.13,4.2785,4.3118,4.322,4.2516,0.0,0.0,0.0,4.1204,4.228,4.6027,4.5587,4.579,4.989,5.0684,5.1191,5.2714,5.5446,5.8041,5.9902,6.2405,6.4062,6.4062,6.4062,6.4197,6.458,6.4928,6.529,6.5652,6.5686,6.5686,6.5686,6.6068,6.6237,6.6237,6.6599,6.6802,6.6802,6.6802,6.6802,6.6802,6.6802,6.6802,6.6802,6.6802,6.6802,6.6802,6.6802,6.7681,6.9113,6.9113,6.9981,7.13,7.13,7.13,7.13,7.13,7.13,7.13,7.13,7.13,7.13,7.13,7.13,7.13,7.13,7.13,7.13,7.13,7.13,7.13,7.13,7.13,7.13,7.13,7.13,7.13,7.13,7.13,7.13,7.13,7.13,7.13,7.13,7.1921,7.2529,7.2868,7.3883,7.4717,7.51,7.5473,7.5709,7.5709,7.5709,7.5709,7.5709,7.5709,7.5709,7.5709,7.4999,7.4289,7.3522,7.2812,7.2056,7.1289,7.13,7.13,7.13,7.13,7.13,7.13,7.13,7.13,0.0,0.0,0.0,0.0,0.0,4.3031,0.0,0.0,0.0,4.5418,4.437,4.3734,4.6913,4.665,4.6868,4.9778,5.1597,5.29,5.367,5.8032,6.1347,6.1921,6.2269,6.254,6.2811,6.3115,6.3666,6.4546,6.3937,6.3835,6.4546,6.5155,6.5537,6.5706,6.6271,6.6667,6.6802,6.6802,6.6802,6.6802,6.6802,6.6802,6.6802,6.6802,6.6802,6.6802,6.6802,6.7681,6.9113,6.9113,6.9981,7.13,7.13,7.13,7.13,7.13,7.13,7.13,7.13,7.13,7.13,7.13,7.13,7.13,7.13,7.13,7.13,7.13,7.13,7.13,7.13,7.13,7.13,7.13,7.13,7.13,7.13,7.13,7.13,7.13,7.13,7.13,7.13,7.1921,7.2665,7.3387,7.4119,7.4852,7.5608,7.5709,7.5709,7.5709,7.5709,7.5709,7.5709,7.5709,7.5709,7.5709,7.5122,7.4492,7.3725,7.2868,7.2124,7.1537,7.1503,7.1503,7.1503,7.1503,7.1436,7.13,7.13,7.13,0.0,0.0,0.0,0.0,4.7361,0.0,0.0,0.0,4.2442,4.0426,0.0,4.0811,4.188,0.0,0.0,4.2523,4.644,4.8875,4.7083,5.0153,5.3602,5.6274,5.7746,5.9041,6.0351,5.9379,6.0327,6.4309,6.1525,6.1086,6.441,6.4681,6.5019,6.5672,6.5774,6.6136,6.6791,6.6802,6.6802,6.6802,6.6802,6.6802,6.6802,6.6802,6.6802,6.6802,6.6802,6.7681,6.9113,6.9113,6.9981,7.13,7.13,7.13,7.13,7.13,7.13,7.13,7.13,7.13,7.13,7.13,7.13,7.13,7.13,7.13,7.13,7.13,7.13,7.13,7.13,7.13,7.13,7.13,7.13,7.13,7.13,7.13,7.13,7.13,7.13,7.13,7.13,7.1921,7.2665,7.3387,7.4119,7.4852,7.5608,7.5709,7.5709,7.5709,7.5709,7.5709,7.5709,7.5709,7.5709,7.5709,7.5608,7.5236,7.4514,7.3138,7.236,7.2293,7.2293,7.2293,7.2293,7.2293,7.1943,7.13,7.13,7.13,0.0,0.0,0.0,0.0,0.0,0.0,4.2517,0.0,4.0865,0.0,0.0,0.0,0.0,0.0,0.0,0.0,4.3403,4.4797,4.3849,4.621,4.9112,5.2097,5.2985,5.4304,5.6673,5.6334,5.7315,6.0462,5.8863,5.8955,6.1839,6.325,6.4299,6.5019,6.5469,6.6034,6.6791,6.6802,6.6802,6.6802,6.6802,6.6802,6.6802,6.6802,6.6802,6.6836,6.7242,6.8064,6.9147,6.9553,7.0364,7.13,7.13,7.13,7.13,7.13,7.13,7.13,7.13,7.13,7.13,7.13,7.13,7.13,7.13,7.13,7.13,7.13,7.13,7.13,7.13,7.13,7.13,7.13,7.13,7.13,7.13,7.13,7.13,7.13,7.13,7.13,7.13,7.2259,7.315,7.3454,7.4492,7.5337,7.5676,7.5709,7.5709,7.5709,7.5709,7.5709,7.5709,7.5709,7.5709,7.5709,7.5303,7.492,7.4615,7.3578,7.3048,7.3048,7.3048,7.3048,7.3048,7.2597,7.2225,7.1921,7.1503,7.13,4.9412,0.0,0.0,0.0,0.0,0.0,0.0,0.0,0.0,0.0,4.1238,0.0,0.0,0.0,0.0,0.0,0.0,4.1853,4.1447,4.2828,4.4959,4.7902,4.8984,5.0515,5.312,5.2443,5.3289,5.674,5.5556,5.6258,5.9911,6.1661,6.3183,6.4546,6.5131,6.5831,6.6802,6.6802,6.6802,6.6802,6.6802,6.6802,6.6802,6.6802,6.6802,6.6836,6.758,6.8368,6.9147,6.9902,7.0635,7.13,7.13,7.13,7.13,7.13,7.13,7.13,7.13,7.13,7.13,7.13,7.13,7.13,7.13,7.13,7.13,7.13,7.13,7.13,7.13,7.13,7.13,7.13,7.13,7.13,7.13,7.13,7.13,7.13,7.13,7.13,7.13,7.2191,7.3048,7.3454,7.4402,7.5236,7.5642,7.5709,7.5709,7.5709,7.5709,7.5709,7.5709,7.5709,7.5709,7.5709,7.5202,7.4886,7.4886,7.4187,7.3793,7.3793,7.3793,7.3793,7.3793,7.3071,7.271,7.2665,7.174,7.13,0.0,0.0,0.0,4.6666,0.0,0.0,0.0,0.0,4.4032,0.0,0.0,0.0,0.0,0.0,0.0,0.0,0.0,0.0,0.0,3.918,4.0324,4.3254,4.6189,4.8563,5.0109,4.7011,4.7654,5.4203,5.1319,5.2435,5.9708,6.0182,6.1569,6.4512,6.4613,6.5324,6.6802,6.6802,6.6802,6.6802,6.6802,6.6802,6.6802,6.6802,6.6802,6.6836,6.758,6.8368,6.9147,6.9902,7.0635,7.13,7.13,7.13,7.13,7.13,7.13,7.13,7.13,7.13,7.13,7.13,7.13,7.13,7.13,7.13,7.13,7.13,7.13,7.13,7.13,7.13,7.13,7.13,7.13,7.13,7.13,7.13,7.13,7.13,7.13,7.13,7.13,7.1334,7.1853,7.3285,7.3522,7.4097,7.5506,7.5709,7.5709,7.5709,7.5709,7.5709,7.5709,7.5709,7.5709,7.5709,7.5676,7.5676,7.5676,7.4965,7.4547,7.4547,7.4547,7.4547,7.4547,7.3815,7.3454,7.3421,7.1988,7.13,5.3728,5.4597,5.4442,4.9579,4.8107,4.6705,4.2283,4.3375,0.0,0.0,0.0,0.0,0.0,0.0,0.0,0.0,0.0,0.0,0.0,3.6332,3.7116,4.0121,4.2692,4.4391,4.4898,4.4736,4.636,5.0574,5.0634,5.263,5.7645,5.981,6.1796,6.3825,6.4343,6.5314,6.6802,6.6802,6.6802,6.6802,6.6802,6.6802,6.6802,6.6802,6.7072,6.7557,6.8368,6.9113,6.9902,7.0635,7.1064,7.13,7.13,7.13,7.13,7.13,7.13,7.13,7.13,7.13,7.13,7.13,7.13,7.13,7.13,7.13,7.13,7.13,7.13,7.13,7.13,7.13,7.13,7.13,7.13,7.13,7.13,7.13,7.13,7.13,7.13,7.13,7.13,7.1706,7.236,7.3353,7.3928,7.4593,7.5574,7.5709,7.5709,7.5709,7.5709,7.5709,7.5709,7.5709,7.5709,7.5709,7.5709,7.5709,7.5709,7.5473,7.5337,7.5337,7.5337,7.5337,7.5337,7.4593,7.3984,7.3488,7.2496,7.1774,5.4711,5.534,5.525,5.1444,5.0047,4.8473,4.4213,4.5333,4.6645,4.4413,0.0,0.0,0.0,0.0,0.0,0.0,0.0,0.0,0.0,3.5645,3.6434,3.8368,3.9857,4.1143,4.2198,4.1995,4.3721,4.8266,4.8496,5.0871,5.6494,5.8896,6.1129,6.3443,6.4231,6.5314,6.6802,6.6802,6.6802,6.6802,6.6802,6.6802,6.6802,6.7072,6.7455,6.7963,6.9011,6.9766,7.0274,7.0996,7.13,7.13,7.13,7.13,7.13,7.13,7.13,7.13,7.13,7.13,7.13,7.13,7.13,7.13,7.13,7.13,7.13,7.13,7.13,7.13,7.13,7.13,7.13,7.13,7.13,7.13,7.13,7.13,7.13,7.13,7.13,7.13,7.13,7.1921,7.2665,7.3387,7.4119,7.4852,7.5608,7.5709,7.5709,7.5709,7.5709,7.5709,7.5709,7.5709,7.5709,7.5709,7.5709,7.5709,7.5709,7.5709,7.5709,7.5709,7.5709,7.5709,7.5709,7.4695,7.395,7.3488,7.2462,7.174]},{"header":{"parameterUnit":"m.s-1","parameterCategory":1,"la1":30.6,"la2":29.2853,"lo1":-89.7004,"lo2":-87.6739,"dy":0.0162,"dx":0.0183,"nx":112,"ny":82,"refTime":"2025-01-08T06:00:00:Z","depth":0,"parameterNumber":3,"parameterNumberName":"V-component_of_WINDS"},"data":[0.0,0.0,0.0,0.0,0.0,0.0,0.0,0.0,0.0,0.0,0.0,0.0,0.0,0.0,0.0,0.0,0.0,0.0,0.0,0.0,0.0,0.0,0.0,0.0,0.0,0.0,0.0,0.0,0.0,0.0,0.0,0.0,0.0,0.0,0.0,0.0,0.0,0.0,0.0,0.0,0.0,0.0,0.0,0.0,0.0,0.0,0.0,0.0,0.0,0.0,0.0,0.0,0.0,0.0,0.0,0.0,0.0,0.0,0.0,0.0,0.0,0.0,0.0,0.0,0.0,0.0,0.0,0.0,0.0,0.0,0.0,0.0,0.0,0.0,0.0,0.0,0.0,0.0,0.0,0.0,0.0,0.0,0.0,0.0,0.0,0.0,0.0,0.0,0.0,0.0,0.0,0.8028,0.8764,0.9124,0.8926,0.8764,0.812,0.684,0.0,0.0,0.0,0.0,0.0,0.0,0.0,0.0,0.0,0.0,0.0,0.0,0.0,0.0,0.0,0.0,0.0,0.0,0.0,0.0,0.0,0.0,0.0,0.0,0.0,0.0,0.0,0.0,0.0,0.0,0.0,0.0,0.0,0.0,0.0,0.0,0.0,0.0,0.0,0.0,0.0,0.0,0.0,0.0,0.0,0.0,0.0,0.0,0.0,0.0,0.0,0.0,0.0,0.0,0.0,0.0,0.0,0.0,0.0,0.0,0.0,0.0,0.0,0.0,0.0,0.0,0.0,0.0,0.0,0.0,0.0,0.0,0.0,0.0,0.0,0.0,0.0,0.0,0.0,0.0,0.0,0.0,0.0,0.0,0.0,0.0,0.0,0.0,0.0,0.0,0.0,0.0,0.0,0.0,0.0,0.0,0.0,0.0,0.0,0.0,0.0,0.0,0.0,0.0,0.7226,0.8466,0.8961,0.9124,0.8926,0.8676,0.8106,0.7103,0.0,0.0,0.0,0.0,0.0,0.0,0.0,0.0,0.0,0.0,0.0,0.0,0.0,0.0,0.0,0.0,0.0,0.0,0.0,0.0,0.0,0.0,0.0,0.0,0.0,0.0,0.0,0.0,0.0,0.0,0.0,0.0,0.0,0.0,0.0,0.0,0.0,0.0,0.0,0.0,0.0,0.0,0.0,0.0,0.0,0.0,0.0,0.0,0.0,0.0,0.0,0.0,0.0,0.0,0.0,0.0,0.0,0.0,0.0,0.0,0.0,0.0,0.0,0.0,0.0,0.0,0.0,0.0,0.0,0.0,0.0,0.0,0.0,0.0,0.0,0.0,0.0,0.0,0.0,0.0,0.0,0.0,0.0,0.0,0.0,0.0,0.0,0.0,0.0,0.0,0.0,0.0,0.0,0.0,0.0,0.0,0.0,0.0,0.0,0.0,0.0,0.0,0.0,0.729,0.7921,0.8866,0.9172,0.9247,0.9083,0.8716,0.8099,0.7163,0.6658,0.0,0.0,0.0,0.0,0.0,0.0,0.0,0.0,0.0,0.0,0.0,0.0,0.0,0.0,0.0,0.0,0.0,0.0,0.0,0.0,0.0,0.0,0.0,0.0,0.0,0.0,0.0,0.0,0.0,0.0,0.0,0.0,0.0,0.0,0.0,0.0,0.0,0.0,0.0,0.0,0.0,0.0,0.0,0.0,0.0,0.0,0.0,0.0,0.0,0.0,0.0,0.0,0.0,0.0,0.0,0.0,0.0,0.0,0.0,0.0,0.0,0.0,0.0,0.0,0.0,0.0,0.0,0.0,0.0,0.0,0.0,0.0,0.0,0.0,0.0,0.0,0.0,0.0,0.0,0.0,0.0,0.0,0.0,0.0,0.0,0.0,0.0,0.0,0.0,0.0,0.0,0.0,0.0,0.0,0.0,0.0,0.0,0.0,0.0,0.0,0.0,0.0,0.8319,0.8886,1.0047,1.0003,0.9968,1.0157,0.9482,0.8635,0.7683,0.6802,0.0,0.0,0.0,0.0,0.0,0.0,0.0,0.0,0.0,0.0,0.0,0.0,0.0,0.0,0.0,0.0,0.0,0.0,0.0,0.0,0.0,0.0,0.0,0.0,0.0,0.0,0.0,0.0,0.0,0.0,0.0,0.0,0.0,0.0,0.0,0.0,0.0,0.0,0.0,0.0,0.0,0.0,0.0,0.0,0.0,0.0,0.0,0.0,0.0,0.0,0.0,0.0,0.0,0.0,0.0,0.0,0.0,0.0,0.0,0.0,0.0,0.0,0.0,0.0,0.0,0.0,0.0,0.0,0.0,0.0,0.0,0.0,0.0,0.0,0.0,0.0,0.0,0.0,0.0,0.0,0.0,0.0,0.0,0.0,0.0,0.0,0.0,0.0,0.0,0.0,0.0,0.0,0.0,0.0,0.0,0.0,0.0,0.0,0.0,0.0,0.0,0.0,0.8994,0.9922,1.2716,1.2029,1.1804,1.2918,1.1556,1.0207,0.9211,0.7422,0.0,0.0,0.0,0.0,0.0,0.0,0.0,0.0,0.0,0.0,0.0,0.0,0.0,0.0,0.0,0.0,0.0,0.0,0.0,0.0,0.0,0.0,0.0,0.0,0.0,0.0,0.0,0.0,0.0,0.0,0.0,0.0,0.0,0.0,0.0,0.0,0.0,0.0,0.0,0.0,0.0,0.0,0.0,0.0,0.0,0.0,0.0,0.0,0.0,0.0,0.0,0.0,0.0,0.0,0.0,0.0,0.0,0.0,0.0,0.0,0.0,0.0,0.0,0.0,0.0,0.0,0.0,0.0,0.0,0.0,0.0,0.0,0.0,0.0,0.0,0.0,0.0,0.0,0.0,0.0,0.0,0.0,0.0,0.0,0.0,0.0,0.0,0.0,0.0,0.0,0.0,0.0,0.0,0.0,0.0,0.0,0.0,0.0,0.0,0.0,0.0,0.0,1.0556,1.1929,0.0,1.3126,1.2991,1.2983,1.2326,1.1049,0.8989,0.0,0.0,0.0,0.0,0.0,0.0,0.0,0.0,0.0,0.0,0.0,0.0,0.0,0.0,0.0,0.0,0.0,0.0,0.0,0.0,0.0,0.0,0.0,0.0,0.0,0.0,0.0,0.0,0.0,0.0,0.0,0.0,0.0,0.0,0.0,0.0,0.0,0.0,0.0,0.0,0.0,0.0,0.0,0.0,0.0,0.0,0.0,0.0,0.0,0.0,0.0,0.0,0.0,0.0,0.0,0.0,0.0,0.0,0.0,0.0,0.0,0.0,0.0,0.0,0.0,0.0,0.0,0.0,0.0,0.0,0.0,0.0,0.0,0.0,0.0,0.0,0.0,0.0,0.0,0.0,0.0,0.0,0.0,0.0,0.0,0.0,0.0,0.0,0.0,0.0,0.0,0.0,0.0,0.0,0.0,0.0,0.0,0.0,0.0,0.0,0.0,0.0,1.034,1.2111,1.3628,0.0,1.4683,1.4491,1.4217,1.3588,1.2187,0.9794,0.0,0.0,0.0,0.0,0.0,0.0,0.0,0.0,0.0,0.0,0.0,0.0,0.0,0.0,0.0,0.0,0.0,0.0,0.0,0.0,0.0,0.0,0.0,0.0,0.0,0.0,0.0,0.0,0.0,0.0,0.0,0.0,0.0,0.0,0.0,0.0,0.0,0.0,0.0,0.0,0.0,0.0,0.0,0.0,0.0,0.0,0.0,0.0,0.0,0.0,0.0,0.0,0.0,0.0,0.0,0.0,0.0,0.0,0.0,0.0,0.0,0.0,0.0,0.0,0.0,0.0,0.0,0.0,0.0,0.0,0.0,0.0,0.0,0.0,0.0,0.0,0.0,0.0,0.0,0.0,0.0,0.0,0.0,0.0,0.0,0.0,0.0,0.0,0.0,0.0,0.0,0.0,0.0,0.0,0.0,0.0,0.0,0.0,0.0,0.0,0.0,0.0,1.281,1.3523,1.485,1.7698,1.6874,1.6428,1.7144,1.5551,1.3777,0.0,0.0,0.0,0.0,0.0,0.0,0.0,0.0,0.0,0.0,0.0,0.0,0.0,0.0,0.0,0.0,0.0,0.0,0.0,0.0,0.0,0.0,0.0,0.0,0.0,0.0,0.0,0.0,0.0,0.0,0.0,0.0,0.0,0.0,0.0,0.0,0.0,0.0,0.0,0.0,0.0,0.0,0.0,0.0,0.0,0.0,0.0,0.0,0.0,0.0,0.0,0.0,0.0,0.0,0.0,0.0,0.0,0.0,0.0,0.0,0.0,0.0,0.0,0.0,0.0,0.0,0.0,0.0,0.0,0.0,0.0,0.0,0.0,0.0,0.0,0.0,0.0,0.0,0.0,0.0,0.0,0.0,0.0,0.0,0.0,0.0,0.0,0.0,0.0,0.0,0.0,0.0,0.0,0.0,0.0,0.0,0.0,0.0,0.0,0.0,0.0,0.0,0.0,1.334,1.5629,1.7407,1.8261,1.8023,1.7627,1.7221,1.6324,1.4518,1.159,0.0,0.0,0.0,0.0,0.0,0.0,0.0,0.0,0.0,0.0,0.0,0.0,0.0,0.0,0.0,0.0,0.0,0.0,0.0,0.0,0.0,0.0,0.0,0.0,0.0,0.0,0.0,0.0,0.0,0.0,0.0,0.0,0.0,0.0,0.0,0.0,0.0,0.0,0.0,0.0,0.0,0.0,0.0,0.0,0.0,0.0,0.0,0.0,0.0,0.0,0.0,0.0,0.0,0.0,0.0,0.0,0.0,0.0,0.0,0.0,0.0,0.0,0.0,0.0,0.0,0.0,0.0,0.0,0.0,0.0,0.0,0.0,0.0,0.0,0.0,0.0,0.0,0.0,0.0,0.0,0.0,0.0,0.0,0.0,0.0,0.0,0.0,0.0,0.0,0.0,0.0,0.0,0.0,0.0,0.0,0.0,0.0,0.0,0.0,0.0,0.0,0.0,1.4173,1.6793,1.8531,1.8651,1.8557,1.8183,1.7408,1.6711,1.5059,1.2174,0.0,0.0,0.0,0.0,0.0,0.0,0.0,0.0,0.0,0.0,0.0,0.0,0.0,0.0,0.0,0.0,0.0,0.0,0.0,0.0,0.0,0.0,0.0,0.0,0.0,0.0,0.0,0.0,0.0,0.0,0.0,0.0,0.0,0.0,0.0,0.0,0.0,0.0,0.0,0.0,0.0,0.0,0.0,0.0,0.0,0.0,0.0,0.0,0.0,0.0,0.0,0.0,0.0,0.0,0.0,0.0,0.0,0.0,0.0,0.0,0.0,0.0,0.0,0.0,0.0,0.0,0.0,0.0,0.0,0.0,0.0,0.0,0.0,0.0,0.0,0.0,0.0,0.0,0.0,0.0,0.0,0.0,0.0,0.0,0.0,0.0,0.0,0.0,0.0,0.0,0.0,0.0,0.0,0.0,0.0,0.0,0.0,0.0,0.0,0.0,0.0,0.0,1.5164,1.7221,1.8611,1.8917,1.8677,1.8264,1.7689,1.6819,1.5454,1.3444,0.0,0.0,0.0,0.0,0.0,0.0,0.0,0.0,0.0,0.0,0.0,0.0,0.0,0.0,0.0,0.0,0.0,0.0,0.0,0.0,0.0,0.0,0.0,0.0,0.0,0.0,0.0,0.0,0.0,0.0,0.0,0.0,0.0,0.0,0.0,0.0,0.0,0.0,0.0,0.0,0.0,0.0,0.0,0.0,0.0,0.0,0.0,0.0,0.0,0.0,0.0,0.0,0.0,0.0,0.0,0.0,0.0,0.0,0.0,0.0,1.2799,1.1944,0.0,0.0,0.0,0.0,0.0,0.0,0.0,0.0,0.0,0.0,0.0,0.0,0.0,0.0,0.0,0.0,0.0,0.0,0.0,0.0,0.0,0.0,0.0,0.0,0.0,0.0,0.0,0.0,0.0,0.0,0.0,0.0,0.0,0.0,0.0,0.0,0.0,0.0,0.0,0.0,1.549,1.7342,1.8705,1.9241,1.8825,1.8343,1.7956,1.6914,1.571,1.4301,1.2692,0.0,0.0,0.0,0.0,0.0,0.0,0.0,0.0,0.0,0.0,0.0,0.0,0.0,0.0,0.0,0.0,0.0,0.0,0.0,0.0,0.0,0.0,0.0,0.0,0.0,0.0,0.0,0.0,0.0,0.0,0.0,0.0,0.0,0.0,0.0,0.0,0.0,0.0,0.0,0.0,0.0,0.0,0.0,0.0,0.0,0.0,0.0,0.0,0.0,0.0,0.0,0.0,0.0,0.0,0.0,0.0,0.0,0.0,0.0,1.4707,1.3857,0.0,0.0,0.0,0.0,0.0,0.0,0.0,0.0,0.0,0.0,0.0,0.0,0.0,0.0,0.0,0.0,0.0,0.0,0.0,0.0,0.0,0.0,0.0,0.0,0.0,0.0,0.0,0.0,0.0,0.0,0.0,0.0,0.0,0.0,0.0,0.0,0.0,0.0,0.0,0.0,1.5805,1.7475,1.8732,1.9334,1.8986,1.857,1.8276,1.7422,1.6352,1.503,1.3814,0.0,0.0,0.0,0.0,0.0,0.0,0.0,0.0,0.0,0.0,0.0,0.0,0.0,0.0,0.0,0.0,0.0,0.0,0.0,0.0,0.0,0.0,0.0,0.0,0.0,0.0,0.0,0.0,0.0,0.0,0.0,0.0,0.0,0.0,0.0,0.0,0.0,0.0,0.0,0.0,0.0,0.0,0.0,0.0,0.0,0.0,0.0,0.0,0.0,0.0,0.0,0.0,0.0,1.7181,1.7542,1.7809,1.7862,1.7996,1.8143,1.6873,1.6219,1.594,1.4556,0.0,0.0,0.0,0.0,0.0,0.0,0.0,0.0,0.0,0.0,0.0,0.0,0.0,0.0,0.0,0.0,0.0,0.0,0.0,0.0,0.0,0.0,1.5114,1.5114,1.5872,1.5922,1.343,0.0,0.0,0.0,0.0,0.0,0.0,0.0,0.0,0.0,0.0,0.0,1.6123,1.7662,1.8785,1.9334,1.9105,1.881,1.8584,1.7969,1.7074,1.5858,1.503,1.3935,0.0,0.0,0.0,0.0,0.0,0.0,0.0,0.0,0.0,0.0,0.0,0.0,0.0,0.0,0.0,0.0,0.0,0.0,0.0,0.0,0.0,0.0,0.0,0.0,0.0,0.0,0.0,0.0,0.0,0.0,0.0,0.0,1.3293,1.3413,0.0,0.0,0.0,0.0,0.0,0.0,0.0,0.0,0.0,0.0,0.0,0.0,0.0,1.666,1.7181,1.8063,1.8503,1.857,1.9667,2.0204,2.0258,2.0483,2.0615,2.0599,2.0189,0.0,1.6939,1.5927,0.0,0.0,0.0,0.0,0.0,0.0,0.0,0.0,0.0,0.0,0.0,0.0,0.0,0.0,0.0,0.0,0.0,0.0,0.0,0.0,0.0,0.0,1.7542,1.7542,1.7662,1.7609,1.698,1.5004,1.3088,1.2184,1.1619,1.1161,0.0,0.0,0.0,0.0,0.0,0.0,1.6446,1.7929,1.8998,1.9361,1.9105,1.889,1.885,1.8076,1.7528,1.7314,1.5815,1.4836,1.4595,1.3009,0.0,0.0,0.0,0.0,0.0,0.0,0.0,0.0,0.0,0.0,0.0,0.0,0.0,0.0,0.0,0.0,0.0,0.0,0.0,0.0,0.0,0.0,0.0,0.0,0.0,0.0,0.0,0.0,0.0,1.3313,1.4389,1.4389,1.4512,1.4335,0.0,0.0,0.0,0.0,0.0,0.0,0.0,0.0,0.0,1.7729,1.821,1.8731,1.9348,2.0055,2.0416,2.043,2.1098,2.1432,2.1432,2.155,2.1603,2.159,2.1486,2.0766,1.955,1.7969,1.682,1.5977,0.0,0.0,0.0,0.0,1.5509,1.575,1.6567,1.6647,1.6299,1.5949,0.0,0.0,0.0,0.0,0.0,0.0,0.0,1.5869,1.6525,1.7582,1.8597,1.893,1.913,1.9156,1.8891,1.7649,1.6021,1.4172,1.3597,1.3009,1.1721,1.1534,0.0,0.0,0.0,1.5538,1.702,1.8196,1.9024,1.9361,1.9266,1.9105,1.893,1.841,1.7956,1.7622,1.6751,1.6082,1.5735,1.4491,1.3397,0.0,0.0,0.0,0.0,0.0,0.0,0.0,0.0,0.0,0.0,0.0,0.0,0.0,0.0,0.0,0.0,0.0,0.0,0.0,0.0,0.0,0.0,0.0,0.0,0.0,0.0,0.0,0.0,1.4461,1.5401,1.5345,1.5763,1.5658,0.0,0.0,0.0,0.0,0.0,0.0,1.7462,1.7983,1.8677,1.9573,2.0028,2.051,2.1018,2.1555,2.181,2.181,2.2087,2.2221,2.2221,2.2221,2.2221,2.2221,2.2141,2.1994,2.1662,1.9734,1.8624,1.8076,1.7194,1.698,1.7194,1.7528,1.7688,1.7916,1.9027,1.9107,1.8638,1.813,1.7502,1.6699,1.5274,0.0,0.0,0.0,0.0,1.7181,1.8116,1.8797,1.9371,1.9907,2.0172,2.0265,2.0067,1.9559,1.8463,1.6205,1.5588,1.4892,1.3193,1.3066,0.0,1.3908,0.0,1.6419,1.7662,1.8531,1.9118,1.9374,1.9401,1.9293,1.9052,1.8771,1.8384,1.7863,1.7488,1.7072,1.655,1.5682,1.4803,1.398,0.0,0.0,0.0,0.0,0.0,0.0,0.0,0.0,0.0,0.0,0.0,0.0,0.0,0.0,0.0,0.0,0.0,0.0,0.0,0.0,0.0,0.0,0.0,0.0,0.0,0.0,0.0,0.0,0.0,1.627,1.7194,0.0,0.0,0.0,0.0,1.7059,1.7876,1.8731,1.9599,1.9918,2.0508,2.1422,2.1489,2.1649,2.1927,2.2218,2.2361,2.2361,2.2689,2.2853,2.2853,2.2853,2.2853,2.284,2.2525,2.2375,2.2241,2.0746,1.9945,1.9599,1.8718,1.8397,1.8437,1.8717,1.9011,1.9294,1.9374,1.9374,1.9441,1.9905,1.9463,1.8704,1.8357,1.7863,0.0,0.0,1.8103,1.885,1.9226,1.9733,2.021,2.0577,2.0672,2.067,2.0672,2.0189,1.9371,1.8089,1.7182,1.6394,1.5715,0.0,1.574,1.6096,1.6913,1.7715,1.8371,1.8986,1.9388,1.9401,1.9401,1.9388,1.9374,1.9078,1.8757,1.8464,1.7903,1.7448,1.7166,1.6259,1.5511,1.4943,1.3454,0.0,0.0,0.0,0.0,0.0,0.0,0.0,0.0,0.0,0.0,0.0,0.0,0.0,0.0,0.0,0.0,0.0,0.0,0.0,0.0,0.0,0.0,0.0,0.0,0.0,0.0,0.0,0.0,1.7916,1.8517,0.0,1.7862,1.829,1.8693,1.8852,1.9679,2.0481,2.1192,2.1467,2.1948,2.2672,2.2699,2.2832,2.3174,2.3251,2.3304,2.3304,2.3411,2.3482,2.3482,2.3482,2.3482,2.3469,2.3109,2.2989,2.2909,2.1984,2.1454,2.1176,2.0871,2.075,2.0764,2.0855,2.0978,2.106,2.0889,2.0822,2.0739,2.0332,1.9863,1.9426,1.9159,1.9052,1.9052,1.9224,1.9653,2.0135,2.0414,2.0641,2.0813,2.0922,2.0949,2.0949,2.0949,2.0657,2.0256,1.9826,1.8718,1.7622,1.6833,1.6834,1.694,1.6885,1.7622,1.833,1.8704,1.9133,1.9401,1.9401,1.9401,1.9401,1.9401,1.8918,1.8597,1.8518,1.7769,1.73,1.7206,1.6511,1.5925,1.5513,1.429,1.2795,0.0,0.0,0.0,0.0,0.0,0.0,0.0,0.0,0.0,0.0,0.0,0.0,0.0,0.0,0.0,0.0,0.0,0.0,0.0,0.0,0.0,0.0,0.0,0.0,0.0,0.0,1.8517,1.9011,1.9694,1.9922,1.9383,1.9907,2.0349,2.0537,2.1363,2.2031,2.2418,2.2712,2.306,2.346,2.3474,2.3567,2.3803,2.3892,2.3892,2.3803,2.3892,2.3879,2.3803,2.3803,2.3803,2.379,2.3567,2.3474,2.3447,2.3046,2.2699,2.2405,2.2111,2.2007,2.2007,2.2007,2.2007,2.1967,2.1796,2.1679,2.1505,2.0869,2.0481,2.0214,2.0028,2.0109,2.0281,2.0437,2.0653,2.0884,2.104,2.1093,2.1093,2.1093,2.1093,2.1093,2.1093,2.0962,2.0804,2.0726,1.9828,1.8851,1.8184,1.8304,1.8397,1.8117,1.8558,1.8998,1.9184,1.932,1.9401,1.9401,1.9401,1.9361,1.924,1.8785,1.8397,1.821,1.7568,1.7139,1.7046,1.6445,1.6032,1.5796,1.4578,1.3243,1.1864,0.0,0.0,0.0,0.0,0.0,0.0,0.0,0.0,0.0,0.0,0.0,0.0,0.0,0.0,0.0,0.0,0.0,0.0,0.0,0.0,0.0,0.0,0.0,1.6701,1.8544,1.9748,1.9535,2.0753,2.1288,2.0384,2.1347,2.2047,2.2047,2.2829,2.3323,2.3336,2.3638,2.383,2.3812,2.3812,2.3812,2.3812,2.4075,2.4075,2.383,2.4088,2.4093,2.3812,2.3812,2.3812,2.3812,2.383,2.3799,2.3799,2.3785,2.3625,2.3243,2.2365,2.2034,2.2034,2.2034,2.2021,2.2021,2.2021,2.1836,2.1612,2.1612,2.1392,2.1136,2.1122,2.1122,2.1107,2.1093,2.1093,2.1093,2.1093,2.1093,2.1093,2.1093,2.1093,2.1093,2.1093,2.1093,2.1029,2.0764,2.0439,2.013,1.9867,2.0025,2.0104,1.9853,1.9813,0.0,1.9813,1.9574,1.9415,1.9415,1.9401,1.9266,1.8944,1.8651,1.8223,1.7649,1.734,1.7032,1.6701,1.6128,1.5821,1.5821,1.437,1.3363,1.2843,0.0,0.0,0.0,0.0,0.0,0.0,0.0,0.0,0.0,0.0,0.0,0.0,0.0,0.0,0.0,0.0,0.0,0.0,0.0,0.0,0.0,1.7168,1.8544,1.8891,1.9611,2.0546,2.1796,2.2087,2.2241,2.2425,2.2749,2.2936,2.2936,2.338,2.3759,2.3937,2.4035,2.4182,2.4377,2.4377,2.4377,2.4377,2.4457,2.4457,2.4377,2.4457,2.4457,2.4377,2.4377,2.4377,2.4364,2.4168,2.4088,2.4062,2.3879,2.3745,2.3625,2.3122,2.2819,2.2653,2.2653,2.2502,2.2281,2.2281,2.2111,2.1887,2.1887,2.1833,2.1726,2.1529,2.1462,2.1406,2.1162,2.1093,2.1093,2.1093,2.1093,2.1093,2.1093,2.1093,2.1093,2.1093,2.1093,2.1082,2.1002,2.0922,2.0693,2.0185,2.0144,2.017,2.009,2.0077,2.0077,2.0077,1.9867,1.9694,1.9694,1.9522,1.9361,1.9266,1.8571,1.8076,1.7903,1.7046,1.6591,1.67,1.6353,1.6165,1.6165,1.471,1.3892,0.0,0.0,0.0,0.0,0.0,0.0,0.0,0.0,0.0,0.0,0.0,0.0,0.0,0.0,0.0,0.0,0.0,0.0,0.0,0.0,0.0,0.0,1.8758,2.004,2.0978,2.1229,2.171,2.2773,2.2957,2.3126,2.3474,2.3603,2.3683,2.3683,2.3968,2.4262,2.4556,2.4569,2.4703,2.4978,2.4991,2.4991,2.4991,2.4858,2.4805,2.4805,2.4671,2.4599,2.4599,2.4599,2.4599,2.4586,2.4444,2.4364,2.4351,2.4209,2.4062,2.3946,0.0,0.0,0.0,0.0,2.2859,2.2605,2.2605,2.2418,2.2164,2.2164,2.2084,2.1967,2.181,2.177,2.1729,2.1523,2.1406,2.1312,2.1312,2.1203,2.1093,2.1093,2.1093,2.1093,2.1093,2.1093,2.1093,2.1093,2.1093,0.0,2.0639,2.0586,2.0586,2.0586,2.0479,2.0399,2.0399,2.0145,1.9972,1.9972,1.9826,1.9641,1.9415,1.8771,0.0,0.0,0.0,1.6632,1.6539,1.6378,0.0,0.0,0.0,0.0,0.0,0.0,0.0,0.0,1.4087,1.3975,0.0,0.0,0.0,0.0,0.0,0.0,0.0,0.0,0.0,0.0,0.0,0.0,0.0,0.0,0.0,0.0,2.0185,2.1013,2.2666,2.2987,2.3054,2.3054,2.3522,2.387,2.3879,2.4128,2.4302,2.4302,2.4551,2.4831,2.5136,2.5149,0.0,0.0,0.0,2.5499,2.5499,2.5251,2.5149,2.5149,2.4845,2.4693,2.4693,2.4666,2.4653,2.4653,2.4613,2.4599,2.4599,2.4599,2.4471,2.4222,2.3919,2.3803,2.3759,2.3474,2.3207,2.3,2.296,0.0,0.0,2.2468,2.2298,2.2087,2.2061,2.2047,2.2047,2.2007,2.1836,2.1652,2.1652,2.1392,2.1162,2.1162,2.1136,2.1093,2.1093,2.1093,2.1093,2.1093,2.1093,2.1093,2.1093,2.1093,2.1093,2.1093,2.0911,2.0737,2.0737,2.0468,2.025,2.025,2.0224,0.0,1.9535,1.9158,1.861,1.7796,1.7461,1.7059,1.6512,1.6485,1.6619,1.6901,1.6874,1.7128,1.7702,1.7729,1.7889,1.8089,1.5673,1.5255,0.0,0.0,0.0,0.0,0.0,0.0,0.0,0.0,0.0,0.0,0.0,0.0,0.0,0.0,0.0,1.9917,2.1157,2.2191,2.2813,2.3505,2.3941,2.3941,2.4048,2.4209,2.4431,2.473,2.4935,2.4935,2.5184,2.5352,2.5424,2.5424,2.5451,2.5499,2.5499,2.5499,2.5499,2.5464,2.5424,2.5424,2.5352,0.0,2.5312,2.5104,2.4997,2.5002,2.4724,2.4599,2.4599,2.4599,2.4572,2.4466,2.3999,2.3803,2.3785,2.3732,2.3665,2.3589,2.3313,2.3189,2.3096,2.2876,2.2773,2.2679,2.2405,2.2321,0.0,2.2061,2.1967,2.1914,2.1914,2.1716,2.1502,2.1502,2.1299,2.1093,2.1093,2.1093,2.1093,2.1093,2.1093,2.1093,2.1093,2.1093,2.1093,2.1093,2.1069,2.1029,2.1029,2.0775,2.0603,2.0603,2.0359,2.0157,2.0037,1.9601,1.9119,1.8677,1.8143,1.7796,1.7689,1.7676,1.7809,1.8157,1.7889,1.7929,1.833,1.853,1.8811,1.9093,1.7822,1.7542,0.0,0.0,0.0,0.0,0.0,0.0,0.0,0.0,0.0,0.0,0.0,1.686,1.8036,0.0,2.0187,2.1363,2.2281,2.3016,2.3491,2.3915,2.4209,2.4209,2.4311,2.4524,2.4823,2.4997,2.5163,2.5291,2.5424,2.5585,2.5751,2.5751,2.5798,2.5945,2.5945,2.5945,2.5945,2.5831,2.5751,2.5751,2.5585,2.5499,2.5504,2.5358,2.5291,2.5277,2.4983,2.4863,2.485,2.4666,2.4599,2.4572,2.4297,2.4115,2.3999,2.3999,2.3919,2.379,2.3625,2.3554,2.3527,2.3384,2.3237,2.3073,2.2895,2.2766,2.2622,2.2492,2.2328,2.2205,2.2205,2.2007,2.1796,2.1796,2.1566,2.1352,2.1352,2.1216,2.1093,2.1093,2.1093,2.1093,2.1093,2.1093,2.1093,2.1093,2.1093,2.1093,2.1093,2.0989,2.0895,2.0895,2.0746,2.0599,2.0468,1.9935,1.9534,1.9358,1.893,1.869,1.869,1.869,1.8851,1.9145,1.8984,1.9051,1.9344,1.9491,1.9718,2.0043,1.9573,1.9344,0.0,0.0,0.0,0.0,0.0,0.0,0.0,0.0,1.5989,1.7074,1.7769,1.8598,1.9908,2.0684,2.1526,2.2786,2.326,2.3643,2.4142,2.4575,2.4693,2.4325,2.4524,2.4805,2.5082,2.5566,2.5786,2.5623,2.6003,2.6196,2.6084,2.6078,2.6185,2.6386,2.6406,2.6406,2.6406,2.6198,2.6078,2.6078,2.5798,2.5659,2.5659,2.5625,2.5598,2.5585,2.531,2.5149,2.5082,2.4805,2.4653,2.4599,2.4599,2.4471,2.4289,2.4289,2.4142,2.3946,2.3892,2.3866,2.3866,2.383,2.3625,2.3389,2.3323,2.3153,2.2974,2.292,2.2702,2.2498,2.2498,2.2285,2.2087,2.2087,2.186,2.1679,2.1679,2.1419,2.1189,2.1189,2.1133,2.1093,2.1093,2.1093,2.1093,2.1093,2.1093,2.1093,2.1093,2.1093,2.1093,2.1093,2.1093,2.1015,2.0791,2.0267,1.9973,1.9973,1.9708,1.9562,1.9562,1.9562,1.9681,1.996,1.9973,2.0107,2.037,2.037,2.0506,2.0777,2.0777,2.0628,1.5334,1.4384,1.4282,1.5261,1.5568,1.6102,0.0,0.0,1.8357,1.9265,1.9935,2.0579,2.1261,2.2094,2.28,2.3189,2.3723,2.4128,2.4195,2.5888,2.6481,2.4767,2.4831,2.5056,2.5096,2.7198,2.7846,2.608,2.7819,2.819,2.6451,2.6366,2.6379,2.6406,2.6406,2.6406,2.6406,2.6379,2.6366,2.6353,2.6326,2.6293,2.6279,2.6045,2.5944,2.5931,2.5598,2.5317,2.5096,2.5056,2.4877,2.4599,2.4599,2.4572,2.4559,2.4559,2.4532,2.4484,2.4249,2.4155,2.4115,2.3866,2.3772,2.3692,2.3389,2.3283,2.322,2.2974,2.288,2.2853,2.2853,2.2592,2.2361,2.2361,2.2151,2.1954,2.1954,2.1743,2.1542,2.1542,2.1312,2.1093,2.1093,2.1093,2.1093,2.1093,2.1093,2.1093,2.1093,2.1093,2.1093,2.1093,2.1093,2.1096,2.1069,2.0777,2.059,2.059,2.0292,2.0104,2.0104,2.0104,2.0265,2.059,2.059,2.0737,2.1,2.1,2.1013,2.1069,2.1069,2.1042,1.8068,1.7751,0.0,0.0,1.8658,1.9262,1.9199,2.0155,2.0957,2.0628,2.1834,2.2847,2.2437,2.2783,2.3287,0.0,2.4164,2.4833,2.5971,2.6924,2.7521,2.7561,2.8073,2.7596,2.5531,2.8394,2.9714,2.81,2.9976,3.0303,2.8271,2.8154,2.7619,2.6446,2.7541,2.8154,2.8154,2.8154,2.8154,2.812,2.6965,2.6406,2.6406,2.6286,2.6158,2.5984,2.5844,2.6293,2.7139,2.7139,2.7048,2.6938,2.6938,2.6187,2.5085,2.4733,2.4599,2.4586,2.4466,2.4431,2.4417,2.4297,2.4155,2.3995,2.3875,2.3714,2.3545,2.322,2.314,2.3086,2.2947,2.28,2.2689,2.2689,2.2462,2.2231,2.2231,2.2021,2.1836,2.1836,2.1726,2.1617,2.1617,2.1499,2.1379,2.1379,2.1216,2.1093,2.1093,2.1093,2.1093,2.1093,2.1093,2.1093,2.1093,2.1002,2.0922,2.0922,2.0799,2.0733,2.0733,2.0733,2.0786,2.0922,2.0922,2.0989,2.1093,2.1299,2.1379,2.1392,2.1553,2.1617,1.9668,0.0,0.0,2.0812,2.1893,2.2481,2.0923,2.2018,2.3152,2.237,2.3158,2.4101,2.4399,2.3914,2.3766,2.4769,2.5189,2.5896,2.7306,2.8298,2.9088,2.9622,3.1005,3.0537,2.7099,3.015,3.1777,3.0354,3.2165,3.2432,3.0381,3.0265,2.9584,2.8134,2.8944,2.941,2.941,2.941,2.941,2.939,2.8491,2.8076,2.8076,2.8076,2.7669,2.6948,2.6948,2.7308,2.7871,2.7871,2.7827,2.774,2.774,2.6828,2.5445,2.5018,2.4805,2.4724,2.4626,2.4599,2.4599,2.4599,2.4471,2.4302,2.4222,2.4062,2.3839,2.3527,2.3429,2.338,2.309,2.301,2.2983,2.292,2.2716,2.2539,2.2539,2.2311,2.2111,2.2111,2.2061,2.2007,2.2007,2.185,2.1703,2.1703,2.1513,2.1296,2.112,2.1093,2.1093,2.1093,2.1093,2.1093,2.1093,2.1093,2.1093,2.1093,2.1093,2.1093,2.1093,2.1093,2.1149,2.1245,2.1245,2.1269,2.1349,2.1579,2.1703,2.1716,2.19,2.2047,0.0,0.0,2.1079,2.3464,2.4883,2.5295,2.3809,2.4023,2.464,2.4919,2.3634,2.368,2.7689,2.5881,2.4423,2.6404,2.7104,2.7433,2.7487,3.0292,3.1701,2.9903,3.2588,3.3353,0.0,3.2884,3.4124,3.2529,3.4264,3.4526,3.2524,3.241,3.2391,3.2334,3.0419,2.941,2.941,2.941,2.941,2.9429,3.1379,3.2315,3.2315,3.2315,3.121,2.9298,2.9298,2.807,2.6081,2.6081,2.5888,2.5581,2.5581,2.5562,2.5504,2.5472,2.5304,2.5042,2.4711,2.4599,2.4599,2.4599,2.4586,2.4532,2.4271,2.4195,2.4128,2.3852,2.3772,2.3705,2.3376,2.3296,2.3216,2.2974,2.2893,2.288,2.288,2.2619,2.2388,2.2388,2.2178,2.2007,2.2007,2.1994,2.1994,2.1994,2.1981,2.175,2.1189,2.1093,2.1093,2.1093,2.1093,2.1093,2.1093,2.1093,2.1093,2.1093,2.1093,2.1093,2.1093,2.1093,2.1243,2.1585,2.1585,2.1716,2.1981,2.1981,2.1994,2.1994,2.1994,2.2138,0.0,0.0,2.5527,2.6373,2.7499,2.7983,2.6413,2.7296,2.8059,2.6713,2.6147,2.5956,2.6122,2.5485,2.5301,2.6476,2.7965,2.9498,3.1053,3.2474,3.3287,3.3043,3.4803,0.0,0.0,0.0,3.5196,3.4162,3.5943,3.6329,3.4565,3.4789,3.4201,3.2543,3.3424,3.3767,3.3456,3.3456,3.3456,3.3438,3.2792,3.1781,3.0496,3.1877,3.1379,2.9487,3.0862,3.1777,3.2309,3.2309,3.2243,3.2128,3.2126,3.1332,3.0105,2.9889,2.9771,2.9212,2.6051,2.493,2.4903,2.4666,2.4599,2.4586,2.4479,2.4471,2.4417,2.4142,2.408,2.4013,2.3719,2.3621,2.3541,2.3247,2.3166,2.3113,2.2934,2.2813,2.2729,2.2729,2.2649,2.2599,2.2599,2.2405,2.2205,2.2034,2.2007,2.1927,2.171,2.1713,2.1713,2.1713,2.1713,2.1713,2.1713,2.1713,2.1713,2.1713,2.1713,2.1713,2.1713,2.1713,2.1753,2.186,2.1877,2.19,2.2007,2.2178,2.2271,2.2271,2.2489,2.2653,2.4938,2.688,2.8059,2.9112,3.0094,3.0379,2.8716,2.9383,2.9932,2.8516,2.7224,2.6424,2.66,2.5797,2.5379,2.6242,2.8795,3.1097,3.2245,3.3669,3.4735,3.5104,3.5798,3.6072,0.0,0.0,3.5987,3.5975,3.7172,3.7585,3.685,3.711,3.662,3.5191,3.5828,3.6058,3.575,3.5569,3.5868,3.659,3.5291,3.3981,3.2735,3.4075,3.3549,3.1653,3.3001,3.3907,3.4433,3.4433,3.4433,3.4433,3.4431,3.3641,3.2377,3.1428,3.1067,3.0725,2.8275,2.7416,2.7357,2.6986,2.6885,2.6724,2.5887,2.5639,2.5451,2.4592,2.4337,2.4271,2.3995,2.3946,2.3848,2.3554,2.3487,2.3434,2.3268,2.3117,2.305,2.305,2.2974,2.2893,2.2893,2.2716,2.2512,2.2342,2.2315,2.2235,2.2034,2.2007,2.2007,2.2007,2.2007,2.2007,2.2007,2.2007,2.2007,2.2007,2.2007,2.2007,2.2007,2.2007,2.2047,2.2138,2.2138,2.2191,2.2315,2.2485,2.2579,2.2579,2.2903,2.305,2.6641,2.7991,2.8737,3.1537,3.2535,3.2374,3.0717,3.0318,3.0284,3.0212,2.6926,2.5172,0.0,0.0,2.4865,2.6009,2.9816,3.2345,3.1436,3.409,3.6077,0.0,0.0,0.0,0.0,0.0,0.0,3.7834,3.7912,3.8283,3.916,3.9238,3.9453,3.9883,3.7632,3.6391,3.6354,3.5882,3.6645,3.8592,3.8592,3.8538,3.8447,3.8556,3.7474,3.5497,3.5608,3.4583,3.2809,3.2809,3.2809,3.2809,3.2809,3.2809,3.2581,3.0612,2.9859,3.0077,3.1472,3.1686,3.1254,3.084,3.0725,3.0298,2.8076,2.7405,2.699,2.5147,2.4613,2.4532,2.4302,2.4222,2.4155,2.3879,2.3901,2.3959,2.3946,2.377,2.362,2.362,2.3325,2.3088,2.3088,2.3016,2.2934,2.292,2.292,2.2719,2.2114,2.2047,2.2047,2.2047,2.2047,2.2047,2.2047,2.2047,2.2047,2.2047,2.2047,2.2047,2.2047,2.2047,2.2181,2.2415,2.2428,2.2592,2.292,2.292,2.2934,2.2947,2.322,2.3336,2.8918,3.0551,3.1706,3.2458,3.2949,3.3039,3.2303,3.1903,3.1405,3.0417,2.7334,2.5122,0.0,0.0,0.0,2.8438,3.2085,0.0,3.5599,3.6702,0.0,3.6599,0.0,3.707,3.658,3.6797,0.0,3.8358,3.8105,3.8283,3.916,3.9824,4.0079,3.9902,3.9566,3.9089,3.8437,3.8015,3.808,3.8592,3.8592,3.7786,3.6349,3.7878,3.7474,3.559,3.7124,3.753,3.7033,3.7033,3.7033,3.7033,3.7033,3.7033,3.6977,3.646,3.6238,3.6312,3.6679,3.2697,2.7373,2.7027,2.6909,2.6782,2.6198,2.5868,2.561,2.5106,2.4791,2.4586,2.4524,2.4511,2.4431,2.4168,2.5162,2.6131,2.5933,2.6915,2.7839,2.7839,2.6658,2.5661,2.5661,2.4501,2.3478,2.3247,2.3189,2.3073,2.2719,2.2679,2.2679,2.2679,2.2679,2.2679,2.2679,2.2679,2.2679,2.2679,2.2679,2.2679,2.2679,2.2679,2.2706,2.2769,2.2769,2.2916,2.3189,2.3189,2.3327,2.3576,2.3638,2.3679,3.0731,3.2066,3.2832,3.3027,3.309,3.293,3.2148,3.1636,3.0728,2.8682,2.6502,0.0,0.0,0.0,0.0,0.0,0.0,0.0,3.6015,3.7138,3.7795,0.0,3.793,0.0,3.783,3.7988,3.8418,3.912,3.8574,3.8672,3.9708,4.0235,4.0489,4.0468,4.0508,4.0079,3.9219,3.8983,3.8768,3.8592,3.8592,3.8007,3.6903,3.808,3.7951,3.6922,3.8098,3.8592,3.8592,3.8592,3.8592,3.8592,3.8592,3.8592,3.8501,3.7566,3.7254,3.7106,3.6238,3.281,2.9081,3.0494,3.0926,3.0761,2.9763,2.935,2.8998,2.7977,2.7555,2.736,2.7157,2.711,2.7066,2.691,2.7674,2.8397,2.8262,2.8959,2.9573,2.9424,2.7879,2.6593,2.6593,2.5038,2.3732,2.3541,2.3527,2.3478,2.3322,2.3067,2.2893,2.2893,2.2893,2.2893,2.2893,2.2893,2.2893,2.2893,2.301,2.309,2.309,2.3228,2.3295,2.3295,2.3295,2.3371,2.3527,2.3527,2.3625,2.3785,2.3919,2.3986,3.2154,3.293,3.3047,3.3402,3.3129,3.2476,3.1187,3.0449,2.9252,2.6446,0.0,2.4228,2.3136,2.4947,2.6693,2.6797,0.0,3.5333,3.5078,3.6788,3.8262,3.871,3.8768,3.8905,3.9258,3.9297,3.9492,3.9941,3.9296,3.9316,4.045,4.0567,4.0781,4.1191,4.0742,4.0137,3.9394,3.9316,3.9121,3.8768,3.8768,3.8729,3.8671,3.8671,3.8651,3.8592,3.8592,3.8592,3.8592,3.8592,3.8592,3.8592,3.8592,3.8592,3.8372,3.6571,3.5905,3.5664,3.3907,3.332,3.3741,3.6346,3.7177,3.6812,3.483,3.4198,3.3747,3.1702,3.1115,3.0981,3.0576,3.0443,3.0376,3.0376,3.0538,3.0681,3.0681,3.071,3.0632,3.0327,2.8749,2.7482,2.7482,2.5703,2.4272,2.4231,2.4017,2.3826,2.3785,2.3348,2.3014,2.3014,2.3014,2.3014,2.3014,2.3014,2.3014,2.3014,2.3233,2.3363,2.3363,2.3652,2.3803,2.3803,2.3803,2.383,2.3852,2.3852,2.3866,2.3906,2.4142,2.4244,3.3144,3.3574,3.3883,3.3961,3.3379,3.2476,3.1187,2.998,0.0,0.0,0.0,2.3475,2.4015,2.5343,2.7187,2.9674,0.0,0.0,0.0,0.0,3.9141,0.0,0.0,0.0,0.0,0.0,0.0,4.0352,4.0254,4.0254,4.0489,4.0859,4.1113,4.1191,4.0742,4.043,4.0274,3.9922,3.9746,3.9668,3.9668,3.9473,3.9101,3.9101,3.8906,3.8592,3.8592,3.8592,3.8592,3.8592,3.8592,3.8592,3.8592,3.8592,3.8556,3.8208,3.8062,3.8025,3.7658,3.7548,3.7088,3.4325,3.3445,3.3353,3.2965,3.2636,3.2347,3.1946,3.1677,3.1465,3.1415,3.113,3.0881,3.0881,3.1803,3.27,3.27,3.3878,3.4922,3.4863,3.3334,3.2052,3.2052,2.9172,2.6751,2.649,2.5114,2.4035,2.3826,2.371,2.3638,2.3638,2.3638,2.3638,2.3638,2.3638,2.3638,2.3638,2.3679,2.3705,2.3705,2.3759,2.3803,2.3803,2.3803,2.3906,2.4128,2.4128,2.423,2.4452,2.4506,2.4519,3.3949,3.4238,3.4352,3.4137,3.3293,3.1968,2.9995,0.0,0.0,0.0,0.0,2.3293,2.2862,0.0,0.0,0.0,0.0,0.0,0.0,0.0,0.0,0.0,0.0,0.0,0.0,0.0,4.0664,4.084,4.0859,4.0859,4.0859,4.1074,4.1191,4.1191,4.0976,4.0762,4.0508,4.0313,4.0117,3.9902,3.9902,3.9785,3.9551,3.9551,3.9453,3.9276,3.9276,3.9139,3.8925,3.8925,3.8925,3.8925,3.8925,3.9061,3.9276,3.9276,3.912,3.8925,3.8925,3.8768,3.8281,3.6312,3.5663,3.5663,3.5663,3.5573,3.5374,3.5138,3.4976,3.483,3.4631,3.4431,3.4268,3.4268,3.4832,3.5316,3.5316,3.6052,3.668,3.668,3.5159,3.3799,3.3565,3.1178,2.9183,2.8785,2.7126,2.5868,2.5744,2.4842,2.4102,2.3826,2.3803,2.3803,2.3803,2.3803,2.3803,2.3803,2.3933,2.4013,2.4013,2.4142,2.4222,2.4222,2.4222,2.4271,2.4404,2.4404,2.4466,2.4599,2.4778,2.4863,3.4512,3.4766,3.4746,3.4333,3.3215,3.1534,2.9018,2.7617,0.0,0.0,2.2804,2.3276,2.2065,0.0,0.0,0.0,0.0,0.0,0.0,0.0,0.0,0.0,0.0,0.0,0.0,4.1191,0.0,4.1191,4.1191,4.1191,4.1191,4.1191,4.1191,4.1191,4.1191,4.1035,4.0645,4.0645,4.0488,4.0195,4.0195,4.0117,4.0039,4.0039,3.998,3.9902,3.9902,3.9687,3.9355,3.9355,3.9355,3.9355,3.9355,3.957,3.9902,3.9902,3.9668,3.9355,3.9355,3.9141,3.8866,3.8768,3.8671,3.8592,3.8592,3.8592,3.8514,3.8146,3.8048,3.7988,3.7656,3.75,3.7402,3.7324,3.7305,3.7305,3.7305,3.7305,3.7305,3.7305,3.6114,3.4986,3.4602,3.2983,3.1609,3.1268,2.9589,2.8373,2.8373,2.6667,2.5299,2.4873,2.4309,2.3973,2.3973,2.3973,2.3973,2.3973,2.4168,2.4302,2.4302,2.4564,2.4711,2.4711,2.4759,2.4786,2.4786,2.4786,2.4786,2.4786,2.5064,2.5189,3.4668,3.5,3.5215,3.4766,3.3414,3.1597,2.9361,0.0,0.0,2.3976,2.3349,2.3246,2.3518,0.0,0.0,0.0,0.0,0.0,0.0,0.0,0.0,0.0,0.0,0.0,4.1211,4.1191,4.1191,4.1191,4.1191,4.1191,4.1191,4.1191,4.1191,4.1191,4.1191,4.1172,4.1133,4.1133,4.1113,4.1074,4.1074,4.0859,4.045,4.045,4.0254,3.9902,3.9902,3.9883,3.9824,3.9824,3.9824,3.9824,3.9824,3.9863,3.9902,3.9902,3.9863,3.9824,3.9824,3.9805,3.9707,3.9277,3.8905,3.8592,3.8592,3.8592,3.8592,3.8553,3.8534,3.8514,3.8495,3.8164,3.7756,3.7383,3.7305,3.7305,3.7305,3.7305,3.7305,3.7305,3.7162,3.7019,3.698,3.5434,3.4163,3.4109,3.2466,3.1207,3.1207,2.9471,2.8223,2.8163,2.5982,2.4538,2.4538,2.4538,2.4538,2.4538,2.4546,2.4559,2.4559,2.4877,2.5056,2.5056,2.5304,2.5419,2.5419,2.5419,2.5419,2.5419,2.5445,2.5459,3.4902,3.543,3.5605,3.4883,3.3434,3.1553,2.9101,0.0,2.5484,2.3728,2.3229,2.3151,2.3337,2.3887,0.0,0.0,0.0,0.0,0.0,0.0,0.0,0.0,0.0,0.0,0.0,0.0,4.1191,4.1191,4.1191,4.1191,4.1191,4.1191,4.1191,4.1191,4.1191,4.1191,4.1191,4.1191,4.1191,4.1191,4.1191,4.1094,4.0918,4.0918,4.082,4.0683,4.0683,4.0508,4.0254,4.0254,4.0254,4.0254,4.0254,4.043,4.0683,4.0683,4.0488,4.0254,4.0254,4.0098,3.9863,3.9687,3.9512,3.9296,3.8749,3.8592,3.8592,3.8592,3.8592,3.8592,3.8592,3.8456,3.8281,3.8123,3.8084,3.8084,3.8084,3.8084,3.8084,3.8084,3.8084,3.7988,3.7697,3.7031,3.6452,3.6223,3.4576,3.3349,3.3349,3.1618,2.9936,2.8739,2.6542,2.5138,2.5138,2.5138,2.5138,2.5138,2.5138,2.5138,2.5138,2.5277,2.5344,2.5344,2.5451,2.5499,2.5499,2.5499,2.5499,2.5499,2.5711,2.5804,3.4492,3.5198,3.541,3.4515,3.3144,3.1304,0.0,2.6862,2.5199,2.3463,2.3101,2.3101,2.3101,2.3485,2.4328,0.0,0.0,2.8092,3.1269,3.268,3.4281,0.0,0.0,3.9101,4.0312,4.0898,4.1191,4.1191,4.1191,4.1191,4.1191,4.1191,4.1191,4.1191,4.1191,4.1191,4.1191,4.1191,4.1191,4.1191,4.1191,4.1191,4.1191,4.1191,4.1191,4.1191,4.1191,4.0996,4.0723,4.0723,4.0723,4.0723,4.0723,4.0898,4.1191,4.1191,4.0996,4.0723,4.0723,4.0527,4.0273,4.0117,4.0078,3.9941,3.9218,3.8885,3.8749,3.8631,3.8592,3.8592,3.8592,3.8592,3.8592,3.8592,3.8592,3.8592,3.8592,3.8592,3.8592,3.8592,3.8592,3.8495,3.8164,3.8107,3.8008,3.7715,3.6546,3.5718,3.5718,3.3975,3.197,2.9972,2.7883,2.6331,2.5569,2.5499,2.5499,2.5499,2.5499,2.5499,2.5499,2.5598,2.5638,2.5638,2.5732,2.5772,2.5772,2.5772,2.5772,2.5772,2.6005,2.6118,3.3187,3.4046,3.4512,3.3636,3.2446,3.084,0.0,2.666,2.5199,2.3463,2.3101,2.3101,2.3101,2.3485,2.4219,2.5491,0.0,0.0,3.171,3.2891,3.4066,0.0,0.0,3.7656,3.8534,4.0175,4.1191,4.1191,4.1191,4.1191,4.1191,4.1191,4.1191,4.1191,4.1191,4.1191,4.1191,4.1191,4.1191,4.1191,4.1191,4.1191,4.1191,4.1191,4.1191,4.1191,4.1191,4.1191,4.1191,4.1191,4.1191,4.1191,4.1191,4.1211,4.1191,4.1191,4.1191,4.1191,4.1191,4.1191,4.1113,4.0645,4.0489,4.041,4.0019,3.9551,3.9101,3.871,3.8592,3.8592,3.8592,3.8592,3.8592,3.8592,3.8592,3.8592,3.8592,3.8592,3.8592,3.8592,3.8592,3.8592,3.8592,3.8592,3.8592,3.8573,3.8573,3.8555,3.8555,3.6737,3.4677,3.2679,3.0596,2.8294,2.5711,2.5499,2.5499,2.5499,2.5499,2.5499,2.5499,2.5818,2.5998,2.5998,2.6259,2.6386,2.6386,2.6386,2.6386,2.6386,2.6386,2.6406,2.9944,3.1382,3.2711,3.1504,3.0454,2.9205,2.7259,2.6028,2.4863,2.3404,2.3101,2.3101,2.3101,2.3209,2.4149,2.6673,2.7298,0.0,0.0,0.0,0.0,3.5862,3.834,4.0077,4.0351,4.0879,4.1191,4.1191,4.1191,4.1191,4.1191,4.1191,4.1191,4.1191,4.1191,4.1191,4.1191,4.1191,4.1191,4.1191,4.1191,4.1191,4.1191,4.1191,4.1191,4.1191,4.1191,4.1191,4.1191,4.1191,4.1191,4.1191,4.1191,4.1191,4.1191,4.1191,4.1191,4.1191,4.1191,4.1191,4.1172,4.1035,4.0996,4.0879,4.0449,4.0019,3.9648,3.9512,3.9491,3.9491,3.9491,3.9491,3.9413,3.91,3.9004,3.8926,3.8651,3.8592,3.8592,3.8592,3.8592,3.869,3.8945,3.8788,3.869,3.8965,3.8768,3.8592,3.8592,3.8044,3.683,3.477,3.3946,3.1554,2.6549,2.6106,2.6106,2.6106,2.6106,2.6106,2.6106,2.6219,2.6272,2.6272,2.6366,2.6406,2.6406,2.6406,2.6406,2.6406,2.6406,2.6406,0.0,2.969,3.0986,2.9961,2.9082,2.8047,2.6484,2.5449,2.4512,2.3346,2.3101,2.3101,2.3101,2.3248,2.4051,2.6126,2.7005,0.0,0.0,0.0,0.0,3.6309,0.0,4.0273,4.0429,4.0898,4.1191,4.1191,4.1191,4.1191,4.1191,4.1191,4.1191,4.1191,4.1191,4.1191,4.1191,4.1191,4.1191,4.1191,4.1191,4.1191,4.1191,4.1191,4.1191,4.1191,4.1191,4.1191,0.0,4.1191,4.1191,4.1191,4.1191,4.1191,4.1191,4.1191,4.1191,4.1191,4.1191,4.1191,4.1191,4.1191,4.1191,4.1133,4.084,4.0371,3.9902,3.9902,3.9902,3.9902,3.9902,3.9902,3.9824,3.9531,3.9453,3.9394,3.9139,3.91,3.91,3.91,3.91,3.9179,3.9414,3.9257,3.9179,3.9414,3.9257,3.91,3.91,3.91,3.8284,3.6211,3.5985,3.413,2.9587,2.8164,2.7541,2.7541,2.6827,2.6728,2.7502,2.6896,2.6547,2.6547,2.6687,2.6687,2.6547,2.644,2.6453,2.6547,2.6547,2.6613,0.0,2.8627,2.9193,2.8697,2.8008,2.7122,2.5854,2.4937,0.0,2.3268,2.3101,2.3131,2.3218,2.3544,2.4004,2.4617,2.6081,2.7891,0.0,3.2285,0.0,0.0,3.8299,3.8925,3.9316,4.0468,4.1191,4.1191,4.1191,4.1191,4.1191,4.1191,4.1191,4.1191,4.1191,4.1191,4.1191,4.1191,4.1191,4.1191,4.1191,4.1191,4.1191,4.1191,4.1191,4.1191,4.1191,4.1191,4.1191,4.1191,4.1191,4.1191,4.1191,4.1191,4.1191,4.1191,4.1191,4.1191,4.1191,4.1191,4.1191,4.1191,4.1191,4.1191,4.1191,4.0644,3.998,3.998,3.998,3.998,3.998,3.998,3.998,3.9941,3.9941,3.9922,3.9902,3.9902,3.9902,3.9902,3.9902,3.9902,3.9941,3.9922,3.9902,3.9941,3.9922,3.9902,3.9902,3.9902,3.9164,3.7241,3.7012,3.6204,3.4186,3.1242,2.9547,2.9703,2.7813,2.7597,2.9625,2.8001,2.7142,2.7303,2.7446,2.7304,2.6834,2.6587,2.6587,2.6834,2.6834,2.7001,2.4719,0.0,2.642,2.564,2.532,2.5019,0.0,2.4082,0.0,0.0,0.0,0.0,0.0,0.0,2.4699,2.7409,2.819,2.9205,3.1421,0.0,0.0,3.998,4.0449,4.0625,4.0722,4.1015,4.1191,4.1191,4.1191,4.1191,4.1191,4.1191,4.1191,4.1191,4.1191,4.1191,4.1191,4.1191,4.1191,4.1191,4.1191,4.1191,4.1191,4.1191,4.1191,4.1191,4.1191,4.1191,4.1191,4.1191,4.1191,4.1191,4.1191,4.1191,4.1191,4.1191,4.1191,4.1191,4.1191,4.1191,4.1191,4.1191,4.1191,4.1191,4.1191,4.1054,4.0898,4.0898,4.0898,4.0898,4.0898,4.0898,4.08,4.043,4.0352,4.0274,3.9961,3.9902,3.9902,3.9902,3.9902,4.0,4.0312,4.0098,4.0,4.0313,4.0098,3.9902,3.9902,3.9902,3.9713,3.9221,3.9183,3.8348,3.6262,3.2492,3.0954,3.265,3.0737,3.0499,3.267,3.0753,3.042,3.211,3.0575,2.8912,2.7181,2.7115,2.7115,2.7181,2.7181,2.7222,2.3485,2.4715,2.5906,2.5449,2.5164,2.4937,2.4715,0.0,0.0,0.0,0.0,0.0,0.0,0.0,0.0,0.0,2.8574,0.0,0.0,0.0,3.8944,4.0957,4.1191,4.1191,4.1191,4.1191,4.1191,4.1191,4.1191,4.1191,4.1191,4.1191,4.1191,4.1191,4.1191,4.1191,4.1191,4.1191,4.1191,4.1191,4.1191,4.1191,4.1191,4.1191,4.1191,4.1191,4.1191,4.1191,4.1191,4.1191,4.1191,4.1191,4.1191,4.1191,4.1191,4.1191,4.1191,4.1191,4.1191,4.1191,4.1191,4.1191,4.1191,4.1191,4.1191,4.1191,4.1191,4.1191,4.1191,4.1191,4.1191,4.1191,4.1133,4.0879,4.082,4.0762,4.0527,4.0507,4.0507,4.0507,4.0507,4.0585,4.0781,4.0625,4.0585,4.0781,4.0625,4.0507,4.0507,4.0507,4.0507,4.0507,4.0507,4.0047,3.8912,3.5797,3.4262,3.5117,3.3205,3.2968,3.5083,3.3253,3.2818,3.4193,3.2894,3.1148,2.9005,2.8829,2.8329,2.7489,2.7489,2.7576,2.3346,2.491,2.6399,2.5996,2.5749,2.555,0.0,0.0,0.0,0.0,0.0,0.0,0.0,0.0,0.0,0.0,0.0,0.0,3.6267,3.8203,3.9687,4.1035,4.1191,4.1191,4.1191,4.1191,4.1191,4.1191,4.1191,4.1191,4.1191,4.1191,4.1191,4.1191,4.1191,4.1191,4.1191,4.1191,4.1191,4.1191,4.1191,4.1191,4.1191,4.1191,4.1191,4.1191,4.1191,4.1191,4.1191,4.1191,4.1191,4.1191,4.1191,4.1191,4.1191,4.1191,4.1191,4.1191,4.1191,4.1191,4.1191,4.1191,4.1191,4.1191,4.1191,4.1191,4.1191,4.1191,4.1191,4.1191,4.1191,4.1191,4.1191,4.1191,4.1191,4.1191,4.1191,4.1191,4.1191,4.1191,4.1191,4.1191,4.1191,4.1191,4.1191,4.1191,4.1191,4.1191,4.1191,4.1191,4.1191,4.1191,4.1191,4.1191,4.1191,3.9472,3.8137,3.7518,3.5565,3.5177,3.6904,3.5861,3.5079,3.4712,3.4735,3.3708,3.1543,3.0947,2.9807,2.8247,2.7929,2.7917,2.4484,2.5832,2.6374,2.4157,2.4414,2.4895,0.0,0.0,0.0,0.0,0.0,0.0,0.0,0.0,0.0,0.0,0.0,3.4805,0.0,0.0,3.9687,4.1035,4.1191,4.1191,4.1191,4.1191,4.1191,4.1191,4.1191,4.1191,4.1191,4.1191,4.1191,4.1191,4.1191,4.1191,4.1191,4.1191,4.1191,4.1191,4.1191,4.1191,4.1191,4.1191,4.1191,4.1191,4.1191,4.1191,4.1191,4.1191,4.1191,4.1191,4.1191,4.1191,4.1191,4.1191,4.1191,4.1191,4.1191,4.1191,4.1191,4.1191,4.1191,4.1191,4.1191,4.1191,4.1191,4.1191,4.1191,4.1191,4.1191,4.1191,4.1191,4.1191,4.1191,4.1191,4.1191,4.1191,4.1191,4.1191,4.1191,4.1191,4.1191,4.1191,4.1191,4.1191,4.1191,4.1191,4.1191,4.1191,4.1191,4.1191,4.1191,4.1191,4.1191,4.088,4.0646,4.0531,3.8463,3.7419,3.7715,3.9262,3.8414,3.4773,3.6432,3.6295,3.4123,3.2202,3.1108,3.0795,2.8965,2.8138,2.3856,2.5132,2.5952,2.4551,2.5684,2.6992,0.0,0.0,0.0,0.0,0.0,0.0,0.0,0.0,0.0,3.3441,0.0,3.6936,3.8418,3.9337,4.0234,4.1094,4.1191,4.1191,4.1191,4.1191,4.1191,4.1191,4.1191,4.1191,4.1191,4.1191,4.1191,4.1191,4.1191,4.1191,4.1191,4.1191,4.1191,4.1191,4.1191,4.1191,4.1191,4.1191,4.1191,4.1191,4.1191,4.1191,4.1191,4.1191,4.1191,4.1191,4.1191,4.1191,4.1191,4.1191,4.1191,4.1191,4.1191,4.1191,4.1191,4.1191,4.1191,4.1191,4.1191,4.1191,4.1191,4.1191,4.1191,4.1191,4.1191,4.1191,4.1191,4.1191,4.1191,4.1191,4.1191,4.1191,4.1191,4.1191,4.1191,4.1191,4.1191,4.1191,4.1191,4.1191,4.1191,4.1191,4.1191,4.1191,4.1191,4.1191,4.1191,4.1191,4.1191,4.1191,4.1191,4.1191,4.0255,3.9669,3.9669,4.0665,4.0255,3.8251,3.9178,3.8607,3.6442,3.542,3.4327,3.3165,3.2176,3.1717,2.3786,2.4781,2.5698,0.0,0.0,0.0,0.0,0.0,0.0,0.0,0.0,0.0,0.0,3.0586,0.0,3.5979,3.7619,3.8751,3.9414,4.0157,4.0801,4.1152,4.1191,4.1191,4.1191,4.1191,4.1191,4.1191,4.1191,4.1191,4.1191,4.1191,4.1191,4.1191,4.1191,4.1191,4.1191,4.1191,4.1191,4.1191,4.1191,4.1191,4.1191,4.1191,4.1191,4.1191,4.1191,4.1191,4.1191,4.1191,4.1191,4.1191,4.1191,4.1191,4.1191,4.1191,4.1191,4.1191,4.1191,4.1191,4.1191,4.1191,4.1191,4.1191,4.1191,4.1191,4.1191,4.1191,4.1191,4.1191,4.1191,4.1191,4.1191,4.1191,4.1191,4.1191,4.1191,4.1191,4.1191,4.1191,4.1191,4.1191,4.1191,4.1191,4.1191,4.1191,4.1191,4.1191,4.1191,4.1191,4.1191,4.1191,4.1191,4.1191,4.1191,4.1191,4.1191,4.1191,4.1191,4.1191,4.1191,4.1191,4.1191,4.1191,4.1191,4.0373,3.8666,3.8152,3.7062,3.544,3.4935,3.4692,2.582,2.5945,2.5991,0.0,0.0,0.0,0.0,0.0,0.0,0.0,0.0,0.0,0.0,3.3125,3.6096,3.7541,3.92,4.0332,4.0391,4.084,4.1152,4.1211,4.1191,4.1191,4.1191,4.1191,4.1191,4.1191,4.1191,4.1191,4.1191,4.1191,4.1191,4.1191,4.1191,4.1191,4.1191,4.1191,4.1191,4.1191,4.1191,4.1191,4.1191,4.1191,4.1191,4.1191,4.1191,4.1191,4.1191,4.1191,4.1191,4.1191,4.1191,4.1191,4.1191,4.1191,4.1191,4.1191,4.1191,4.1191,4.1191,4.1191,4.1191,4.1191,4.1191,4.1191,4.1191,4.1191,4.1191,4.1191,4.1191,4.1191,4.1191,4.1191,4.1191,4.1191,4.1191,4.1191,4.1191,4.1191,4.1191,4.1191,4.1191,4.1191,4.1191,4.1191,4.1191,4.1191,4.1191,4.1191,4.1191,4.1191,4.1191,4.1191,4.1191,4.1191,4.1191,4.1191,4.1191,4.1191,4.1191,4.1191,4.1191,4.1191,4.1191,4.1113,4.0958,3.8902,3.7816,3.7618,3.5638,3.4692,2.5008,2.5644,0.0,0.0,0.0,0.0,0.0,0.0,0.0,0.0,0.0,0.0,0.0,0.0,3.6934,3.8457,3.9708,4.0606,4.0879,4.1094,4.1191,4.1191,4.1191,4.1191,4.1191,4.1191,4.1191,4.1191,4.1191,4.1191,4.1191,4.1191,4.1191,4.1191,4.1191,4.1191,4.1191,4.1191,4.1191,4.1191,4.1191,4.1191,4.1191,4.1191,4.1191,4.1191,4.1191,4.1191,4.1191,4.1191,4.1191,4.1191,4.1191,4.1191,4.1191,4.1191,4.1191,4.1191,4.1191,4.1191,4.1191,4.1191,4.1191,4.1191,4.1191,4.1191,4.1191,4.1191,4.1191,4.1191,4.1191,4.1191,4.1191,4.1191,4.1191,4.1191,4.1191,4.1191,4.1191,4.1191,4.1191,4.1191,4.1191,4.1191,4.1191,4.1191,4.1191,4.1191,4.1191,4.1191,4.1191,4.1191,4.1191,4.1191,4.1191,4.1191,4.1191,4.1191,4.1191,4.1191,4.1191,4.1191,4.1191,4.1191,4.1191,4.1191,4.1191,4.0353,3.9943,3.9923,3.9138,3.8744,2.4707,2.5488,0.0,0.0,0.0,0.0,0.0,0.0,0.0,0.0,0.0,0.0,0.0,0.0,0.0,3.8945,4.0059,4.084,4.1152,4.1191,4.1191,4.1191,4.1191,4.1191,4.1191,4.1191,4.1191,4.1191,4.1191,4.1191,4.1191,4.1191,4.1191,4.1191,4.1191,4.1191,4.1191,4.1191,4.1191,4.1191,4.1191,4.1191,4.1191,4.1191,4.1191,4.1191,4.1191,4.1191,4.1191,4.1191,4.1191,4.1191,4.1191,4.1191,4.1191,4.1191,4.1191,4.1191,4.1191,4.1191,4.1191,4.1191,4.1191,4.1191,4.1191,4.1191,4.1191,4.1191,4.1191,4.1191,4.1191,4.1191,4.1191,4.1191,4.1191,4.1191,4.1191,4.1191,4.1191,4.1191,4.1191,4.1191,4.1191,4.1191,4.1191,4.1191,4.1191,4.1191,4.1191,4.1191,4.1191,4.1191,4.1191,4.1191,4.1191,4.1191,4.1191,4.1191,4.1191,4.1191,4.1191,4.1191,4.1191,4.1191,4.1191,4.1191,4.1191,4.1191,4.1191,4.1191,4.1191,4.1191,2.5329,0.0,0.0,0.0,0.0,0.0,0.0,0.0,0.0,0.0,0.0,0.0,0.0,0.0,0.0,3.9004,4.0331,4.1191,4.1191,4.1191,4.1191,4.1191,4.1191,4.1191,4.1191,4.1191,4.1191,4.1191,4.1191,4.1191,4.1191,4.1191,4.1191,4.1191,4.1191,4.1191,4.1191,4.1191,4.1191,4.1191,4.1191,4.1191,4.1191,4.1191,4.1191,4.1191,4.1191,4.1191,4.1191,4.1191,4.1191,4.1191,4.1191,4.1191,4.1191,4.1191,4.1191,4.1191,4.1191,4.1191,4.1191,4.1191,4.1191,4.1191,4.1191,4.1191,4.1191,4.1191,4.1191,4.1191,4.1191,4.1191,4.1191,4.1191,4.1191,4.1191,4.1191,4.1191,4.1191,4.1191,4.1191,4.1191,4.1191,4.1191,4.1191,4.1191,4.1191,4.1191,4.1191,4.1191,4.1191,4.1191,4.1191,4.1191,4.1191,4.1191,4.1191,4.1191,4.1191,4.1191,4.1191,4.1191,4.1191,4.1191,4.1191,4.1191,4.1191,4.1191,4.1191,4.1191,4.1191,4.1191,2.4593,0.0,0.0,0.0,0.0,0.0,0.0,0.0,0.0,0.0,0.0,0.0,0.0,0.0,0.0,3.9531,4.0273,4.082,4.1152,4.1191,4.1191,4.1191,4.1191,4.1191,4.1191,4.1191,4.1191,4.1191,4.1191,4.1191,4.1191,4.1191,4.1191,4.1191,4.1191,4.1191,4.1191,4.1191,4.1191,4.1191,4.1191,4.1191,4.1191,4.1191,4.1191,4.1191,4.1191,4.1191,4.1191,4.1191,4.1191,4.1191,4.1191,4.1191,4.1191,4.1191,4.1191,4.1191,4.1191,4.1191,4.1191,4.1191,4.1191,4.1191,4.1191,4.1191,4.1191,4.1191,4.1191,4.1191,4.1191,4.1191,4.1191,4.1191,4.1191,4.1191,4.1191,4.1191,4.1191,4.1191,4.1191,4.1191,4.1191,4.1191,4.1191,4.1191,4.1191,4.1191,4.1191,4.1191,4.1191,4.1191,4.1191,4.1191,4.1191,4.1191,4.1191,4.1191,4.1191,4.1191,4.1191,4.1191,4.1191,4.1191,4.1191,4.1191,4.1191,4.1191,4.1191,4.1191,4.1191,4.1191,0.0,0.0,0.0,0.0,0.0,0.0,0.0,0.0,0.0,0.0,0.0,3.8944,3.9277,3.9062,3.9121,4.0,4.0508,4.0879,4.1152,4.1191,4.1191,4.1191,4.1191,4.1191,4.1191,4.1191,4.1191,4.1191,4.1191,4.1191,4.1191,4.1191,4.1191,4.1191,4.1191,4.1191,4.1191,4.1191,4.1191,4.1191,4.1191,4.1191,4.1191,4.1191,4.1191,4.1191,4.1191,4.1191,4.1191,4.1191,4.1191,4.1191,4.1191,4.1191,4.1191,4.1191,4.1191,4.1191,4.1191,4.1191,4.1191,4.1191,4.1191,4.1191,4.1191,4.1191,4.1191,4.1191,4.1191,4.1191,4.1191,4.1191,4.1191,4.1191,4.1191,4.1191,4.1191,4.1191,4.1191,4.1191,4.1191,4.1191,4.1191,4.1191,4.1191,4.1191,4.1191,4.1191,4.1191,4.1191,4.1191,4.1191,4.1191,4.1191,4.1191,4.1191,4.1191,4.1191,4.1191,4.1191,4.1191,4.1191,4.1191,4.1191,4.1191,4.1191,4.1191,4.1191,4.1191,4.1191,4.1191,4.1191,0.0,0.0,0.0,0.0,0.0,0.0,0.0,0.0,0.0,0.0,0.0,3.9629,4.041,3.9922,3.9648,4.043,4.0918,4.1191,4.1191,4.1191,4.1191,4.1191,4.1191,4.1191,4.1191,4.1191,4.1191,4.1191,4.1191,4.1191,4.1191,4.1191,4.1172,4.1133,4.1133,4.1113,4.1074,4.1074,4.1074,4.1074,4.1113,4.1133,4.1133,4.1172,4.1191,4.1191,4.1191,4.1191,4.1191,4.1191,4.1191,4.1191,4.1191,4.1191,4.1191,4.1191,4.1191,4.1191,4.1191,4.1191,4.1191,4.1191,4.1191,4.1191,4.1191,4.1191,4.1191,4.1191,4.1191,4.1191,4.1191,4.1191,4.1191,4.1191,4.1191,4.1191,4.1191,4.1191,4.1191,4.1191,4.1191,4.1191,4.1191,4.1191,4.1191,4.1191,4.1191,4.1191,4.1191,4.1191,4.1191,4.1191,4.1191,4.1191,4.1191,4.1191,4.1191,4.1191,4.1191,4.1191,4.1191,4.1191,4.1191,4.1191,4.1191,4.1191,4.1191,4.1191,4.1191,4.1191,4.1191,4.1191,0.0,0.0,0.0,0.0,0.0,0.0,0.0,0.0,0.0,4.1035,4.0898,4.082,4.1015,4.0898,4.0839,4.1015,4.1133,4.1191,4.1191,4.1191,4.1191,4.1191,4.1191,4.1191,4.1191,4.1191,4.1191,4.1191,4.1191,4.1191,4.1191,4.1191,4.1035,4.0645,4.0645,4.0508,4.0176,4.0195,4.0195,4.0176,4.0508,4.0645,4.0664,4.1035,4.1191,4.1191,4.1191,4.1191,4.1191,4.1191,4.1191,4.1191,4.1191,4.1191,4.1191,4.1191,4.1191,4.1191,4.1191,4.1191,4.1191,4.1191,4.1191,4.1191,4.1191,4.1191,4.1191,4.1191,4.1191,4.1191,4.1191,4.1191,4.1191,4.1191,4.1191,4.1191,4.1191,4.1191,4.1191,4.1191,4.1191,4.1191,4.1191,4.1191,4.1191,4.1191,4.1191,4.1191,4.1191,4.1191,4.1191,4.1191,4.1191,4.1191,4.1191,4.1191,4.1191,4.1191,4.1191,4.1191,4.1191,4.1191,4.1191,4.1191,4.1191,4.1191,4.1191,4.1191,4.1191,4.1191,4.1191,4.1191,0.0,0.0,0.0,0.0,0.0,0.0,0.0,0.0,4.0937,4.1152,4.1191,4.1191,4.1191,4.1191,4.1191,4.1191,4.1191,4.1191,4.1191,4.1191,4.1191,4.1191,4.1191,4.1191,4.1191,4.1191,4.1191,4.1191,4.1191,4.1094,4.0879,4.0859,4.0664,4.0234,4.0196,4.0117,3.9902,3.9902,3.9902,3.9902,4.0117,4.0196,4.0254,4.0898,4.1191,4.1191,4.1191,4.1191,4.1191,4.1191,4.1191,4.1191,4.1191,4.1191,4.1191,4.1191,4.1191,4.1191,4.1191,4.1191,4.1191,4.1191,4.1191,4.1191,4.1191,4.1191,4.1191,4.1191,4.1191,4.1191,4.1191,4.1191,4.1191,4.1191,4.1191,4.1191,4.1191,4.1191,4.1191,4.1191,4.1191,4.1191,4.1191,4.1191,4.1191,4.1191,4.1191,4.1191,4.1191,4.1191,4.1191,4.1191,4.1191,4.1191,4.1191,4.1191,4.1191,4.1191,4.1191,4.1191,4.1191,4.1191,4.1191,4.1191,4.1191,4.1191,4.1191,4.1191,4.1191,4.1191,4.1191,4.1191,0.0,0.0,0.0,0.0,0.0,0.0,0.0,4.0098,4.0547,4.0976,4.1133,4.1191,4.1191,4.1191,4.1191,4.1191,4.1191,4.1191,4.1191,4.1191,4.1191,4.1191,4.1191,4.1191,4.1191,4.1133,4.1074,4.1074,4.1015,4.082,4.041,4.0391,4.0196,3.9785,3.9766,3.9746,3.9687,3.9687,3.9687,3.9687,3.9746,3.9824,3.9922,4.0644,4.1015,4.1074,4.1074,4.1133,4.1191,4.1191,4.1191,4.1191,4.1191,4.1191,4.1191,4.1191,4.1191,4.1191,4.1191,4.1191,4.1191,4.1191,4.1191,4.1191,4.1191,4.1191,4.1191,4.1191,4.1191,4.1191,4.1191,4.1191,4.1191,4.1191,4.1191,4.1191,4.1191,4.1191,4.1191,4.1191,4.1191,4.1191,4.1191,4.1191,4.1191,4.1191,4.1191,4.1191,4.1191,4.1191,4.1191,4.1191,4.1191,4.1191,4.1191,4.1191,4.1191,4.1191,4.1191,4.1191,4.1191,4.1191,4.1191,4.1191,4.1191,4.1191,4.1191,4.1191,4.1191,4.1191,4.1191,4.1191,0.0,0.0,0.0,0.0,0.0,3.8788,0.0,0.0,4.0098,4.0508,4.0918,4.1191,4.1191,4.1191,4.1191,4.1191,4.1191,4.1191,4.1191,4.1191,4.1191,4.1191,4.1191,4.1191,4.1191,4.084,4.0586,4.0586,4.0273,4.0039,3.998,3.998,3.9766,3.9316,3.9297,3.9139,3.8768,3.8768,3.8768,3.8768,3.9139,3.9512,3.9902,4.0019,4.0254,4.0586,4.0586,4.082,4.1191,4.1191,4.1191,4.1191,4.1191,4.1191,4.1191,4.1191,4.1191,4.1191,4.1191,4.1191,4.1191,4.1191,4.1191,4.1191,4.1191,4.1191,4.1191,4.1191,4.1191,4.1191,4.1191,4.1191,4.1191,4.1191,4.1191,4.1191,4.1191,4.1191,4.1191,4.1191,4.1191,4.1191,4.1191,4.1191,4.1191,4.1191,4.1191,4.1191,4.1191,4.1191,4.1191,4.1191,4.1191,4.1191,4.1191,4.1191,4.1191,4.1191,4.1191,4.1191,4.1191,4.1191,4.1191,4.1191,4.1191,4.1191,4.1191,4.1191,4.1191,4.1191,4.1191,4.1191,2.5586,2.9141,3.2519,0.0,3.709,3.8045,3.871,3.9199,3.9629,4.0078,4.0332,4.0625,4.1113,4.1191,4.1191,4.1191,4.1191,4.1191,4.1191,4.1191,4.1191,4.1191,4.1191,4.1191,4.1191,4.0781,4.0508,4.0508,4.0137,3.9785,3.9512,3.9512,3.9316,3.8885,3.8866,3.8788,3.8592,3.8592,3.8592,3.8592,3.8788,3.8983,3.9179,3.9179,3.9668,4.0508,4.0508,4.0781,4.1191,4.1191,4.1191,4.1191,4.1191,4.1191,4.1191,4.1191,4.1191,4.1191,4.1191,4.1191,4.1191,4.1191,4.1191,4.1191,4.1191,4.1191,4.1191,4.1191,4.1191,4.1191,4.1191,4.1191,4.1191,4.1191,4.1191,4.1191,4.1191,4.1191,4.1191,4.1191,4.1191,4.1191,4.1191,4.1191,4.1191,4.1191,4.1191,4.1191,4.1191,4.1191,4.1191,4.1191,4.1191,4.1191,4.1191,4.1191,4.1191,4.1191,4.1191,4.1191,4.1191,4.1191,4.1191,4.1191,4.1191,4.1191,4.1191,4.1191,4.1191,4.1191,4.1191,4.1191,0.0,0.0,3.083,3.4199,3.584,3.6914,0.0,3.8574,3.9043,3.9609,3.9726,3.996,4.0722,4.0957,4.1054,4.1172,4.1191,4.1152,4.1054,4.1113,4.1113,4.0898,4.0957,4.0996,4.0879,4.0449,4.0176,4.0176,3.9805,3.9433,3.9062,3.9043,3.8925,3.8612,3.8592,3.8592,3.8592,3.8592,3.8592,3.8592,3.8592,3.8592,3.8592,3.8592,3.916,4.0176,4.0293,4.0605,4.1035,4.1152,4.1191,4.1191,4.1191,4.1191,4.1191,4.1191,4.1191,4.1191,4.1191,4.1191,4.1191,4.1191,4.1191,4.1191,4.1191,4.1191,4.1191,4.1191,4.1191,4.1191,4.1191,4.1191,4.1191,4.1191,4.1191,4.1191,4.1191,4.1191,4.1191,4.1191,4.1191,4.1191,4.1191,4.1191,4.1191,4.1191,4.1191,4.1191,4.1191,4.1191,4.1191,4.1191,4.1191,4.1191,4.1191,4.1191,4.1191,4.1191,4.1191,4.1191,4.1191,4.1191,4.1191,4.1191,4.1191,4.1191,4.1191,4.1191,4.1191,4.1191,4.1191,4.1191,0.0,2.5289,0.0,3.1323,3.3629,3.5273,3.6973,3.7695,3.8205,3.9062,3.9238,3.9394,3.9883,4.0274,4.0664,4.1133,4.1191,4.1054,4.0606,4.0918,4.0898,4.0077,4.0293,4.0371,4.0,3.9551,3.9277,3.9277,3.8887,3.8651,3.8631,3.8631,3.8612,3.8592,3.8592,3.8592,3.8592,3.8592,3.8592,3.8592,3.8592,3.8592,3.8592,3.8592,3.8846,3.9297,3.9746,4.0176,4.0567,4.1015,4.1191,4.1191,4.1191,4.1191,4.1191,4.1191,4.1191,4.1191,4.1191,4.1191,4.1191,4.1191,4.1191,4.1191,4.1191,4.1191,4.1191,4.1191,4.1191,4.1191,4.1191,4.1191,4.1191,4.1191,4.1191,4.1191,4.1191,4.1191,4.1191,4.1191,4.1191,4.1191,4.1191,4.1191,4.1191,4.1191,4.1191,4.1191,4.1191,4.1191,4.1191,4.1191,4.1191,4.1191,4.1191,4.1191,4.1191,4.1191,4.1191,4.1191,4.1191,4.1191,4.1191,4.1191,4.1191,4.1191,4.1191,4.1191,4.1191,4.1191,4.1191,4.1191,0.0,0.0,0.0,2.9037,3.1401,3.3395,3.4551,3.6211,3.7598,3.791,3.8436,3.8964,3.9375,3.9824,4.0176,4.0332,4.0371,4.0293,4.0137,4.0254,4.0253,3.9941,4.0019,4.0059,3.9902,3.9473,3.9199,3.9199,3.8827,3.8592,3.8592,3.8592,3.8592,3.8592,3.8592,3.8592,3.8592,3.8592,3.8592,3.8592,3.8592,3.8592,3.8592,3.8592,3.8671,3.8866,3.957,4.0137,4.0547,4.1015,4.1191,4.1191,4.1191,4.1191,4.1191,4.1191,4.1191,4.1191,4.1191,4.1191,4.1191,4.1191,4.1191,4.1191,4.1191,4.1191,4.1191,4.1191,4.1191,4.1191,4.1191,4.1191,4.1191,4.1191,4.1191,4.1191,4.1191,4.1191,4.1191,4.1191,4.1191,4.1191,4.1191,4.1191,4.1191,4.1191,4.1191,4.1289,4.1543,4.1602,4.168,4.1953,4.1973,4.1875,4.1601,4.1602,4.1484,4.1211,4.1191,4.1191,4.1191,4.1191,4.1191,4.1191,4.1191,4.1191,4.1191,4.1191,4.1191,4.1191,4.1191,4.1191,2.0752,0.0,0.0,0.0,2.9076,3.0874,3.3285,3.4944,3.6211,3.6951,3.7754,3.8437,3.8693,3.9141,3.9551,3.9844,3.9902,3.9844,3.9687,3.9805,3.9785,3.9511,3.957,3.9609,3.9491,3.9198,3.8984,3.8984,3.8749,3.8592,3.8592,3.8592,3.8592,3.8592,3.8592,3.8592,3.8592,3.8592,3.8592,3.8592,3.8592,3.8592,3.8592,3.8592,3.8592,3.8631,3.9336,3.9902,4.0351,4.0957,4.1191,4.1191,4.1191,4.1191,4.1191,4.1191,4.1191,4.1191,4.1191,4.1191,4.1191,4.1191,4.1191,4.1191,4.1191,4.1191,4.1191,4.1191,4.1191,4.1191,4.1191,4.1191,4.1191,4.1191,4.1191,4.1191,4.1191,4.1191,4.1191,4.1191,4.1191,4.1191,4.1191,4.1191,4.1191,4.1191,4.1308,4.1504,4.1758,4.1933,4.2089,4.2382,4.2402,4.2285,4.2011,4.1992,4.1836,4.1426,4.1406,4.1348,4.1211,4.1191,4.1191,4.1191,4.1191,4.1191,4.1191,4.1191,4.1191,4.1191,4.1191,4.1191,0.0,0.0,0.0,0.0,2.6582,2.7754,3.3203,3.3832,3.389,3.613,3.7226,3.7814,3.7873,3.8242,3.8846,3.9687,3.9844,3.9707,3.9258,3.957,3.955,3.869,3.8926,3.9023,3.8631,3.8592,3.8592,3.8592,3.8592,3.8592,3.8592,3.8592,3.8592,3.8592,3.8592,3.8592,3.8592,3.8592,3.8592,3.8592,3.8592,3.8592,3.8592,3.8592,3.8592,3.8612,3.9042,3.9473,3.9961,4.082,4.1191,4.1191,4.1191,4.1191,4.1191,4.1191,4.1191,4.1191,4.1191,4.1191,4.1191,4.1191,4.1191,4.1191,4.1191,4.1191,4.1191,4.1191,4.1191,4.1191,4.1191,4.1191,4.1191,4.1191,4.1191,4.1191,4.1191,4.1191,4.1191,4.1191,4.1191,4.1191,4.1191,4.1191,4.1191,4.1191,4.1523,4.1797,4.1816,4.2167,4.2441,4.2441,4.2441,4.2441,4.2421,4.2421,4.2246,4.1836,4.1816,4.1621,4.123,4.1211,4.1191,4.1191,4.1191,4.1191,4.1191,4.1191,4.1191,4.1191,4.1191,4.1191,1.9698,0.0,0.0,0.0,0.0,0.0,2.7702,2.9191,3.0942,3.3734,3.4766,3.5642,3.7187,3.7578,3.7832,3.8361,3.873,3.8905,3.8788,3.8885,3.8866,3.8631,3.869,3.871,3.8612,3.8592,3.8592,3.8592,3.8592,3.8592,3.8592,3.8592,3.8592,3.8592,3.8592,3.8592,3.8592,3.8592,3.8592,3.8592,3.8592,3.8592,3.8592,3.8592,3.8592,3.8612,3.9042,3.9473,3.9941,4.0469,4.0879,4.1191,4.1191,4.1191,4.1191,4.1191,4.1191,4.1191,4.1191,4.1191,4.1191,4.1191,4.1191,4.1191,4.1191,4.1191,4.1191,4.1191,4.1191,4.1191,4.1191,4.1191,4.1191,4.1191,4.1191,4.1191,4.1191,4.1191,4.1191,4.1191,4.1191,4.1191,4.1191,4.1191,4.1191,4.1191,4.1523,4.1914,4.2187,4.2637,4.3008,4.332,4.3359,4.3223,4.293,4.2891,4.2715,4.2265,4.1953,4.1758,4.1621,4.1348,4.1191,4.1191,4.1191,4.1191,4.1191,4.1191,4.1191,4.1191,4.1191,4.1191,0.0,0.0,0.0,0.0,0.0,0.0,2.644,2.7591,2.901,3.2246,3.3379,3.4297,3.5918,3.6367,3.6699,3.7305,3.7635,3.7987,3.8532,3.8592,3.8592,3.8592,3.8592,3.8592,3.8592,3.8592,3.8592,3.8592,3.8592,3.8592,3.8592,3.8592,3.8592,3.8592,3.8592,3.8592,3.8592,3.8592,3.8592,3.8592,3.8592,3.8592,3.8592,3.8592,3.8592,3.8612,3.8846,3.9297,3.9922,4.0156,4.0625,4.1191,4.1191,4.1191,4.1191,4.1191,4.1191,4.1191,4.1191,4.1191,4.1191,4.1191,4.1191,4.1191,4.1191,4.1191,4.1191,4.1191,4.1191,4.1191,4.1191,4.1191,4.1191,4.1191,4.1191,4.1191,4.1191,4.1191,4.1191,4.1191,4.1191,4.1191,4.1191,4.1191,4.125,4.1426,4.1797,4.2226,4.2637,4.3066,4.3437,4.3672,4.3711,4.3613,4.3359,4.336,4.3144,4.2734,4.2305,4.1992,4.1816,4.1406,4.1191,4.1191,4.1191,4.1191,4.1191,4.1191,4.1191,4.1191,4.1191,4.1191,0.0,0.0,0.0,0.0,2.2665,0.0,2.7136,2.7389,2.7624,3.0888,3.2109,3.2953,3.4004,3.4609,3.5212,3.5952,3.6343,3.699,3.8298,3.8456,3.8456,3.8456,3.8456,3.8475,3.8514,3.8514,3.8534,3.8611,3.8592,3.8592,3.8592,3.8592,3.8592,3.8592,3.8592,3.8592,3.8592,3.8592,3.8592,3.8592,3.8592,3.8592,3.8592,3.8592,3.8592,3.8592,3.8592,3.91,3.9902,3.9902,4.0429,4.1191,4.1191,4.1191,4.1191,4.1191,4.1191,4.1191,4.1191,4.1191,4.1191,4.1191,4.1191,4.1191,4.1191,4.1191,4.1191,4.1191,4.1191,4.1191,4.1191,4.1191,4.1191,4.1191,4.1191,4.1191,4.1191,4.1191,4.1191,4.1191,4.1191,4.1191,4.1191,4.123,4.1387,4.1738,4.2187,4.2637,4.3048,4.3437,4.3711,4.3711,4.3711,4.3711,4.3711,4.3711,4.3555,4.3184,4.2734,4.2285,4.1894,4.1484,4.125,4.1191,4.1191,4.1191,4.1191,4.1191,4.1191,4.1191,4.1191,4.1191,2.4004,2.4054,2.4292,2.351,0.0,0.0,2.3429,2.4121,2.5398,2.7161,2.7669,2.8437,3.0664,3.1738,3.2211,3.2066,3.4079,3.6111,3.7363,3.7539,3.7539,3.7539,3.7539,3.7676,3.8009,3.8029,3.8203,3.8573,3.8592,3.8592,3.8592,3.8592,3.8592,3.8592,3.8592,3.8592,3.8592,3.8592,3.8592,3.8592,3.8592,3.8592,3.8592,3.8592,3.8592,3.8592,3.8592,3.91,3.9902,3.9902,4.0429,4.1191,4.1191,4.1191,4.1191,4.1191,4.1191,4.1191,4.1191,4.1191,4.1191,4.1191,4.1191,4.1191,4.1191,4.1191,4.1191,4.1191,4.1191,4.1191,4.1191,4.1191,4.1191,4.1191,4.1191,4.1191,4.1191,4.1191,4.1191,4.1191,4.1191,4.1191,4.1191,4.1465,4.1699,4.1797,4.2461,4.3008,4.3087,4.3437,4.3711,4.3711,4.3711,4.3711,4.3711,4.3711,4.3672,4.3594,4.3183,4.2754,4.2304,4.1894,4.1523,4.1211,4.1191,4.1191,4.1191,4.1191,4.1191,4.1191,4.1191,4.1191,2.5265,2.4926,2.4984,2.4562,0.0,0.0,0.0,2.3789,2.4426,2.6607,2.6353,2.647,2.8822,2.9244,2.9537,3.0415,3.2012,3.3531,3.4606,3.6052,3.701,3.701,3.701,3.7088,3.7285,3.7463,3.7695,3.7928,3.7948,3.7948,3.7948,3.8144,3.8242,3.8242,3.8475,3.8592,3.8592,3.8592,3.8592,3.8592,3.8592,3.8592,3.8592,3.8592,3.8592,3.8592,3.8592,3.91,3.9902,3.9902,4.0429,4.1191,4.1191,4.1191,4.1191,4.1191,4.1191,4.1191,4.1191,4.1191,4.1191,4.1191,4.1191,4.1191,4.1191,4.1191,4.1191,4.1191,4.1191,4.1191,4.1191,4.1191,4.1191,4.1191,4.1191,4.1191,4.1191,4.1191,4.1191,4.1191,4.1191,4.1191,4.1191,4.1523,4.1875,4.207,4.2656,4.3165,4.3359,4.3574,4.3711,4.3711,4.3711,4.3711,4.3711,4.3711,4.3711,4.3711,4.3301,4.2891,4.2421,4.2011,4.1601,4.1211,4.1191,4.1191,4.1191,4.1191,4.1191,4.1191,4.1191,4.1191,0.0,0.0,0.0,0.0,0.0,2.4844,0.0,0.0,0.0,2.6255,2.5649,2.5266,2.7103,2.6934,2.7025,2.8703,2.9771,3.0561,3.1025,3.3547,3.5463,3.5795,3.5974,3.613,3.6287,3.6462,3.6758,3.7266,3.6914,3.6855,3.7266,3.7617,3.7814,3.7912,3.8262,3.8514,3.8592,3.8592,3.8592,3.8592,3.8592,3.8592,3.8592,3.8592,3.8592,3.8592,3.8592,3.91,3.9902,3.9902,4.0429,4.1191,4.1191,4.1191,4.1191,4.1191,4.1191,4.1191,4.1191,4.1191,4.1191,4.1191,4.1191,4.1191,4.1191,4.1191,4.1191,4.1191,4.1191,4.1191,4.1191,4.1191,4.1191,4.1191,4.1191,4.1191,4.1191,4.1191,4.1191,4.1191,4.1191,4.1191,4.1191,4.1523,4.1953,4.2343,4.2793,4.3243,4.3652,4.3711,4.3711,4.3711,4.3711,4.3711,4.3711,4.3711,4.3711,4.3711,4.3399,4.3008,4.2538,4.207,4.1641,4.1328,4.1308,4.1308,4.1308,4.1308,4.1269,4.1191,4.1191,4.1191,0.0,0.0,0.0,0.0,2.7344,0.0,0.0,0.0,2.4535,2.334,0.0,2.3532,2.418,0.0,0.0,2.4551,2.6829,2.8236,2.72,2.8992,3.0986,3.2531,3.334,3.4066,3.4844,3.4261,3.4808,3.7129,3.5544,3.529,3.7187,3.7344,3.7539,3.7892,3.7951,3.8184,3.8611,3.8592,3.8592,3.8592,3.8592,3.8592,3.8592,3.8592,3.8592,3.8592,3.8592,3.91,3.9902,3.9902,4.0429,4.1191,4.1191,4.1191,4.1191,4.1191,4.1191,4.1191,4.1191,4.1191,4.1191,4.1191,4.1191,4.1191,4.1191,4.1191,4.1191,4.1191,4.1191,4.1191,4.1191,4.1191,4.1191,4.1191,4.1191,4.1191,4.1191,4.1191,4.1191,4.1191,4.1191,4.1191,4.1191,4.1523,4.1953,4.2343,4.2793,4.3243,4.3652,4.3711,4.3711,4.3711,4.3711,4.3711,4.3711,4.3711,4.3711,4.3711,4.3652,4.3437,4.3048,4.2226,4.1777,4.1738,4.1738,4.1738,4.1738,4.1738,4.1562,4.1191,4.1191,4.1191,0.0,0.0,0.0,0.0,0.0,0.0,2.4873,0.0,2.3594,0.0,0.0,0.0,0.0,0.0,0.0,0.0,2.5059,2.5847,2.53,2.668,2.8373,3.0078,3.0571,3.1333,3.2699,3.2504,3.307,3.4886,3.3984,3.4059,3.5703,3.6541,3.7146,3.7539,3.7775,3.8125,3.8611,3.8592,3.8592,3.8592,3.8592,3.8592,3.8592,3.8592,3.8592,3.8612,3.8846,3.9297,3.9922,4.0156,4.0625,4.1191,4.1191,4.1191,4.1191,4.1191,4.1191,4.1191,4.1191,4.1191,4.1191,4.1191,4.1191,4.1191,4.1191,4.1191,4.1191,4.1191,4.1191,4.1191,4.1191,4.1191,4.1191,4.1191,4.1191,4.1191,4.1191,4.1191,4.1191,4.1191,4.1191,4.1191,4.1191,4.1719,4.2207,4.2382,4.3008,4.3496,4.3691,4.3711,4.3711,4.3711,4.3711,4.3711,4.3711,4.3711,4.3711,4.3711,4.3476,4.3282,4.3106,4.248,4.2148,4.2148,4.2148,4.2148,4.2148,4.1914,4.1699,4.1523,4.1308,4.1191,3.3133,0.0,0.0,0.0,0.0,0.0,0.0,0.0,0.0,0.0,2.3809,0.0,0.0,0.0,0.0,0.0,0.0,2.4149,2.3914,2.4727,2.5957,2.7656,2.8281,2.9146,3.065,3.0259,3.0747,3.2738,3.2055,3.248,3.459,3.5622,3.6502,3.7266,3.758,3.8008,3.8592,3.8592,3.8592,3.8592,3.8592,3.8592,3.8592,3.8592,3.8592,3.8612,3.9042,3.9473,3.9922,4.0332,4.0781,4.1191,4.1191,4.1191,4.1191,4.1191,4.1191,4.1191,4.1191,4.1191,4.1191,4.1191,4.1191,4.1191,4.1191,4.1191,4.1191,4.1191,4.1191,4.1191,4.1191,4.1191,4.1191,4.1191,4.1191,4.1191,4.1191,4.1191,4.1191,4.1191,4.1191,4.1191,4.1191,4.168,4.2148,4.2382,4.2929,4.3437,4.3672,4.3711,4.3711,4.3711,4.3711,4.3711,4.3711,4.3711,4.3711,4.3711,4.3418,4.3263,4.3263,4.2832,4.2577,4.2577,4.2577,4.2577,4.2577,4.2187,4.1953,4.1953,4.1445,4.1191,0.0,0.0,0.0,3.0559,0.0,0.0,0.0,0.0,2.5374,0.0,0.0,0.0,0.0,0.0,0.0,0.0,0.0,0.0,0.0,2.2606,2.3281,2.5004,2.6717,2.8073,2.8912,2.709,2.7461,3.1274,2.9629,3.0273,3.4473,3.4746,3.5547,3.7246,3.7305,3.7715,3.8592,3.8592,3.8592,3.8592,3.8592,3.8592,3.8592,3.8592,3.8592,3.8612,3.9042,3.9473,3.9922,4.0332,4.0781,4.1191,4.1191,4.1191,4.1191,4.1191,4.1191,4.1191,4.1191,4.1191,4.1191,4.1191,4.1191,4.1191,4.1191,4.1191,4.1191,4.1191,4.1191,4.1191,4.1191,4.1191,4.1191,4.1191,4.1191,4.1191,4.1191,4.1191,4.1191,4.1191,4.1191,4.1191,4.1191,4.1211,4.1484,4.2285,4.2421,4.2753,4.3594,4.3711,4.3711,4.3711,4.3711,4.3711,4.3711,4.3711,4.3711,4.3711,4.3691,4.3691,4.3691,4.3281,4.3067,4.3067,4.3067,4.3067,4.3067,4.2617,4.2382,4.2363,4.1562,4.1191,4.0602,4.1071,4.0561,3.4958,3.3587,3.225,2.7051,2.603,0.0,0.0,0.0,0.0,0.0,0.0,0.0,0.0,0.0,0.0,0.0,2.0977,2.1416,2.3164,2.4648,2.5613,2.5906,2.5796,2.6732,2.9199,2.9252,3.0405,3.3281,3.4531,3.57,3.6873,3.7148,3.7733,3.8592,3.8592,3.8592,3.8592,3.8592,3.8592,3.8592,3.8592,3.8749,3.9004,3.9473,3.9902,4.0332,4.0781,4.1054,4.1191,4.1191,4.1191,4.1191,4.1191,4.1191,4.1191,4.1191,4.1191,4.1191,4.1191,4.1191,4.1191,4.1191,4.1191,4.1191,4.1191,4.1191,4.1191,4.1191,4.1191,4.1191,4.1191,4.1191,4.1191,4.1191,4.1191,4.1191,4.1191,4.1191,4.1191,4.1191,4.1426,4.1777,4.2324,4.2656,4.3066,4.3633,4.3711,4.3711,4.3711,4.3711,4.3711,4.3711,4.3711,4.3711,4.3711,4.3711,4.3711,4.3711,4.3574,4.3496,4.3496,4.3496,4.3496,4.3496,4.3066,4.2715,4.2402,4.1855,4.1465,4.3666,4.4192,4.3678,3.87,3.7372,3.5888,3.0565,2.9528,2.9289,2.7921,0.0,0.0,0.0,0.0,0.0,0.0,0.0,0.0,0.0,2.0605,2.1035,2.2138,2.2997,2.3739,2.4332,2.4215,2.521,2.7884,2.8034,2.9389,3.2617,3.4004,3.5293,3.6675,3.7107,3.7733,3.8592,3.8592,3.8592,3.8592,3.8592,3.8592,3.8592,3.8749,3.8945,3.9238,3.9844,4.0254,4.0547,4.1015,4.1191,4.1191,4.1191,4.1191,4.1191,4.1191,4.1191,4.1191,4.1191,4.1191,4.1191,4.1191,4.1191,4.1191,4.1191,4.1191,4.1191,4.1191,4.1191,4.1191,4.1191,4.1191,4.1191,4.1191,4.1191,4.1191,4.1191,4.1191,4.1191,4.1191,4.1191,4.1191,4.1191,4.1523,4.1953,4.2343,4.2793,4.3243,4.3652,4.3711,4.3711,4.3711,4.3711,4.3711,4.3711,4.3711,4.3711,4.3711,4.3711,4.3711,4.3711,4.3711,4.3711,4.3711,4.3711,4.3711,4.3711,4.3125,4.2695,4.2402,4.1836,4.1445]}]]